     2              OBSERVATION DATA    GPS                 RINEX VERSION / TYPE
teqc 2002Apr3 20050527 16:13:08UTC                          PGM / RUN BY / DATE
                                                            COMMENT
L2: 1 -> 1; 150 -> 5; 250 -> 9                              COMMENT
L2: 1 -> 1; 150 -> 5; 250 -> 9                              COMMENT
L2: 1 -> 1; 150 -> 5; 250 -> 9                              COMMENT
L2: 1 -> 1; 150 -> 5; 250 -> 9                              COMMENT
L2: 1 -> 1; 150 -> 5; 250 -> 9                              COMMENT
Original Marker Name: COW4                                  COMMENT
Campaign Name: Salton Airpark 1                             COMMENT
4-Character Station Name: SAP1                              COMMENT
6-Character Antenna Code: DMRCHT                            COMMENT
Vertical Measurement Point: BCR                             COMMENT
Vertical Offset to Rinex Ref. Point: 0.0348                 COMMENT
Radial Measurement Point: ECF                               COMMENT
Radial Offset to Rinex Ref. Point: 0.1897                   COMMENT
Antenna Height from Field Measurement: 1.3740 m             COMMENT
Additional Antenna Identification Info.:                    COMMENT
Turborogue and Ashtech Choke Ring                           COMMENT
Original XYZ: 0.0000 0.0000 0.0000                          COMMENT
New XYZ position is based on association with SCEC monument COMMENT
E1D0I2G0+0011. Position of that monument is believed to be  COMMENT
valid to within 1 m horizontally; vertical accuracy         COMMENT
should be no worse than 3-times this value.                 COMMENT
                                                            COMMENT
Revised Rinex header created by UCSD GPS archive for        COMMENT
GSAC on 21-Jul-2005 (2005:202) 16:57:27 GMT                 COMMENT
For assistance contact dagnew@ucsd.edu                      COMMENT
or anderson@python.ucsd.edu                                 COMMENT
                                                            COMMENT
DIV HWYS                                                    MARKER NAME
AJB SCRIPPS INSTITUTION OF OCEANOGRAPHY                     OBSERVER / AGENCY
378 ASHTECH Z-XII3 CC00                                     REC # / TYPE / VERS
653 DORNE-MARGOL. TYPE T                                    ANT # / TYPE
 -2335668.0000 -4801569.0000  3476751.0000                  APPROX POSITION XYZ
        1.3260        0.0000        0.0000                  ANTENNA: DELTA H/E/N
     1     1     0                                          WAVELENGTH FACT L1/2
     7    C1    L1    L2    P1    P2    S1    S2            # / TYPES OF OBSERV
     0                                                      INTERVAL
  2005     5    19    15    33    0.000000                  TIME OF FIRST OBS
  2005     5    19    19    28   30.000000                  TIME OF LAST OBS
                                                            END OF HEADER
 05  5 19 15 33  0.0000000  0  4G 6G30G 5G10
                   -233210.61349   -168270.89043
       244.0004         74.0004
  22180132.2574      65216.91549     47165.75847  22180132.2344   22180138.9574
       234.0004        188.0004
  24688550.6654     113642.07959     82683.35345  24688548.4044   24688557.8154
       212.0004        138.0004
  22616677.5694      96792.31159     69510.98446  22616676.9104   22616684.8594
       226.0004        178.0004
 05  5 19 15 33 30.0000000  0  4G 6G30G 5G10
                  -1145508.77349   -669081.54046                  20254586.4374
       244.0004        185.0004
  22027111.0184    -738918.60349   -579433.38247  22027110.5794   22027116.9264
       234.0004        188.0004
  24539594.0074    -669131.50349   -527270.18245  24539592.9234   24539602.2954
       214.0004        147.0004
  22464821.9094    -701215.78249   -552313.54946  22464821.5084   22464829.0714
       225.0004        178.0004
 05  5 19 15 34  0.0000000  0  4G 6G30G 5G10
  20250116.7384   -1168964.72949   -687358.91747  20250116.8664   20250122.9914
       243.0004        208.0004
  22043217.6294    -654277.25049   -513479.11147  22043217.4084   22043223.8864
       234.0004        188.0004
  24559696.7814    -563489.54449   -444951.88145  24559695.5374   24559705.5294
       212.0004        148.0004
  22482092.6934    -610458.80349   -481593.87846  22482092.4914   22482099.8714
       225.0004        177.0004
 05  5 19 15 34 30.0000000  0  4G 6G30G 5G10
  20245721.8094   -1192060.94949   -705355.97447  20245721.6094   20245728.0094
       243.0004        211.0004
  22059379.8534    -569343.79849   -447297.24547  22059379.8794   22059386.7394
       234.0004        188.0004
  24579786.6494    -457916.17749   -362687.03045  24579786.0684   24579795.2674
       211.0004        149.0004
  22499416.6444    -519421.39749   -410655.69246  22499416.0884   22499424.3704
       225.0004        177.0004
 05  5 19 15 35  0.0000000  0  5G 6G21G30G 5G10
  20241395.8884   -1214794.04449   -723070.07547  20241395.7234   20241401.9314
       243.0004        212.0004
  21883792.2254    -987220.86259   -740948.94347  21883791.4964   21883797.8014
       236.0004        191.0004
  22075597.4794    -484119.64649   -380888.85346  22075597.8124   22075604.0214
       234.0004        187.0004
  24599863.3924    -352412.16349   -280476.22745  24599862.5704   24599872.0914
       212.0004        150.0004
  22516793.7234    -428104.68949   -339499.86246  22516793.1984   22516801.2994
       225.0004        176.0004
 05  5 19 15 35 30.0000000  0  4G21G30G 5G10
  21874887.8804   -1034014.92749   -777411.84847  21874887.0014   21874892.8874
       236.0004        191.0004
  22091861.6034    -398651.05849   -314289.99446  22091861.9124   22091868.1434
       234.0004        187.0004
  24619918.2824    -247023.21349   -198355.08645  24619917.6664   24619927.4944
       211.0004        149.0004
  22534215.1834    -336554.94549   -268162.44346  22534214.7384   22534222.4444
       225.0004        176.0004
 05  5 19 15 36  0.0000000  0  4G21G30G 5G10
  21866016.2464   -1080635.74549   -813739.75447  21866016.1424   21866020.8094
       236.0004        192.0004
  22108185.1584    -312870.41749   -247447.97446  22108185.4624   22108192.2964
       234.0004        187.0004
  24639964.3954    -141680.97549   -116270.33245  24639963.3184   24639974.0384
       207.0004        147.0004
  22551693.8424    -244704.52649   -196590.73146  22551693.0584   22551701.2504
       225.0004        176.0004
 05  5 19 15 36 30.0000000  0  4G21G30G 5G10
  21857178.0004   -1127081.41149   -849931.16747  21857177.2714   21857182.5144
       237.0004        192.0004
  22124567.9504    -226778.35849   -180363.29646  22124568.0104   22124575.2874
       233.0004        187.0004
  24660001.4984     -36385.66449    -34222.18345  24660000.5774   24660010.8554
       207.0004        144.0004
  22569229.6084    -152553.80549   -124785.02446  22569229.2084   22569236.7784
       225.0004        175.0004
 05  5 19 15 37  0.0000000  0  4G 6G30G 5G10
                   -385343.69959   -279007.54443
       243.0004         74.0004
  22141013.4704    -140356.68849   -113021.78246  22141013.5154   22141020.3874
       234.0004        187.0004
  24680033.2154      68881.45049     47804.04245  24680031.4804   24680041.3974
       204.0004        143.0004
  22586826.0104     -60084.62249    -52731.16046  22586825.0464   22586833.9024
       225.0004        175.0004
 05  5 19 15 37 30.0000000  0  4G 6G30G 5G10
  20220842.8544    -406101.81849   -295182.74247  20220842.3124   20220848.8744
       243.0004        205.0004
  22157525.0464     -53588.11749    -45409.95546  22157525.0054   22157532.0584
       233.0004        186.0004
  24700062.9664     174138.24149    129822.17445  24700061.3334   24700073.2214
       201.0004        142.0004
  22604486.3314      32720.61849     19584.55746  22604485.7004   22604493.3914
       226.0004        175.0004
 05  5 19 15 38  0.0000000  0  4G 6G30G 5G10
  20216959.3364    -426508.48149   -311084.03347  20216959.4004   20216965.4294
       243.0004        210.0004
  22174084.4994      33432.08449     22397.94546  22174084.4914   22174091.4234
       233.0004        186.0004
  24720072.8234     279289.78749    211758.28245  24720071.9704   24720083.1884
       200.0004        140.0004
  22622192.5024     125766.68449     92087.94746  22622192.0124   22622200.5074
       226.0004        175.0004
 05  5 19 15 38 30.0000000  0  4G 6G30G 5G10
  20213146.2824    -446547.61949   -326698.94547  20213146.0104   20213152.3684
       242.0004        211.0004
  22190694.0294     120715.48249     90410.94846  22190694.3724   22190700.8454
       236.0004        186.0004
  24740064.7934     384348.25849    293621.85845  24740064.6504   24740074.6384
       202.0004        137.0004
  22639946.6754     219065.08749    164787.94946  22639946.6214   22639954.5814
       220.0004        174.0004
 05  5 19 15 39  0.0000000  0  4G 6G30G 5G10
  20209405.1984    -466208.00149   -342018.71647  20209404.6304   20209411.0554
       242.0004        211.0004
  22207354.9004     208268.62649    158634.13946  22207355.2484   22207361.5354
       235.0004        185.0004
  24760040.6554     489321.04149    375418.66845  24760039.3414   24760050.6184
       199.0004        136.0004
  22657750.2124     312622.73149    237689.93846  22657749.2574   22657757.9794
       224.0004        173.0004
 05  5 19 15 39 30.0000000  0  4G 6G30G 5G10
  20205736.9634    -485484.18549   -357039.12047  20205736.7894   20205743.0394
       243.0004        211.0004
  22224067.2784     296092.43049    227068.20246  22224067.9884   22224074.2634
       234.0004        186.0004
  24780000.5424     594209.55649    457149.84545  24780001.3524   24780009.7414
       204.0004        134.0004
  22675603.2264     406440.46649    310794.63946  22675602.5874   22675609.7724
       226.0004        174.0004
 05  5 19 15 40  0.0000000  0  3G30G 5G10
  22240830.0614     384180.86649    295708.49946  22240830.4934   22240836.6214
       232.0004        184.0004
  24799943.3294     699008.41349    538811.15844  24799944.6864   24799953.9384
       204.0004        129.0004
  22693504.6564     500512.64349    384097.58546  22693504.3344   22693511.9274
       225.0004        174.0004
 05  5 19 15 40 30.0000000  0  4G21G30G 5G10
                  -1512809.44859  -1166185.52946                  21787608.4394
       237.0004        172.0004
  22257633.0754     472480.90149    364513.66546  22257633.5014   22257640.0864
       233.0004        184.0004
  24819858.9074     803665.12149    620361.65045  24819859.5994   24819867.4754
       206.0004        132.0004
  22711444.4064     594786.37349    457557.58046  22711443.8554   22711452.0384
       225.0004        174.0004
 05  5 19 15 41  0.0000000  0  4G15G21G30G10
                  -1767931.06559  -1349489.39543                  24608827.5694
       213.0004         88.0004
  21779026.8184   -1557880.75449  -1201306.03447  21779026.3544   21779032.0834
       237.0004        190.0004
  22274487.1844     561049.35549    433527.99246  22274487.3234   22274493.9364
       233.0004        184.0004
  22729433.3504     689318.61349    531219.01746  22729432.4814   22729441.0374
       224.0004        173.0004
 05  5 19 15 41 30.0000000  0  6G15G18G21G29G30G10
  24594425.1114   -1843586.86349  -1408441.94445  24594421.8764   24594431.4504
       212.0004        142.0004
  23049010.3854   -1725193.37959  -1308187.92846  23049010.1924   23049016.2944
       225.0004        167.0004
  21770486.5264   -1602760.51649  -1236277.26947  21770486.0464   21770491.2584
       237.0004        193.0004
  22826945.6214   -1614103.97959  -1233005.65746  22826945.5244   22826953.2184
       220.0004        165.0004
  22291398.3774     649917.98149    502776.22846  22291398.3464   22291404.7924
       233.0004        184.0004
  22747477.6114     784141.42149    605106.86846  22747476.6604   22747484.0434
       224.0004        172.0004
 05  5 19 15 42  0.0000000  0  7G15G18G21G29G30G10G26
  24580041.3074   -1919170.25949  -1467338.08945  24580039.4234   24580048.1184
       212.0004        146.0004
  23030907.2174   -1820328.90349  -1382319.46946  23030906.7154   23030912.2314
       225.0004        168.0004
  21761975.8874   -1647484.77949  -1271127.34947  21761975.1184   21761980.8904
       237.0004        193.0004
  22818848.1414   -1656657.85649  -1266164.50746  22818848.1604   22818855.5694
       220.0004        167.0004
  22308359.2374     739047.64049    572227.86546  22308359.6144   22308365.8424
       233.0004        183.0004
  22765569.6514     879215.67249    679190.64246  22765569.1644   22765577.7704
       223.0004        172.0004
  22841004.8544   -1703966.24059  -1299715.56945  22841004.2324   22841012.3754
       218.0004        159.0004
 05  5 19 15 42 30.0000000  0  7G15G18G21G29G30G10G26
  24565672.4574   -1994676.34949  -1526174.00345  24565670.9404   24565679.4704
       212.0004        146.0004
  23012850.7744   -1915215.70949  -1456257.20446  23012850.1554   23012855.8454
       225.0004        169.0004
  21753495.5284   -1692049.02249  -1305852.72847  21753495.0694   21753500.5004
       237.0004        193.0004
  22810834.4554   -1698769.87749  -1298979.05946  22810833.8984   22810841.4394
       220.0004        167.0004
  22325370.1314     828440.24649    641884.39246  22325371.0374   22325376.8424
       232.0004        183.0004
  22783709.9854     974543.47549    753471.99446  22783709.8464   22783718.2184
       224.0004        171.0004
  22825627.1174   -1784779.30449  -1362686.74845  22825626.2884   22825633.4174
       219.0004        160.0004
 05  5 19 15 43  0.0000000  0  7G15G18G21G29G30G10G26
  24551319.1374   -2070102.19649  -1584947.38545  24551317.5674   24551326.0764
       212.0004        146.0004
  22994842.6134   -2009848.57849  -1529997.07946  22994842.8824   22994848.1284
       224.0004        169.0004
  21745046.2544   -1736450.42949  -1340451.22747  21745045.0294   21745050.8554
       237.0004        193.0004
  22802906.0054   -1740434.38949  -1331444.88946  22802906.1574   22802912.7874
       221.0004        168.0004
  22342431.0824     918095.96649    711745.93846  22342431.1174   22342437.3934
       231.0004        182.0004
  22801898.6024    1070125.14549    827951.15346  22801897.8354   22801906.8104
       222.0004        170.0004
  22810309.5414   -1865272.03649  -1425408.32845  22810308.6924   22810316.0604
       218.0004        161.0004
 05  5 19 15 43 30.0000000  0  8G15G18G21G29G30G 6G10G26
  24536980.5724   -2145451.61249  -1643661.20845  24536978.7934   24536989.3764
       211.0004        145.0004
  22976882.4774   -2104229.40949  -1603540.54246  22976882.2554   22976887.8724
       224.0004        170.0004
  21736627.1154   -1780693.33249  -1374926.21847  21736626.4074   21736631.6964
       237.0004        193.0004
  22795062.4094   -1781652.98749  -1363563.24846  22795062.1174   22795069.8194
       221.0004        168.0004
  22359540.7584    1008007.86349    781807.11746  22359540.8124   22359547.2264
       231.0004        182.0004
                  -1116349.49859   -858431.15047                  20179053.5264
       243.0004        198.0004
  22820134.3434    1165954.13749    902623.04746  22820133.7604   22820142.0564
       222.0004        170.0004
  22795052.9604   -1945444.93949  -1487880.69245  22795051.7744   22795060.8814
       219.0004        161.0004
 05  5 19 15 44  0.0000000  0  8G15G18G21G29G30G 6G10G26
  24522655.1134   -2220731.55849  -1702320.90545  24522653.3904   24522662.9634
       212.0004        143.0004
  22958969.3824   -2198362.99549  -1676891.34546  22958968.6374   22958975.3504
       224.0004        170.0004
  21728237.0184   -1824783.79249  -1409282.41647  21728236.3854   21728241.5384
       238.0004        193.0004
  22787302.8594   -1822429.96049  -1395337.47946  22787303.0084   22787309.6204
       222.0004        169.0004
  22376697.3494    1098166.38649    852060.45846  22376697.6654   22376703.8914
       230.0004        181.0004
  20176056.8584   -1132065.46349   -870677.35547  20176056.5874   20176062.9174
       243.0004        209.0004
  22838415.3094    1262020.74649    977480.08846  22838414.8344   22838423.4574
       222.0004        170.0004
  22779856.8564   -2025300.91449  -1550106.09345  22779856.4344   22779864.3564
       218.0004        162.0004
 05  5 19 15 44 30.0000000  0  8G15G18G21G29G30G 6G10G26
  24508342.5904   -2295944.18949  -1760928.14545  24508342.4984   24508350.5344
       212.0004        142.0004
  22941103.2784   -2292249.91649  -1750049.95746  22941102.1754   22941109.3744
       225.0004        170.0004
  21719875.3454   -1868724.88049  -1443522.21447  21719874.6944   21719879.9534
       238.0004        193.0004
  22779627.3914   -1862765.35649  -1426767.63146  22779626.8524   22779634.2314
       223.0004        169.0004
  22393899.8684    1188566.11249    922501.76246  22393899.9364   22393906.3684
       231.0004        180.0004
  20173142.5684   -1147381.45049   -882611.88947  20173142.1844   20173148.4544
       243.0004        211.0004
  22856740.5594    1358320.18049   1052518.55346  22856740.1884   22856747.2224
       223.0004        170.0004
  22764721.3104   -2104838.61049  -1612083.49445  22764722.0414   22764728.4274
       219.0004        162.0004
 05  5 19 15 45  0.0000000  0  8G15G18G21G29G30G 6G10G26
  24494042.8614   -2371089.62749  -1819483.05045  24494041.4984   24494051.0144
       212.0004        139.0004
  22923284.4554   -2385888.20249  -1823014.81446  22923283.8614   22923290.7514
       226.0004        171.0004
  21711542.1044   -1912516.58449  -1477645.61847  21711541.6324   21711546.6124
       239.0004        193.0004
  22772036.3234   -1902656.94649  -1457851.96246  22772036.7974   22772042.9234
       223.0004        169.0004
  22411147.7244    1279204.04949    993128.67746  22411148.4054   22411154.1544
       231.0004        179.0004
  20170304.2914   -1162295.99749   -894233.61747  20170304.1694   20170310.2824
       244.0004        211.0004
  22875109.5624    1454849.43749   1127736.09746  22875108.7724   22875116.9804
       223.0004        169.0004
  22749647.0234   -2184054.48249  -1673810.11646  22749647.3374   22749653.7694
       221.0004        163.0004
 05  5 19 15 45 30.0000000  0  8G15G18G21G29G30G 6G10G26
  24479756.9144   -2446162.58449  -1877981.44645  24479755.3384   24479764.8764
       209.0004        137.0004
  22905514.3744   -2479270.35949  -1895780.08746  22905513.6334   22905520.7254
       225.0004        171.0004
  21703238.1964   -1956153.89849  -1511648.70347  21703237.8314   21703243.0934
       237.0004        194.0004
  22764531.1534   -1942096.97549  -1488584.39546  22764531.6434   22764537.4014
       223.0004        169.0004
  22428441.4014    1370082.64249   1063943.13146  22428441.4534   22428447.9784
       229.0004        179.0004
  20167543.8604   -1176802.23849   -905537.17547  20167543.5604   20167549.8374
       243.0004        212.0004
  22893522.7724    1551611.18549   1203134.80646  22893521.7254   22893529.4324
       220.0004        169.0004
  22734635.7234   -2262939.57749  -1735279.00346  22734635.7094   22734642.8074
       220.0004        164.0004
 05  5 19 15 46  0.0000000  0  8G15G18G21G29G30G 6G10G26
  24465483.4574   -2521169.81149  -1936428.62745  24465481.5304   24465492.0204
       207.0004        135.0004
  22887792.0804   -2572401.50149  -1968349.79046  22887791.3124   22887797.4254
       226.0004        172.0004
  21694962.3734   -1999643.61849  -1545536.80047  21694961.7314   21694967.1924
       237.0004        194.0004
  22757111.0884   -1981089.81649  -1518968.40546  22757111.3004   22757117.7894
       222.0004        169.0004
  22445779.0074    1461192.06649   1134937.43746  22445779.8304   22445786.3634
       230.0004        179.0004
  20164860.1734   -1190905.41949   -916526.67247  20164859.9684   20164866.2194
       243.0004        212.0004
  22911978.4124    1648596.00249   1278707.33246  22911977.5484   22911985.3414
       220.0004        168.0004
  22719686.8054   -2341496.77849  -1796492.39746  22719686.7384   22719693.9634
       220.0004        165.0004
 05  5 19 15 46 30.0000000  0  8G15G18G21G29G30G 6G10G26
  24451223.0634   -2596108.44749  -1994822.37345  24451220.4024   24451230.0374
       207.0004        133.0004
  22870118.5044   -2665276.76149  -2040720.07946  22870118.4864   22870124.4384
       226.0004        172.0004
  21686715.2264   -2042982.76249  -1579307.55047  21686714.4404   21686720.0554
       237.0004        194.0004
  22749777.0474   -2019630.44149  -1549000.00946  22749775.8884   22749784.1814
       222.0004        169.0004
  22463160.5804    1552532.35849   1206111.64846  22463161.0474   22463167.1504
       230.0004        178.0004
  20162254.0134   -1204601.06749   -927198.60747  20162253.7824   20162259.8134
       244.0004        212.0004
  22930476.5234    1745804.00649   1354453.78046  22930476.6014   22930484.4114
       221.0004        168.0004
  22704801.5384   -2419719.64649  -1857445.26646  22704801.0234   22704809.0644
       220.0004        165.0004
 05  5 19 15 47  0.0000000  0  9G15G18G21G29G30G 6G10G26G16
  24436974.5444   -2670984.74149  -2053167.54845  24436973.3354   24436980.9004
       206.0004        132.0004
  22852492.7274   -2757900.69749  -2112894.54446  22852491.9794   22852498.5924
       226.0004        172.0004
  21678495.5314   -2086177.55849  -1612965.83247  21678495.3604   21678500.4694
       238.0004        195.0004
  22742528.2834   -2057722.65449  -1578682.21746  22742528.0754   22742535.2634
       222.0004        168.0004
  22480584.3364    1644094.16249   1277458.46546  22480584.8054   22480590.9854
       230.0004        178.0004
  20159724.4964   -1217893.92049   -937556.68247  20159724.4634   20159730.4424
       243.0004        212.0004
  22949015.4654    1843226.20249   1430367.12746  22949014.0884   22949022.4004
       220.0004        167.0004
  22689979.3444   -2497610.84449  -1918139.69846  22689979.7944   22689986.8094
       220.0004        166.0004
  24765669.8584   -2485507.07759  -1901309.09045  24765669.5644   24765677.9324
       197.0004        133.0004
 05  5 19 15 47 30.0000000  0  9G15G18G21G29G30G 6G10G26G16
  24422739.0384   -2745792.07049  -2111458.97744  24422739.3694   24422746.5004
       203.0004        130.0004
  22834916.5454   -2850264.19549  -2184866.07446  22834916.8564   22834922.1404
       226.0004        173.0004
  21670304.4224   -2129221.94249  -1646506.90447  21670304.0114   21670309.2874
       238.0004        195.0004
  22735366.5714   -2095357.56249  -1608008.07446  22735366.2134   22735373.3454
       222.0004        169.0004
  22498050.9584    1735881.36149   1348980.91846  22498052.0334   22498057.6804
       231.0004        178.0004
  20157273.1674   -1230775.88549   -947594.58547  20157273.0604   20157278.9974
       244.0004        212.0004
  22967595.8534    1940866.44749   1506450.37746  22967595.0154   22967603.4284
       220.0004        167.0004
  22675222.2634   -2575159.96149  -1978567.56946  22675222.3904   22675230.2324
       222.0004        166.0004
  24751264.4524   -2561207.62149  -1960296.53144  24751264.8964   24751271.2084
       196.0004        129.0004
 05  5 19 15 48  0.0000000  0  9G15G18G21G29G30G 6G10G26G16
  24408516.7274   -2820530.47849  -2169696.66444  24408516.6164   24408525.3284
       203.0004        130.0004
  22817390.2334   -2942365.65449  -2256633.41046  22817389.5504   22817395.7584
       226.0004        174.0004
  21662141.9724   -2172115.93149  -1679930.78347  21662141.4124   21662147.0124
       239.0004        196.0004
  22728292.3344   -2132532.70249  -1636975.67546  22728291.5314   22728299.4674
       221.0004        168.0004
  22515559.9684    1827891.06049   1420676.74446  22515559.9724   22515566.1724
       231.0004        178.0004
  20154900.2934   -1243245.42749   -957311.11847  20154899.9934   20154906.1804
       244.0004        212.0004
  22986217.2514    2038722.30349   1582701.64046  22986215.8144   22986224.6284
       220.0004        167.0004
  22660530.9584   -2652363.36649  -2038726.06046  22660530.9414   22660538.8724
       222.0004        166.0004
  24736928.2554   -2636543.87749  -2019000.08944  24736925.9134   24736936.7374
       195.0004        129.0004
 05  5 19 15 48 30.0000000  0  9G15G18G21G29G30G 6G10G26G16
  24394307.7624   -2895199.29049  -2227880.17344  24394306.2134   24394315.2094
       204.0004        129.0004
  22799914.2934   -3034202.45049  -2328194.52746  22799914.3484   22799920.6234
       228.0004        175.0004
  21654008.3954   -2214858.28849  -1713236.52147  21654007.8624   21654013.5544
       237.0004        196.0004
  22721306.1284   -2169245.33249  -1665582.88946  22721305.9174   22721312.6814
       221.0004        169.0004
  22533110.8504    1920120.96849   1492544.16146  22533111.1724   22533118.0024
       231.0004        178.0004
  20152606.3564   -1255300.24049   -966704.48647  20152606.2514   20152612.3904
       243.0004        212.0004
  23004879.3224    2136791.82749   1659119.39246  23004879.2144   23004886.3404
       220.0004        167.0004
  22645906.1964   -2729216.55749  -2098611.65246  22645906.3454   22645914.4154
       222.0004        165.0004
  24722662.1544   -2711512.78349  -2077417.41844  24722662.3874   24722669.3004
       197.0004        131.0004
 05  5 19 15 49  0.0000000  0  9G15G18G21G29G30G 6G10G26G16
  24380112.2154   -2969797.17149  -2286008.38844  24380110.0514   24380117.4224
       201.0004        129.0004
  22782489.3194   -3125771.43449  -2399546.95446  22782489.1514   22782495.2844
       228.0004        175.0004
  21645903.7764   -2257448.65649  -1746423.81247  21645903.3334   21645908.9924
       238.0004        196.0004
  22714408.6014   -2205491.80849  -1693826.84646  22714408.0534   22714415.8004
       221.0004        168.0004
  22550703.3414    2012569.52349   1564581.95146  22550703.9234   22550709.4184
       231.0004        178.0004
  20150391.8784   -1266937.49749   -975772.48547  20150391.5944   20150397.7904
       243.0004        212.0004
  23023581.7734    2235073.57649   1735702.51646  23023580.8374   23023589.1764
       219.0004        166.0004
  22631349.0894   -2805714.49349  -2158220.41246  22631349.2634   22631357.0104
       222.0004        165.0004
  24708466.9104   -2786110.62349  -2135545.63245  24708466.9744   24708474.8274
       202.0004        135.0004
 05  5 19 15 49 30.0000000  0  9G15G18G21G29G30G 6G10G26G16
  24365929.9544   -3044325.41549  -2344082.33744  24365929.3584   24365939.0544
       201.0004        131.0004
  22765115.4884   -3217071.76549  -2470690.03846  22765115.9084   22765120.9084
       227.0004        175.0004
  21637827.7984   -2299888.24449  -1779493.62147  21637827.5244   21637833.0334
       238.0004        196.0004
  22707599.9704   -2241271.25349  -1721706.89546  22707600.1564   22707606.2634
       222.0004        169.0004
  22568336.5804    2105232.22149   1636786.61046  22568337.2654   22568342.9384
       230.0004        178.0004
  20148256.8494   -1278157.09549   -984515.03147  20148256.6824   20148262.8374
       243.0004        212.0004
  23042323.8354    2333563.51049   1812447.85446  23042323.0824   23042331.5154
       219.0004        166.0004
  22616859.9894   -2881855.05149  -2217550.68046  22616860.0844   22616867.8244
       221.0004        166.0004
  24694342.2924   -2860336.60449  -2193384.08145  24694342.3434   24694349.9054
       203.0004        138.0004
 05  5 19 15 50  0.0000000  0  9G15G18G21G29G30G 6G10G26G16
  24351760.8954   -3118783.76149  -2402101.81444  24351759.6984   24351768.9464
       200.0004        131.0004
  22747793.1134   -3308101.72849  -2541622.45846  22747793.1214   22747798.7474
       229.0004        175.0004
  21629780.6464   -2342176.47649  -1812445.48647  21629780.2254   21629785.6294
       238.0004        196.0004
  22700880.6344   -2276581.26649  -1749221.15846  22700880.7274   22700887.5364
       222.0004        169.0004
  22586010.0674    2198106.50549   1709156.13246  22586010.9304   22586016.6584
       230.0004        178.0004
  20146201.6234   -1288957.43049   -992930.88047  20146201.6954   20146207.5214
       243.0004        211.0004
  23061105.1544    2432259.50149   1889353.75546  23061104.3004   23061112.8184
       220.0004        165.0004
  22602439.6574   -2957634.28249  -2276599.38346  22602439.5274   22602446.4204
       221.0004        166.0004
  24680288.8144   -2934188.13949  -2250930.75345  24680288.4324   24680296.1704
       205.0004        140.0004
 05  5 19 15 50 30.0000000  0  9G15G18G21G29G30G 6G10G26G16
  24337605.2094   -3193172.33849  -2460066.91045  24337604.8174   24337613.3034
       201.0004        132.0004
  22730522.5394   -3398859.20149  -2612342.53146  22730522.1374   22730528.0404
       230.0004        176.0004
  21621762.1724   -2384314.02349  -1845279.93847  21621761.5864   21621767.1634
       239.0004        196.0004
  22694251.0924   -2311419.75249  -1776367.98346  22694250.4574   22694257.5584
       223.0004        169.0004
  22603723.1844    2291189.34649   1781688.17246  22603723.7484   22603730.2794
       230.0004        178.0004
  20144226.4714   -1299337.10449  -1001018.94447  20144226.1824   20144232.4894
       243.0004        211.0004
  23079925.0774    2531158.51449   1966417.86946  23079924.1314   23079932.2764
       219.0004        165.0004
  22588088.7684   -3033048.74849  -2335363.84446  22588088.8514   22588096.3844
       223.0004        166.0004
  24666306.9704   -3007663.09449  -2308183.98545  24666306.6814   24666313.4694
       206.0004        141.0004
 05  5 19 15 51  0.0000000  0  9G15G18G21G29G30G 6G10G26G16
  24323462.8804   -3267490.90949  -2517977.45745  24323461.9884   24323472.2504
       202.0004        133.0004
  22713304.2174   -3489342.29249  -2682848.81546  22713303.7674   22713310.0134
       229.0004        176.0004
  21613772.5254   -2426300.24049  -1877996.46147  21613771.9374   21613777.1764
       238.0004        196.0004
  22687711.7464   -2345784.18649  -1803145.43146  22687711.2644   22687718.0034
       224.0004        170.0004
  22621475.5304    2384478.10549   1854380.66746  22621476.0784   22621482.5194
       230.0004        178.0004
  20142331.6474   -1309294.48949  -1008777.94747  20142331.4644   20142337.5784
       243.0004        212.0004
  23098783.1504    2630257.95049   2043638.13746  23098782.6064   23098790.0494
       219.0004        165.0004
  22573808.0754   -3108094.35849  -2393840.87246  22573808.3584   22573815.3184
       223.0004        166.0004
  24652397.3604   -3080759.03249  -2365141.88545  24652397.0614   24652404.6784
       206.0004        142.0004
 05  5 19 15 51 30.0000000  0  9G15G18G21G29G30G 6G10G26G16
  24309333.5634   -3341741.28849  -2575834.87745  24309333.6094   24309342.0844
       203.0004        136.0004
  22696138.0154   -3579551.29649  -2753141.51346  22696137.8014   22696143.9904
       229.0004        176.0004
  21605811.1624   -2468137.58749  -1910596.98147  21605810.4394   21605815.9004
       238.0004        196.0004
  22681262.6074   -2379674.53849  -1829553.45446  22681261.9794   22681269.6564
       223.0004        170.0004
  22639266.1194    2477967.75849   1927229.69046  22639266.6324   22639273.0244
       229.0004        177.0004
  20140517.1484   -1318829.95949  -1016208.18647  20140517.0604   20140523.0954
       243.0004        212.0004
  23117678.4624    2729553.34049   2121011.10746  23117677.9854   23117686.0884
       219.0004        164.0004
  22559597.8654   -3182769.53549  -2452029.24146  22559597.5964   22559604.9674
       222.0004        166.0004
  24638559.9304   -3153475.72449  -2421804.25845  24638559.6004   24638566.8984
       205.0004        142.0004
 05  5 19 15 52  0.0000000  0  9G15G18G21G29G30G 6G10G26G16
  24295217.3064   -3415923.21949  -2633638.97745  24295217.0414   24295226.7364
       205.0004        138.0004
  22679024.4624   -3669483.57049  -2823218.58546  22679024.3284   22679030.3384
       229.0004        176.0004
  21597878.0534   -2509826.22349  -1943081.62647  21597877.3314   21597882.9334
       238.0004        195.0004
  22674904.2004   -2413088.37549  -1855590.18546  22674904.1014   22674911.1334
       224.0004        171.0004
  22657094.3354    2571655.60749   2000233.16646  22657094.7204   22657100.9274
       229.0004        177.0004
  20138783.2034   -1327942.07049  -1023308.53147  20138782.9714   20138789.2724
       243.0004        212.0004
  23136610.6674    2829042.40349   2198534.99446  23136609.7584   23136617.6934
       219.0004        164.0004
  22545458.8624   -3257070.47149  -2509925.99146  22545458.5744   22545466.7854
       223.0004        166.0004
  24624795.1344   -3225810.39349  -2478168.96845  24624794.5394   24624801.9054
       209.0004        144.0004
 05  5 19 15 52 30.0000000  0  9G15G18G21G29G30G 6G10G26G16
  24281114.0024   -3490037.00849  -2691389.96945  24281114.1744   24281122.8174
       209.0004        141.0004
  22661963.8164   -3759137.76949  -2893078.97246  22661963.7094   22661969.7674
       229.0004        176.0004
  21589973.4114   -2551365.56749  -1975449.93547  21589972.8234   21589978.0054
       238.0004        195.0004
  22668636.8134   -2446023.80349  -1881254.12246  22668636.2204   22668643.8764
       224.0004        171.0004
  22674959.7164    2665538.60449   2073388.70746  22674959.3524   22674965.7714
       228.0004        176.0004
  20137130.0824   -1336629.35049  -1030077.84247  20137129.8854   20137136.0314
       243.0004        212.0004
  23155579.1944    2928722.32049   2276207.57346  23155578.1974   23155586.6384
       218.0004        163.0004
  22531391.6674   -3330993.80749  -2567528.50446  22531391.1724   22531398.8324
       223.0004        166.0004
  24611103.4634   -3297760.98049  -2534234.38945  24611102.9884   24611110.6734
       208.0004        144.0004
 05  5 19 15 53  0.0000000  0  9G15G18G21G29G30G 6G10G26G16
  24267023.7534   -3564082.35949  -2749087.62145  24267022.9704   24267032.6164
       209.0004        142.0004
  22644956.4874   -3848511.84249  -2962721.08246  22644955.9134   22644961.0924
       229.0004        176.0004
  21582097.0684   -2592755.98049  -2007702.20147  21582096.3764   21582102.0124
       238.0004        195.0004
  22662460.9894   -2478478.03249  -1906543.09446  22662461.1554   22662468.0934
       224.0004        171.0004
  22692861.7084    2759614.24249   2146694.35846  22692862.0584   22692867.5744
       228.0004        176.0004
  20135558.1084   -1344890.17549  -1036514.85047  20135557.8334   20135564.1574
       243.0004        212.0004
  23174583.6574    3028591.02649   2354027.28345  23174582.7304   23174591.0824
       218.0004        162.0004
  22517397.1344   -3404535.27049  -2624833.45246  22517396.8614   22517404.7304
       222.0004        166.0004
  24597485.3074   -3369325.02849  -2589998.59945  24597485.4254   24597493.1184
       209.0004        144.0004
 05  5 19 15 53 30.0000000  0  9G15G18G21G29G30G 6G10G26G16
  24252946.3824   -3638060.00849  -2806732.52745  24252945.9454   24252955.2974
       211.0004        145.0004
  22628002.6714   -3937604.71949  -3032144.06646  22628002.9204   22628007.6734
       229.0004        176.0004
  21574249.0094   -2633997.86749  -2039838.73147  21574248.4994   21574253.6724
       238.0004        195.0004
  22656376.8894   -2510450.33349  -1931456.54746  22656376.9874   22656383.6574
       224.0004        172.0004
  22710799.5924    2853878.55249   2220147.02046  22710799.9004   22710805.8224
       227.0004        175.0004
  20134067.4664   -1352723.79049  -1042618.96747  20134067.3554   20134073.5254
       243.0004        212.0004
  23193623.3364    3128644.83549   2431991.23345  23193622.5494   23193629.9814
       219.0004        162.0004
  22503475.7134   -3477692.40149  -2681838.91446  22503475.2184   22503482.8334
       222.0004        166.0004
  24583941.0814   -3440501.22949  -2645460.61245  24583939.8734   24583947.6144
       211.0004        143.0004
 05  5 19 15 54  0.0000000  0  9G15G18G21G29G30G 6G10G26G16
  24238881.8834   -3711969.76449  -2864324.52245  24238880.8224   24238889.9174
       211.0004        146.0004
  22611102.7904   -4026414.03249  -3101346.10646  22611101.8804   22611107.7874
       230.0004        176.0004
  21566429.2544   -2675090.89449  -2071859.26147  21566429.0424   21566433.8324
       238.0004        196.0004
  22650385.0254   -2541938.01249  -1955992.37646  22650384.8854   22650391.2794
       224.0004        172.0004
  22728772.8104    2948328.84549   2293744.60146  22728772.5784   22728779.0154
       226.0004        174.0004
  20132658.3384   -1360128.81649  -1048389.11647  20132658.1514   20132664.4854
       243.0004        212.0004
  23212697.7384    3228881.33449   2510097.52645  23212698.1634   23212704.6854
       218.0004        161.0004
  22489628.2444   -3550461.10949  -2738541.70946  22489627.8954   22489634.8514
       222.0004        166.0004
  24570471.0724   -3511287.42649  -2700618.73045  24570470.7074   24570477.1574
       210.0004        142.0004
 05  5 19 15 54 30.0000000  0  9G15G18G21G29G30G 6G10G26G16
  24224830.3974   -3785811.08249  -2921863.20345  24224829.8494   24224838.6684
       212.0004        146.0004
  22594257.2794   -4114937.59949  -3170325.47946  22594256.8714   22594262.4074
       230.0004        177.0004
  21558637.9454   -2716034.67549  -2103763.50447  21558637.5864   21558642.6684
       238.0004        196.0004
  22644485.7934   -2572938.60049  -1980148.65046  22644485.2394   22644492.3784
       225.0004        172.0004
  22746780.9834    3042963.03249   2367485.48046  22746781.2014   22746787.6844
       226.0004        174.0004
  20131331.1644   -1367103.14449  -1053823.65647  20131330.9404   20131337.1324
       242.0004        212.0004
  23231806.5734    3329298.63949   2588344.71045  23231805.7964   23231814.1664
       218.0004        161.0004
  22475855.4504   -3622837.35549  -2794938.69646  22475855.1594   22475863.0254
       222.0004        166.0004
  24557075.8484   -3581680.08149  -2755470.18245  24557076.0404   24557082.5204
       210.0004        140.0004
 05  5 19 15 55  0.0000000  0  9G15G18G21G29G30G 6G10G26G16
  24210791.8824   -3859584.53949  -2979348.99745  24210790.9884   24210799.6584
       212.0004        147.0004
  22577466.4744   -4203173.88549  -3239080.99946  22577466.9354   22577472.1454
       230.0004        177.0004
  21550874.8314   -2756830.21249  -2135552.22947  21550874.3104   21550879.5814
       239.0004        196.0004
  22638679.5684   -2603450.49149  -2003924.13146  22638679.9984   22638686.6384
       225.0004        172.0004
  22764823.5104    3137777.56049   2441366.87946  22764823.7604   22764830.2194
       224.0004        173.0004
  20130086.1724   -1373645.78449  -1058921.81247  20130085.9914   20130092.0994
       243.0004        212.0004
  23250949.2644    3429893.84449   2666730.50845  23250948.5034   23250956.4474
       219.0004        161.0004
  22462157.9474   -3694817.95949  -2851027.39246  22462157.7624   22462165.0364
       221.0004        167.0004
  24543755.7604   -3651677.65349  -2810013.79045  24543755.9314   24543762.1434
       210.0004        139.0004
 05  5 19 15 55 30.0000000  0  9G15G18G21G29G30G 6G10G26G16
  24196766.0364   -3933291.00249  -3036782.58945  24196764.8984   24196774.0694
       212.0004        147.0004
  22560730.4954   -4291122.08949  -3307612.03446  22560729.1624   22560735.7484
       229.0004        178.0004
  21543139.8904   -2797477.89949  -2167225.74847  21543139.3654   21543144.6264
       239.0004        197.0004
  22632966.5454   -2633472.69549  -2027318.04046  22632966.4334   22632973.7354
       225.0004        173.0004
  22782899.6824    3232768.74449   2515385.93346  22782899.5674   22782907.3604
       224.0004        172.0004
  20128923.3544   -1379756.59849  -1063683.48847  20128923.1864   20128929.3894
       243.0004        212.0004
  23270125.1274    3530663.31049   2745252.10545  23270124.6684   23270132.7224
       218.0004        160.0004
  22448536.2594   -3766400.39749  -2906805.82946  22448536.2124   22448543.6234
       222.0004        168.0004
  24530511.0864   -3721279.20549  -2864248.77945  24530510.3814   24530517.7864
       207.0004        139.0004
 05  5 19 15 56  0.0000000  0  9G15G18G21G29G30G 6G10G26G16
  24182752.9144   -4006930.43649  -3094163.95245  24182752.6594   24182760.5424
       212.0004        148.0004
  22544049.6304   -4378780.66549  -3375917.38746  22544048.5904   22544055.4614
       230.0004        178.0004
  21535432.9984   -2837978.06349  -2198784.31447  21535432.4804   21535437.3564
       238.0004        197.0004
  22627347.0534   -2663003.26249  -2050328.85746  22627346.6744   22627354.4784
       224.0004        173.0004
  22801008.8604    3327933.30749   2589540.09146  22801009.3104   22801015.4534
       224.0004        171.0004
  20127842.9454   -1385434.13649  -1068107.54347  20127842.6744   20127848.8954
       243.0004        212.0004
  23289333.6404    3631604.32149   2823907.37145  23289332.3414   23289341.7864
       218.0004        160.0004
  22434990.9774   -3837581.21349  -2962271.32646  22434990.9294   22434997.9484
       222.0004        168.0004
  24517342.1124   -3790482.77949  -2918173.65445  24517341.0684   24517348.2464
       206.0004        138.0004
 05  5 19 15 56 30.0000000  0  9G15G18G21G29G30G 6G10G26G16
  24168752.9154   -4080501.22049  -3151491.82145  24168751.8714   24168761.3494
       213.0004        148.0004
  22527424.4984   -4466146.44349  -3443994.58846  22527424.1394   22527429.6074
       230.0004        179.0004
  21527754.4924   -2878329.07249  -2230226.65647  21527753.8364   21527759.0294
       239.0004        197.0004
  22621821.8364   -2692038.65949  -2072953.82846  22621822.0384   22621827.5474
       225.0004        173.0004
  22819150.8254    3423270.03249   2663828.40346  22819150.8614   22819157.9794
       224.0004        171.0004
  20126845.5474   -1390675.62349  -1072191.81947  20126845.2954   20126851.4644
       243.0004        212.0004
  23308574.6244    3732715.88049   2902695.52045  23308572.9014   23308582.4584
       218.0004        160.0004
  22421523.1254   -3908355.18749  -3017419.80246  22421522.9334   22421529.9524
       222.0004        169.0004
  24504249.6224   -3859284.33649  -2971785.24945  24504248.5024   24504256.5114
       207.0004        138.0004
 05  5 19 15 57  0.0000000  0  9G15G18G21G29G30G 6G10G26G16
  24154765.5104   -4154005.44549  -3208767.83145  24154764.9044   24154772.8874
       213.0004        149.0004
  22510855.1154   -4553219.40349  -3511843.61546  22510854.6404   22510860.5864
       230.0004        180.0004
  21520103.9254   -2918533.17049  -2261554.52047  21520103.1334   21520108.6194
       239.0004        197.0004
  22616390.8304   -2720578.93649  -2095192.98946  22616390.0694   22616397.6594
       225.0004        173.0004
  22837324.6414    3518773.79549   2738246.86646  22837324.8194   22837332.5704
       224.0004        170.0004
  20125931.0324   -1395481.70649  -1075936.82147  20125930.9884   20125937.2544
       243.0004        212.0004
  23327847.1574    3833993.39249   2981612.98545  23327846.6784   23327854.6564
       218.0004        160.0004
  22408132.8864   -3978721.03749  -3072250.26546  22408132.8224   22408139.5204
       222.0004        169.0004
  24491233.6204   -3927683.69949  -3025083.44745  24491233.4324   24491240.8794
       209.0004        139.0004
 05  5 19 15 57 30.0000000  0  9G15G18G21G29G30G 6G10G26G16
  24140791.0214   -4227441.96649  -3265991.08645  24140790.2294   24140799.0484
       213.0004        149.0004
  22494341.9144   -4639996.99149  -3579462.48246  22494341.6214   22494347.4214
       231.0004        180.0004
  21512481.5104   -2958589.09349  -2292766.92747  21512481.1794   21512486.3604
       239.0004        198.0004
  22611054.5974   -2748621.11249  -2117044.02646  22611054.5734   22611060.4604
       225.0004        173.0004
  22855529.9774    3614443.04649   2812794.27946  22855530.5554   22855536.9944
       224.0004        170.0004
  20125099.8504   -1399849.84449  -1079340.56847  20125099.7534   20125105.7644
       243.0004        212.0004
  23347151.0274    3935435.57849   3060658.77245  23347150.2544   23347158.4734
       218.0004        159.0004
  22394821.2654   -4048673.73649  -3126758.81046  22394820.6884   22394828.0594
       223.0004        169.0004
  24478294.8574   -3995677.62249  -3078065.73345  24478294.3594   24478301.8984
       210.0004        140.0004
 05  5 19 15 58  0.0000000  0  9G15G18G21G29G30G 6G10G26G16
  24126829.0224   -4300812.43349  -3323162.87545  24126828.5944   24126836.7434
       213.0004        148.0004
  22477885.0834   -4726478.38249  -3646850.55146  22477884.6944   22477890.5814
       231.0004        181.0004
  21504887.0454   -2998498.31149  -2323865.01647  21504886.4474   21504891.6474
       239.0004        197.0004
  22605813.2564   -2776164.78149  -2138506.61346  22605812.7914   22605820.1764
       224.0004        173.0004
  22873765.9804    3710273.35149   2887467.19946  22873766.3914   22873774.0344
       224.0004        170.0004
  20124351.9624   -1403780.14149  -1082403.14147  20124351.7714   20124357.8964
       244.0004        212.0004
  23366485.4994    4037038.22049   3139829.58845  23366483.7804   23366493.3874
       218.0004        159.0004
  22381588.6534   -4118211.28849  -3180943.85946  22381588.5394   22381595.7324
       223.0004        169.0004
  24465433.3354   -4063265.70549  -3130731.77245  24465431.7644   24465440.7814
       209.0004        140.0004
 05  5 19 15 58 30.0000000  0  9G15G18G21G29G30G 6G10G26G16
  24112879.9204   -4374115.30949  -3380281.98645  24112879.0714   24112887.5064
       211.0004        148.0004
  22461485.2214   -4812660.60449  -3714005.49946  22461484.9984   22461490.5844
       231.0004        181.0004
  21497320.6854   -3038259.65849  -2354847.87847  21497319.9854   21497325.7334
       238.0004        198.0004
  22600667.3394   -2803206.55549  -2159578.11646  22600666.9144   22600674.3274
       222.0004        173.0004
  22892032.2894    3806263.15749   2962264.40146  22892031.9964   22892039.3394
       223.0004        169.0004
  20123687.8564   -1407270.17149  -1085122.64447  20123687.6414   20123693.6484
       243.0004        212.0004
  23385850.2484    4138800.38949   3219124.70345  23385849.3534   23385858.3004
       216.0004        159.0004
  22368435.9404   -4187328.96049  -3234801.73546  22368435.1754   22368443.7804
       222.0004        169.0004
  24452649.6624   -4130444.37749  -3183078.79145  24452649.0034   24452656.5944
       209.0004        139.0004
 05  5 19 15 59  0.0000000  0  9G15G18G21G29G30G 6G10G26G16
  24098943.3534   -4447352.26449  -3437349.73445  24098942.0804   24098951.0864
       211.0004        147.0004
  22445142.2574   -4898543.58049  -3780927.26846  22445142.1114   22445148.6524
       231.0004        182.0004
  21489782.2104   -3077874.62349  -2385716.67647  21489781.4344   21489787.0414
       239.0004        198.0004
  22595616.9904   -2829746.22849  -2180258.37346  22595616.5204   22595623.6314
       223.0004        173.0004
  22910328.0854    3902407.92349   3037182.35446  22910328.5404   22910335.5604
       224.0004        169.0004
  20123107.5014   -1410320.02749  -1087499.15347  20123107.1234   20123113.2844
       243.0004        212.0004
  23405244.5434    4240717.97249   3298540.92345  23405243.4674   23405251.9744
       216.0004        158.0004
  22355363.5114   -4256024.84249  -3288330.94246  22355363.2644   22355370.1214
       224.0004        170.0004
  24439943.9824   -4197212.97349  -3235106.25845  24439943.3794   24439950.3084
       207.0004        139.0004
 05  5 19 15 59 30.0000000  0  9G15G18G21G29G30G 6G10G26G16
  24085019.7594   -4520521.15849  -3494364.44545  24085019.3884   24085027.6554
       212.0004        146.0004
  22428856.9454   -4984123.53449  -3847612.92446  22428856.1564   22428862.5944
       231.0004        182.0004
  21482272.0084   -3117341.07649  -2416469.76547  21482271.4534   21482276.8324
       238.0004        198.0004
  22590662.9424   -2855779.84549  -2200544.31046  22590662.3904   22590669.9044
       222.0004        173.0004
  22928653.1934    3998706.77749   3112220.35346  22928653.7134   22928660.7554
       224.0004        169.0004
  20122611.4944   -1412926.74249  -1089530.36847  20122611.2664   20122617.1274
       243.0004        212.0004
  23424668.3054    4342790.07049   3378077.52845  23424667.8004   23424675.8934
       215.0004        157.0004
  22342372.4844   -4324293.24749  -3341527.06146  22342372.1784   22342379.3114
       224.0004        170.0004
  24427317.2034   -4263567.25549  -3286810.88045  24427316.8404   24427324.8424
       209.0004        138.0004
 05  5 19 16  0  0.0000000  0  9G15G18G21G29G30G 6G10G26G16
  24071108.9064   -4593623.40349  -3551327.22545  24071108.3884   24071116.0404
       211.0004        146.0004
  22412629.2684   -5069400.37549  -3914062.37946  22412628.5404   22412635.1114
       231.0004        182.0004
  21474789.7984   -3156660.62449  -2447108.36447  21474789.4134   21474794.4444
       239.0004        198.0004
  22585805.1894   -2881307.33549  -2220435.86646  22585804.8834   22585811.9774
       223.0004        173.0004
  22947006.8274    4095155.31549   3187375.00646  22947007.5474   22947014.0664
       225.0004        169.0004
  20122199.7844   -1415090.35849  -1091216.30247  20122199.5014   20122205.5134
       243.0004        212.0004
  23444120.7544    4445012.93349   3457731.63745  23444119.4144   23444128.7314
       215.0004        157.0004
  22329463.1404   -4392132.41449  -3394388.71346  22329463.4744   22329469.6224
       225.0004        171.0004
  24414769.2744   -4329506.95849  -3338192.45745  24414768.3684   24414775.8364
       205.0004        136.0004
 05  5 19 16  0 30.0000000  0  9G15G18G21G29G30G 6G10G26G16
  24057210.5954   -4666659.59849  -3608238.53545  24057209.5004   24057218.6034
       211.0004        146.0004
  22396459.5324   -5154372.82649  -3980274.65846  22396458.7844   22396465.4434
       230.0004        182.0004
  21467335.4034   -3195833.67049  -2477632.80847  21467334.6234   21467340.1214
       240.0004        198.0004
  22581044.0764   -2906327.20949  -2239931.87846  22581043.4594   22581050.5834
       221.0004        173.0004
  22965388.3124    4191750.02649   3262643.55346  22965388.6924   22965396.2184
       224.0004        169.0004
  20121872.5304   -1416810.16849  -1092556.41647  20121872.2484   20121878.3304
       243.0004        212.0004
  23463601.3404    4547383.76149   3537501.03845  23463600.8274   23463609.0154
       215.0004        157.0004
  22316636.0814   -4459539.23849  -3446913.47246  22316636.3144   22316642.9554
       225.0004        172.0004
  24402300.4254   -4395030.48449  -3389249.72845  24402300.3294   24402307.0284
       204.0004        135.0004
 05  5 19 16  1  0.0000000  0  9G15G18G21G29G30G 6G10G26G16
  24043325.0144   -4739628.87249  -3665097.70245  24043324.4034   24043332.5524
       211.0004        146.0004
  22380348.1284   -5239038.40149  -4046247.79946  22380347.4884   22380353.8854
       231.0004        182.0004
  21459909.0254   -3234859.55149  -2508042.57947  21459908.4054   21459913.6674
       240.0004        198.0004
  22576380.0454   -2930836.82449  -2259030.28046  22576379.3484   22576386.2664
       224.0004        173.0004
  22983797.2464    4288489.00449   3338024.51646  22983798.2284   22983804.4364
       224.0004        169.0004
  20121630.1414   -1418084.16949  -1093549.14947  20121629.9254   20121635.9054
       243.0004        212.0004
  23483109.7384    4649900.76249   3617384.33245  23483109.1324   23483117.5194
       217.0004        159.0004
  22303892.0814   -4526509.53549  -3499098.09346  22303891.9874   22303899.4864
       225.0004        172.0004
  24389911.2894   -4460135.16449  -3439980.63945  24389910.1774   24389918.5644
       203.0004        135.0004
 05  5 19 16  1 30.0000000  0  9G15G18G21G29G30G 6G10G26G16
  24029452.1354   -4812531.79249  -3721905.17545  24029451.5674   24029460.8564
       211.0004        145.0004
  22364295.3004   -5323396.06049  -4111981.01146  22364294.5314   22364300.9334
       230.0004        182.0004
  21452510.5024   -3273739.06949  -2538338.29847  21452509.9164   21452515.0504
       240.0004        198.0004
  22571813.4004   -2954834.96849  -2277730.12346  22571813.4194   22571820.0724
       224.0004        173.0004
  23002232.9814    4385368.68349   3413515.11046  23002233.2754   23002240.4034
       225.0004        169.0004
  20121472.6554   -1418911.69049  -1094193.97647  20121472.3854   20121478.3274
       243.0004        212.0004
  23502645.4064    4752560.82449   3697379.10445  23502644.7184   23502653.4864
       216.0004        159.0004
  22291231.7034   -4593040.33449  -3550940.24446  22291231.1824   22291238.6484
       225.0004        173.0004
  24377602.3814   -4524819.00149  -3490383.60045  24377602.4974   24377609.0984
       207.0004        135.0004
 05  5 19 16  2  0.0000000  0  9G15G18G21G29G30G 6G10G26G16
  24015591.6354   -4885369.15149  -3778661.54345  24015591.2024   24015599.3224
       209.0004        145.0004
  22348301.3004   -5407444.70349  -4177473.43846  22348300.6934   22348306.4604
       231.0004        183.0004
  21445139.8134   -3312472.29149  -2568520.02647  21445139.3994   21445144.5934
       240.0004        198.0004
  22567344.2314   -2978320.54849  -2296030.57146  22567343.5734   22567350.5394
       225.0004        173.0004
  23020694.8244    4482385.64649   3489112.68846  23020694.5554   23020702.1504
       223.0004        169.0004
  20121400.3254   -1419291.86949  -1094490.22447  20121399.9854   20121406.2714
       243.0004        212.0004
  23522207.7264    4855361.20749   3777483.22645  23522206.9554   23522216.2504
       216.0004        159.0004
  22278655.4574   -4659128.62449  -3602437.58846  22278655.5184   22278662.1884
       225.0004        173.0004
  24365373.9434   -4589080.62749  -3540457.58145  24365373.6334   24365380.3994
       207.0004        137.0004
 05  5 19 16  2 30.0000000  0  9G15G18G21G29G30G 6G10G26G16
  24001743.5454   -4958141.08949  -3835366.92445  24001742.1404   24001751.1004
       208.0004        144.0004
  22332366.4104   -5491182.53249  -4242723.66046  22332365.7354   22332372.1734
       231.0004        182.0004
  21437796.9724   -3351059.44849  -2598587.92647  21437796.3424   21437801.8064
       240.0004        198.0004
  22562972.9004   -3001291.92749  -2313930.34246  22562972.3894   22562979.7314
       223.0004        173.0004
  23039182.1594    4579536.83649   3564814.85346  23039181.9464   23039189.6554
       224.0004        169.0004
  20121413.2734   -1419223.91849  -1094437.27347  20121412.8764   20121419.0604
       243.0004        212.0004
  23541796.2224    4958299.05849   3857694.45845  23541795.0344   23541803.5504
       216.0004        158.0004
  22266164.0394   -4724771.30049  -3653587.70546  22266164.4254   22266170.8434
       225.0004        172.0004
  24353226.1084   -4652918.36049  -3590201.25645  24353226.4624   24353232.3624
       208.0004        139.0004
 05  5 19 16  3  0.0000000  0  9G15G18G21G29G30G 6G10G26G16
  23987908.1644   -5030846.44049  -3892020.43445  23987907.6474   23987915.5154
       208.0004        143.0004
  22316491.1894   -5574606.78449  -4307729.54546  22316490.6454   22316496.7834
       231.0004        182.0004
  21430482.0644   -3389499.52849  -2628541.23647  21430481.3464   21430486.6634
       239.0004        198.0004
  22558699.9094   -3023746.67349  -2331427.53846  22558699.3574   22558705.9234
       224.0004        173.0004
  23057694.6274    4676820.14949   3640619.95646  23057694.7304   23057702.3334
       223.0004        169.0004
  20121511.8564   -1418705.76249  -1094033.52147  20121511.6274   20121517.7574
       243.0004        212.0004
  23561410.5774    5061372.86949   3938011.64945  23561409.5864   23561418.3514
       215.0004        159.0004
  22253758.1834   -4789964.07749  -3704387.26946  22253758.0544   22253765.0454
       224.0004        172.0004
  24341159.4114   -4716329.25549  -3639612.33145  24341156.6984   24341166.0824
       210.0004        138.0004
 05  5 19 16  3 30.0000000  0  9G15G18G21G29G30G 6G10G26G16
  23974085.2274   -5103485.79949  -3948622.50345  23974083.9774   23974093.4474
       207.0004        143.0004
  22300675.9604   -5657716.05949  -4372489.99446  22300675.5744   22300681.6794
       231.0004        182.0004
  21423195.0254   -3427793.05749  -2658380.34147  21423194.4714   21423199.8794
       240.0004        198.0004
  22554525.4434   -3045683.66749  -2348521.29646  22554524.5084   22554532.1324
       224.0004        173.0004
  23076231.5734    4774232.28849   3716525.45746  23076232.0974   23076238.8314
       223.0004        169.0004
  20121696.2604   -1417736.61349  -1093278.34047  20121696.0004   20121702.0454
       243.0004        212.0004
  23581050.2184    5164579.52649   4018432.34845  23581049.5894   23581057.8834
       216.0004        158.0004
  22241438.5274   -4854704.03349  -3754833.96646  22241437.9034   22241445.9464
       223.0004        171.0004
  24329174.1894   -4779311.81449  -3688689.63245  24329173.5744   24329180.9494
       207.0004        137.0004
 05  5 19 16  4  0.0000000  0  9G15G18G21G29G30G 6G10G26G16
  23960274.7174   -5176060.02949  -4005173.82945  23960273.4684   23960282.5524
       207.0004        143.0004
  22284920.6554   -5740510.60849  -4437005.18346  22284920.1614   22284925.8484
       231.0004        182.0004
  21415935.7004   -3465941.04249  -2688106.03347  21415935.1174   21415940.5344
       240.0004        198.0004
  22550449.6714   -3067101.79649  -2365210.73246  22550449.7884   22550456.9444
       224.0004        173.0004
  23094792.3484    4871769.53649   3792528.44546  23094792.3084   23094800.2354
       222.0004        168.0004
  20121966.5034   -1416316.44249  -1092171.71047  20121966.2034   20121972.3864
       243.0004        211.0004
  23600714.5054    5267915.88449   4098954.11245  23600713.2164   23600721.8534
       216.0004        158.0004
  22229205.5174   -4918988.66049  -3804925.86846  22229204.0324   22229212.3134
       224.0004        171.0004
  24317270.7664   -4841864.84349  -3737432.25645  24317270.1644   24317277.4264
       211.0004        137.0004
 05  5 19 16  4 30.0000000  0  9G15G18G21G29G30G 6G10G26G16
  23946476.8114   -5248568.24749  -4061673.72945  23946475.1304   23946484.4374
       209.0004        142.0004
  22269225.8244   -5822987.63449  -4501272.97046  22269225.0064   22269231.5054
       231.0004        183.0004
  21408704.1804   -3503942.82749  -2717717.80847  21408703.6734   21408708.8594
       239.0004        198.0004
  22546473.0814   -3087998.87949  -2381494.16246  22546472.5924   22546479.5754
       224.0004        173.0004
  23113376.5294    4969429.61449   3868627.14046  23113377.3424   23113384.0054
       222.0004        168.0004
  20122322.9794   -1414443.13749  -1090711.99347  20122322.6864   20122329.1164
       243.0004        211.0004
  23620403.1474    5371380.22249   4179575.60945  23620402.3864   23620411.2454
       215.0004        158.0004
  22217059.9504   -4982813.64349  -3854659.60446  22217059.8004   22217066.4954
       224.0004        171.0004
  24305449.5454   -4903985.84349  -3785838.21945  24305449.4974   24305455.4074
       209.0004        138.0004
 05  5 19 16  5  0.0000000  0  9G15G18G21G29G30G 6G10G26G16
  23932691.3444   -5321010.98349  -4118122.59745  23932690.4634   23932699.1434
       208.0004        142.0004
  22253591.6974   -5905145.75349  -4565292.24946  22253591.1294   22253597.3174
       231.0004        183.0004
  21401500.4284   -3541798.59549  -2747215.79447  21401499.4504   21401505.1604
       239.0004        198.0004
  22542595.8664   -3108373.80949  -2397370.71146  22542595.6764   22542601.6794
       224.0004        173.0004
  23131983.5084    5067209.43749   3944819.13746  23131983.3614   23131991.3114
       221.0004        167.0004
  20122765.8154   -1412116.07249  -1088898.69247  20122765.6894   20122771.7564
       243.0004        211.0004
  23640115.6334    5474969.58249   4260294.52845  23640115.4794   23640124.1354
       216.0004        158.0004
  22205002.4254   -5046176.23549  -3904033.03446  22205001.9374   22205009.9244
       224.0004        171.0004
  24293710.8374   -4965673.26849  -3833906.33045  24293710.7044   24293717.3854
       209.0004        140.0004
 05  5 19 16  5 30.0000000  0  9G15G18G21G29G30G 6G10G26G16
  23918918.4134   -5393388.44249  -4174520.59645  23918916.7984   23918927.3124
       209.0004        142.0004
  22238018.4634   -5986983.91349  -4629062.19846  22238017.7814   22238023.7814
       232.0004        184.0004
  21394324.4204   -3579508.73249  -2776600.31047  21394323.7684   21394329.5534
       240.0004        198.0004
  22538818.2724   -3128225.15649  -2412839.27846  22538818.2914   22538824.1754
       224.0004        173.0004
  23150612.6194    5165105.74149   4021101.89346  23150613.6644   23150619.6914
       221.0004        167.0004
  20123295.1454   -1409334.54349  -1086731.27047  20123294.9434   20123301.1414
       243.0004        212.0004
  23659851.4124    5578681.31049   4341108.76545  23659851.2364   23659859.3624
       217.0004        158.0004
  22193033.4984   -5109073.30149  -3953043.72246  22193032.7534   22193040.8584
       225.0004        172.0004
  24282054.9844   -5026925.34349  -3881635.17445  24282054.9834   24282062.4964
       211.0004        142.0004
 05  5 19 16  6  0.0000000  0  9G15G18G21G29G30G 6G10G26G16
  23905157.9164   -5465700.64549  -4230867.74245  23905157.1944   23905166.0294
       210.0004        142.0004
  22222506.5174   -6068499.98049  -4692581.18046  22222506.2794   22222511.6294
       233.0004        184.0004
  21387176.3834   -3617072.26149  -2805870.58247  21387175.8164   21387181.0684
       240.0004        198.0004
  22535140.6684   -3147551.27149  -2427898.58046  22535139.5974   22535146.0714
       225.0004        173.0004
  23169263.4344    5263115.89449   4097473.36346  23169264.0824   23169270.1454
       220.0004        166.0004
  20123911.2164   -1406097.08849  -1084208.57947  20123911.1064   20123916.9694
       243.0004        212.0004
  23679610.1044    5682513.12249   4422016.62945  23679609.8674   23679618.0054
       217.0004        157.0004
  22181153.8894   -5171501.35649  -4001688.94546  22181153.7774   22181160.7364
       225.0004        173.0004
  24270482.2844   -5087740.13049  -3929023.28945  24270481.9754   24270488.9694
       209.0004        144.0004
 05  5 19 16  6 30.0000000  0  9G15G18G21G29G30G 6G10G26G16
  23891409.6504   -5537948.35449  -4287164.64545  23891409.7614   23891417.2954
       211.0004        143.0004
  22207055.9174   -6149693.61549  -4755848.91046  22207055.8154   22207060.9704
       234.0004        184.0004
  21380055.9144   -3654490.49649  -2835027.63447  21380055.0564   21380060.6554
       241.0004        199.0004
  22531563.1804   -3166351.25549  -2442547.89146  22531562.6844   22531569.7864
       225.0004        173.0004
  23187935.1194    5361236.06049   4173930.55846  23187936.0864   23187941.9714
       220.0004        166.0004
  20124614.1084   -1402403.52649  -1081330.47647  20124613.8204   20124619.8874
       244.0004        212.0004
  23699390.9784    5786461.98249   4503015.70145  23699390.7434   23699399.2674
       216.0004        154.0004
  22169364.0014   -5233457.83849  -4049966.70246  22169364.6484   22169370.9064
       225.0004        173.0004
  24258993.0784   -5148116.24449  -3976069.59545  24258991.8594   24259000.2014
       209.0004        145.0004
 05  5 19 16  7  0.0000000  0  9G15G18G21G29G30G 6G10G26G16
  23877673.7274   -5610131.40049  -4343411.16745  23877673.8404   23877681.5424
       210.0004        144.0004
  22191666.9814   -6230562.84149  -4818863.86146  22191666.4194   22191672.3484
       233.0004        185.0004
  21372963.1804   -3691763.02049  -2864071.15847  21372962.2064   21372967.6624
       240.0004        198.0004
  22528086.0424   -3184623.60049  -2456786.08246  22528086.2304   22528092.9924
       225.0004        173.0004
  23206627.2084    5459463.58449   4250471.39946  23206628.4754   23206634.8754
       220.0004        165.0004
  20125403.9784   -1398252.69149  -1078096.06547  20125403.6534   20125409.6074
       244.0004        212.0004
  23719193.6144    5890525.54049   4584104.13945  23719192.7554   23719202.0664
       212.0004        150.0004
  22157664.4584   -5294939.44249  -4097874.42846  22157664.4984   22157671.1744
       225.0004        174.0004
  24247587.6724   -5208051.80549  -4022772.61145  24247587.7844   24247594.3234
       211.0004        145.0004
 05  5 19 16  7 30.0000000  0  9G15G18G21G29G30G 6G10G26G16
  23863950.1754   -5682249.25149  -4399606.87445  23863949.2224   23863957.4124
       210.0004        144.0004
  22176340.1974   -6311105.60749  -4881624.42646  22176339.8594   22176345.0684
       233.0004        185.0004
  21365898.1914   -3728889.91849  -2893001.19347  21365897.3574   21365902.9884
       240.0004        199.0004
  22524709.7184   -3202366.39549  -2470611.61646  22524710.1484   22524715.7954
       224.0004        173.0004
  23225339.2934    5557796.12849   4327094.08446  23225339.8424   23225346.4684
       220.0004        165.0004
  20126281.1904   -1393643.02849  -1074504.11647  20126280.9664   20126287.0264
       243.0004        212.0004
  23739017.7034    5994701.97549   4665280.52345  23739017.1004   23739024.8154
       213.0004        149.0004
  22146055.9984   -5355942.38349  -4145409.16746  22146055.8454   22146063.4704
       225.0004        174.0004
  24236266.6864   -5267544.44349  -4069130.48745  24236265.8824   24236273.8934
       211.0004        146.0004
 05  5 19 16  8  0.0000000  0  9G15G18G21G29G30G 6G10G26G16
  23850239.0574   -5754301.53549  -4455751.49945  23850238.8434   23850247.4144
       212.0004        144.0004
  22161075.8434   -6391320.15049  -4944129.23546  22161074.9974   22161080.6484
       233.0004        185.0004
  21358860.9164   -3765871.07249  -2921817.66847  21358860.2394   21358865.4974
       240.0004        199.0004
  22521434.4744   -3219577.91449  -2484023.17946  22521434.4054   22521440.6794
       225.0004        173.0004
  23244070.9144    5656231.01149   4403796.51246  23244070.9054   23244079.1524
       220.0004        164.0004
  20127245.9774   -1388573.18549  -1070553.58747  20127245.6984   20127251.7714
       243.0004        212.0004
  23758862.9984    6098989.12849   4746543.18245  23758862.8224   23758870.9844
       215.0004        152.0004
  22134539.2944   -5416463.04549  -4192568.10546  22134539.2274   22134546.2194
       226.0004        174.0004
  24225030.2964   -5326592.18249  -4115141.68145  24225029.7814   24225037.0064
       209.0004        147.0004
 05  5 19 16  8 30.0000000  0  9G15G18G21G29G30G 6G10G26G16
  23836540.3114   -5826289.20549  -4511845.77945  23836539.9174   23836547.9094
       210.0004        145.0004
  22145874.0374   -6471205.89049  -5006377.83746  22145873.4514   22145879.6754
       233.0004        185.0004
  21351851.3454   -3802706.64449  -2950520.70147  21351850.6414   21351855.8454
       240.0004        199.0004
  22518260.4394   -3236257.54949  -2497020.28946  22518260.3834   22518267.3584
       224.0004        173.0004
  23262821.2454    5754764.43749   4480575.72446  23262821.8744   23262829.4634
       220.0004        164.0004
  20128298.2754   -1383043.31749  -1066244.60147  20128298.0594   20128303.9144
       245.0004        212.0004
  23778728.7554    6203383.58149   4827889.45045  23778728.0294   23778737.1024
       216.0004        153.0004
  22123114.8354   -5476499.19249  -4239349.50346  22123114.4074   22123121.2754
       226.0004        174.0004
  24213878.6904   -5385193.93649  -4160805.36545  24213878.4014   24213885.3054
       211.0004        148.0004
 05  5 19 16  9  0.0000000  0 10G15G18G21G29G30G 6G22G10G26G16
  23822853.7654   -5898212.38149  -4567889.80745  23822852.4124   23822861.3304
       212.0004        146.0004
  22130735.1164   -6550761.29149  -5068369.02446  22130734.6214   22130740.8724
       233.0004        185.0004
  21344869.4774   -3839396.64349  -2979110.29547  21344868.7154   21344874.0304
       239.0004        199.0004
  22515187.8414   -3252404.25149  -2509602.11846  22515187.2404   22515195.0484
       225.0004        173.0004
  23281589.7704    5853393.27349   4557429.28846  23281589.9314   23281596.6214
       219.0004        164.0004
  20129438.3274   -1377052.32349  -1061576.29047  20129437.8404   20129444.0924
       245.0004        212.0004
  24629535.8054   -9034182.08959  -6157246.43545  24629534.4984   24629542.2554
       205.0004        138.0004
  23798614.4094    6307882.84649   4909317.39745  23798613.8324   23798620.6834
       214.0004        151.0004
  22111783.0924   -5536047.86449  -4285751.04646  22111783.2714   22111789.3374
       226.0004        175.0004
  24202812.2084   -5443348.33749  -4206120.44545  24202811.3824   24202819.1654
       209.0004        149.0004
 05  5 19 16  9 30.0000000  0 10G15G18G21G29G30G 6G22G10G26G16
  23809178.5244   -5970076.40849  -4623887.73745  23809177.8294   23809186.0734
       213.0004        147.0004
  22115658.3174   -6629990.18449  -5130105.80046  22115657.3694   22115663.4124
       233.0004        186.0004
  21337914.3064   -3875946.36849  -3007590.58947  21337913.7104   21337918.9214
       239.0004        199.0004
  22512215.9044   -3268021.78649  -2521771.61446  22512215.5174   22512222.1674
       224.0004        173.0004
  23300374.9914    5952109.61849   4634351.02346  23300374.8964   23300382.3784
       221.0004        163.0004
  20130665.2654   -1370604.73449  -1056552.19247  20130664.9214   20130671.1414
       245.0004        212.0004
  24609790.7634   -9137942.79049  -6238098.83145  24609789.5674   24609796.7664
       201.0004        138.0004
  23818518.4974    6412479.51049   4990821.25045  23818517.8034   23818523.7354
       209.0004        147.0004
  22100543.7834   -5595110.87449  -4331774.14046  22100543.6024   22100551.1844
       226.0004        175.0004
  24191830.2704   -5501058.55449  -4251089.42545  24191829.5654   24191836.9574
       212.0004        148.0004
 05  5 19 16 10  0.0000000  0 10G15G18G21G29G30G 6G22G10G26G16
  23795516.0154   -6041873.33349  -4679833.36045  23795514.7884   23795523.7944
       213.0004        148.0004
  22100645.4284   -6708883.31549  -5191580.93946  22100644.6324   22100650.6874
       233.0004        186.0004
  21330987.3094   -3912347.90849  -3035955.41847  21330986.5854   21330991.9194
       239.0004        199.0004
  22509346.4314   -3283100.74249  -2533521.43346  22509346.1744   22509352.6814
       224.0004        173.0004
  23319177.7744    6050918.51749   4711344.89146  23319177.8494   23319184.8654
       220.0004        163.0004
  20131980.7864   -1363691.64149  -1051165.36747  20131980.4704   20131986.4624
       244.0004        212.0004
  24590072.2964   -9241563.34849  -6318842.01245  24590072.0374   24590078.9074
       200.0004        137.0004
  23838442.0914    6517179.02149   5072405.23845  23838442.1604   23838448.5864
       204.0004        142.0004
  22089398.9444   -5653677.28349  -4377410.28446  22089398.5784   22089405.8894
       226.0004        175.0004
  24180934.7824   -5558314.91349  -4295704.73845  24180934.4174   24180941.6604
       212.0004        149.0004
 05  5 19 16 10 30.0000000  0 10G15G18G21G29G30G 6G22G10G26G16
  23781866.0364   -6113604.27949  -4735727.59045  23781865.0574   23781873.8354
       213.0004        149.0004
  22085696.6034   -6787440.00249  -5252793.91946  22085696.1414   22085701.7574
       234.0004        187.0004
  21324088.3334   -3948602.09749  -3064205.42647  21324087.7614   21324092.8254
       239.0004        199.0004
  22506579.5464   -3297640.86849  -2544851.39246  22506578.9704   22506585.5414
       224.0004        173.0004
  23337997.3884    6149815.97849   4788407.78445  23337997.8904   23338004.5034
       220.0004        162.0004
  20133384.9214   -1356312.93449  -1045415.72647  20133384.7884   20133390.7564
       245.0004        212.0004
  24570380.6284   -9345042.88249  -6399475.33845  24570379.6304   24570387.6864
       203.0004        139.0004
  23858384.5674    6621977.97649   5154066.69845  23858384.1144   23858392.8734
       209.0004        142.0004
  22078349.0734   -5711744.74849  -4422657.62846  22078349.6374   22078355.8514
       226.0004        175.0004
  24170125.7984   -5615116.67449  -4339965.81545  24170125.0114   24170133.9804
       212.0004        150.0004
 05  5 19 16 11  0.0000000  0 10G15G18G21G29G30G 6G22G10G26G16
  23768228.3754   -6185270.80649  -4791571.59545  23768227.0794   23768236.0694
       213.0004        149.0004
  22070811.7334   -6865660.47249  -5313744.90446  22070811.1154   22070817.0514
       233.0004        187.0004
  21317217.0604   -3984710.79149  -3092342.05747  21317216.5784   21317221.7854
       239.0004        199.0004
  22503915.1174   -3311642.58949  -2555761.81046  22503914.8944   22503921.0804
       223.0004        173.0004
  23356833.0514    6248797.56049   4865536.19445  23356833.3414   23356839.2224
       220.0004        162.0004
  20134877.4964   -1348469.41149  -1039303.88747  20134877.3944   20134883.2684
       244.0004        212.0004
  24550715.9324   -9448381.04249  -6479998.49845  24550715.5534   24550723.8584
       201.0004        139.0004
  23878345.3914    6726872.42749   5235802.59245  23878344.7464   23878353.6494
       213.0004        147.0004
  22067394.3694   -5769311.90349  -4467515.12646  22067394.1714   22067400.6024
       225.0004        175.0004
  24159403.2394   -5671463.75949  -4383872.60545  24159402.7544   24159409.9414
       212.0004        150.0004
 05  5 19 16 11 30.0000000  0 10G15G18G21G29G30G 6G22G10G26G16
  23754603.0404   -6256872.54949  -4847365.13945  23754602.6214   23754610.2894
       215.0004        150.0004
  22055991.2304   -6943542.91549  -5374432.50746  22055990.6654   22055996.2754
       234.0004        187.0004
  21310373.6584   -4020673.11949  -3120364.64647  21310373.0064   21310378.4604
       239.0004        199.0004
  22501353.4784   -3325104.10349  -2566251.29646  22501353.4974   22501360.0254
       224.0004        173.0004
  23375684.2214    6347860.80649   4942728.25445  23375684.4104   23375691.1394
       219.0004        162.0004
  20136458.7514   -1340159.82649  -1032828.88647  20136458.4104   20136464.5014
       245.0004        212.0004
  24531078.5474   -9551575.54649  -6560409.71345  24531077.9184   24531084.4874
       207.0004        141.0004
  23898324.0714    6831860.40849   5317611.34845  23898323.3354   23898332.1934
       216.0004        153.0004
  22056535.5614   -5826375.14449  -4511979.95646  22056535.6884   22056542.9664
       226.0004        175.0004
  24148767.7464   -5727353.91049  -4427423.34245  24148767.6764   24148774.0164
       211.0004        150.0004
 05  5 19 16 12  0.0000000  0 10G15G18G21G29G30G 6G22G10G26G16
  23740989.7934   -6328410.50449  -4903108.96645  23740989.6454   23740997.8834
       214.0004        151.0004
  22041235.0804   -7021087.09449  -5434856.52047  22041234.0114   22041240.4274
       234.0004        188.0004
  21303557.9224   -4056490.15549  -3148274.01547  21303557.4044   21303562.5564
       240.0004        200.0004
  22498894.6364   -3338025.19049  -2576319.66946  22498894.1504   22498901.5544
       224.0004        172.0004
  23394550.2014    6447001.93749   5019981.00245  23394550.3804   23394558.0784
       221.0004        161.0004
  20138128.7224   -1331384.14449  -1025990.68447  20138128.4044   20138134.5274
       245.0004        212.0004
  24511468.8594   -9654625.54749  -6640708.36945  24511468.6734   24511475.9464
       208.0004        144.0004
  23918319.9444    6936938.93649   5399490.66345  23918320.2714   23918328.3544
       215.0004        155.0004
  22045773.0764   -5882932.26149  -4556050.40246  22045773.3794   22045780.4234
       227.0004        175.0004
  24138219.2284   -5782786.71649  -4470617.70745  24138218.8494   24138225.6514
       211.0004        149.0004
 05  5 19 16 12 30.0000000  0 10G15G18G21G29G30G 6G22G10G26G16
  23727388.7074   -6399884.68349  -4958803.10645  23727387.8814   23727396.5894
       214.0004        151.0004
  22026543.6174   -7098291.10849  -5495015.47447  22026542.9524   22026548.7484
       235.0004        188.0004
  21296769.8174   -4092161.99549  -3176070.24847  21296769.1734   21296774.4474
       240.0004        200.0004
  22496538.9054   -3350404.66849  -2585966.00346  22496538.5304   22496545.8064
       223.0004        172.0004
  23413430.4974    6546217.98849   5097292.13045  23413430.0804   23413437.7404
       220.0004        160.0004
  20139887.4944   -1322141.65849  -1018788.74947  20139887.2264   20139893.4164
       245.0004        212.0004
  24491886.9434   -9757529.30249  -6720893.04145  24491886.8604   24491893.7754
       210.0004        147.0004
  23938332.5574    7042105.48449   5481438.55545  23938332.0484   23938340.7574
       211.0004        153.0004
  22035107.4594   -5938980.36149  -4599724.21446  22035107.6924   22035114.0174
       226.0004        176.0004
  24127758.0954   -5837760.24049  -4513454.18545  24127757.3814   24127764.9064
       212.0004        149.0004
 05  5 19 16 13  0.0000000  0 10G15G18G21G29G30G 6G22G10G26G16
  23713799.7764   -6471295.07949  -5014447.54645  23713798.4694   23713807.8154
       214.0004        151.0004
  22011917.1274   -7175153.87849  -5554908.52047  22011916.7974   22011922.1944
       235.0004        188.0004
  21290009.3904   -4127688.18349  -3203752.98147  21290008.6744   21290013.9914
       240.0004        200.0004
  22494286.4074   -3362241.40649  -2595189.43546  22494285.9504   22494292.9754
       223.0004        172.0004
  23432324.4714    6645506.16249   5174659.46245  23432324.5294   23432332.2764
       218.0004        160.0004
  20141735.2844   -1312431.49749  -1011222.38547  20141735.0274   20141741.1874
       245.0004        212.0004
  24472333.2244   -9860284.62449  -6800962.05445  24472332.8664   24472339.2844
       213.0004        148.0004
  23958361.3594    7147357.51449   5563453.04745  23958359.6234   23958369.0544
       209.0004        149.0004
  22024539.3444   -5994516.25049  -4642998.89746  22024539.0194   22024546.3304
       226.0004        176.0004
  24117384.6534   -5892272.89249  -4555931.55545  24117384.5024   24117392.0464
       212.0004        149.0004
 05  5 19 16 13 30.0000000  0 10G15G18G21G29G30G 6G22G10G26G16
  23700223.0514   -6542641.32149  -5070041.99945  23700221.1984   23700230.3684
       215.0004        151.0004
  21997355.9114   -7251673.44649  -5614534.13247  21997355.3084   21997361.3254
       234.0004        189.0004
  21283276.6944   -4163068.79849  -3231322.28247  21283276.0554   21283281.2874
       240.0004        200.0004
  22492137.5394   -3373533.91349  -2603988.78946  22492137.9674   22492144.0434
       224.0004        173.0004
  23451231.7254    6744863.80149   5252080.91245  23451231.2404   23451237.8864
       219.0004        159.0004
  20143672.2844   -1302252.55249  -1003290.73847  20143671.8964   20143678.0544
       245.0004        212.0004
  24452808.1324   -9962889.48849  -6880913.85545  24452808.1634   24452814.3054
       213.0004        149.0004
  23978406.0374    7252693.15449   5645532.70145  23978405.2454   23978414.2014
       211.0004        147.0004
  22014069.3064   -6049536.69149  -4685871.92546  22014069.0374   22014075.9014
       226.0004        176.0004
  24107099.2404   -5946322.79749  -4598048.33145  24107098.7134   24107106.7874
       213.0004        148.0004
 05  5 19 16 14  0.0000000  0 10G15G18G21G29G30G 6G22G10G26G16
  23686658.4774   -6613923.42749  -5125586.47445  23686657.2984   23686666.5754
       214.0004        152.0004
  21982860.2354   -7327848.62549  -5673891.40247  21982859.8934   21982865.2234
       235.0004        189.0004
  21276571.7544   -4198303.51849  -3258777.90247  21276571.1964   21276576.2514
       240.0004        200.0004
  22490092.4274   -3384281.00349  -2612363.13646  22490092.0934   22490098.6224
       224.0004        173.0004
  23470151.5994    6844288.17549   5329554.36245  23470151.2324   23470158.9604
       217.0004        158.0004
  20145698.6344   -1291604.05749   -994993.20647  20145698.3734   20145704.4954
       245.0004        212.0004
  24433312.0444  -10065342.23649  -6960747.10845  24433311.9104   24433318.7944
       213.0004        150.0004
  23998466.3194    7358109.95249   5727675.62845  23998466.1284   23998473.5564
       216.0004        149.0004
  22003697.8924   -6104038.64549  -4728340.94546  22003698.5264   22003704.7674
       227.0004        176.0004
  24096902.2754   -5999908.33249  -4639803.27045  24096901.4824   24096909.3114
       212.0004        148.0004
 05  5 19 16 14 30.0000000  0 10G15G18G21G29G30G 6G22G10G26G16
  23673105.8234   -6685142.91549  -5181082.14745  23673105.0604   23673113.2474
       215.0004        152.0004
  21968430.0524   -7403679.66349  -5732980.49647  21968429.6234   21968435.4524
       234.0004        189.0004
  21269894.2534   -4233393.99849  -3286121.11947  21269893.4994   21269898.9394
       240.0004        200.0004
  22488151.0424   -3394483.04149  -2620312.77146  22488150.7874   22488157.7094
       223.0004        173.0004
  23489083.2934    6943774.78049   5407076.31545  23489083.7864   23489091.2724
       217.0004        158.0004
  20147814.2094   -1280486.70449   -986330.32747  20147814.0094   20147820.2154
       245.0004        212.0004
  24413845.0674  -10167642.15949  -7040461.26045  24413844.9474   24413851.7644
       214.0004        150.0004
  24018541.2884    7463604.12849   5809878.85945  24018540.1114   24018549.0984
       217.0004        152.0004
  21993425.4524   -6158020.61749  -4770404.78046  21993425.3284   21993432.1434
       226.0004        176.0004
  24086793.5844   -6053029.45849  -4681196.32645  24086792.5704   24086800.7384
       212.0004        148.0004
 05  5 19 16 15  0.0000000  0 10G15G18G21G29G30G 6G22G10G26G16
  23659565.5074   -6756297.80549  -5236527.48645  23659564.6944   23659573.6764
       215.0004        153.0004
  21954066.0834   -7479162.54549  -5791798.30347  21954065.2474   21954071.2724
       235.0004        190.0004
  21263244.6514   -4268337.77349  -3313350.02947  21263244.0724   21263249.1604
       240.0004        200.0004
  22486313.9404   -3404137.00749  -2627835.34246  22486313.5994   22486320.4894
       224.0004        173.0004
  23508026.7134    7043322.99949   5484646.25645  23508028.3614   23508034.5224
       217.0004        157.0004
  20150019.5494   -1268897.55049   -977299.81947  20150019.3424   20150025.4334
       245.0004        212.0004
  24394407.8724  -10269785.44349  -7120053.38945  24394407.5434   24394413.7094
       216.0004        150.0004
  24038630.9684    7569175.74549   5892142.42345  24038630.2234   24038639.3364
       216.0004        155.0004
  21983252.9244   -6211477.44049  -4812059.40946  21983252.6814   21983259.8944
       226.0004        176.0004
  24076774.0574   -6105682.33149  -4722224.50845  24076773.4474   24076780.6544
       210.0004        148.0004
 05  5 19 16 15 30.0000000  0 10G15G18G21G29G30G 6G22G10G26G16
  23646037.0274   -6827390.28049  -5291924.19545  23646035.3604   23646044.9504
       214.0004        153.0004
  21939768.1734   -7554298.51349  -5850345.79547  21939767.8154   21939773.3984
       235.0004        190.0004
  21256622.5814   -4303136.95549  -3340466.26447  21256622.0474   21256627.2114
       240.0004        200.0004
  22484580.9404   -3413243.91949  -2634931.64346  22484581.1884   22484587.4384
       224.0004        173.0004
  23526980.9164    7142927.68549   5562260.20045  23526980.9704   23526989.1944
       215.0004        157.0004
  20152314.3724   -1256838.21249   -967902.93047  20152314.2534   20152320.2424
       245.0004        212.0004
  24375000.3204  -10371772.73149  -7199523.95145  24374999.6094   24375006.0724
       214.0004        148.0004
  24058734.5144    7674820.20749   5974462.72245  24058733.4354   24058742.5134
       214.0004        156.0004
  21973180.4774   -6264408.39449  -4853304.27346  21973180.0144   21973186.8034
       227.0004        177.0004
  24066843.5424   -6157867.40549  -4762888.17045  24066843.2414   24066850.2754
       213.0004        147.0004
 05  5 19 16 16  0.0000000  0 10G15G18G21G29G30G 6G22G10G26G16
  23632520.7004   -6898419.09049  -5347271.29145  23632519.6674   23632527.9084
       213.0004        153.0004
  21925536.6694   -7629085.55049  -5908621.38047  21925535.7374   21925542.0284
       235.0004        190.0004
  21250028.2904   -4337790.28249  -3367468.84347  21250027.5124   21250032.7544
       240.0004        201.0004
  22482952.4984   -3421801.46349  -2641599.86146  22482951.7264   22482959.1014
       224.0004        173.0004
  23545945.6074    7242587.36349   5639917.00145  23545946.2014   23545952.6244
       216.0004        157.0004
  20154699.0814   -1244306.53049   -958137.97547  20154698.6524   20154704.8744
       245.0004        212.0004
  24355623.1174  -10473600.55949  -7278870.24445  24355622.9134   24355629.2214
       215.0004        148.0004
  24078851.6984    7780536.48649   6056838.97845  24078850.3194   24078860.2044
       209.0004        154.0004
  21963208.8874   -6316809.31149  -4894136.10046  21963208.9174   21963215.3334
       227.0004        177.0004
  24057002.5544   -6209581.98049  -4803185.20645  24057002.4644   24057008.4914
       211.0004        148.0004
 05  5 19 16 16 30.0000000  0 10G15G18G21G29G30G 6G22G10G26G16
  23619016.2034   -6969385.39849  -5402569.66845  23619014.9764   23619023.9624
       214.0004        153.0004
  21911371.6854   -7703523.11849  -5966624.65747  21911371.2934   21911376.8144
       235.0004        190.0004
  21243461.5514   -4372298.79249  -3394358.58247  21243461.0384   21243466.3274
       241.0004        201.0004
  22481428.5944   -3429809.64749  -2647840.00246  22481427.9114   22481434.9214
       223.0004        173.0004
  23564920.0464    7342298.25949   5717613.70645  23564920.0654   23564927.8664
       216.0004        157.0004
  20157173.5964   -1231302.92249   -948005.29647  20157173.1994   20157179.2674
       245.0004        212.0004
  24336276.4104  -10575268.47849  -7358091.92045  24336275.4774   24336282.8624
       213.0004        146.0004
  24098981.7264    7886321.18749   6139268.50945  24098980.8734   24098989.9044
       205.0004        149.0004
  21953338.5134   -6368678.29949  -4934553.44946  21953338.3704   21953345.6134
       226.0004        177.0004
  24047251.2204   -6260825.56049  -4843115.22145  24047250.5154   24047257.6454
       209.0004        147.0004
 05  5 19 16 17  0.0000000  0 10G15G18G21G29G30G 6G22G10G26G16
  23605523.7804   -7040288.18649  -5457818.57645  23605522.9964   23605532.1784
       214.0004        153.0004
  21897273.6974   -7777608.35949  -6024353.39047  21897272.9834   21897278.8364
       235.0004        191.0004
  21236922.5844   -4406661.27949  -3421134.53847  21236921.9654   21236927.0844
       240.0004        201.0004
  22480009.5734   -3437266.58849  -2653650.60746  22480009.4434   22480015.9864
       224.0004        173.0004
  23583903.8174    7442058.25449   5795348.67545  23583904.6634   23583911.6144
       217.0004        157.0004
  20159738.2474   -1217825.58949   -937503.47747  20159737.9244   20159743.9824
       245.0004        212.0004
  24316960.5694  -10676773.28649  -7437186.50745  24316960.0894   24316967.4244
       212.0004        144.0004
  24119124.6244    7992173.13849   6221750.39745  24119123.1484   24119132.1834
       209.0004        146.0004
  21943570.1124   -6420011.43149  -4974553.24846  21943569.9634   21943577.2234
       227.0004        178.0004
  24037589.9044   -6311595.72149  -4882676.36145  24037589.6134   24037596.6744
       209.0004        146.0004
 05  5 19 16 17 30.0000000  0 10G15G18G21G29G30G 6G22G10G26G16
  23592043.3844   -7111127.95849  -5513018.36445  23592042.6194   23592050.5454
       214.0004        153.0004
  21883242.9004   -7851340.73449  -6081807.16147  21883242.3374   21883248.0714
       235.0004        191.0004
  21230411.3174   -4440878.06749  -3447796.95547  21230410.8024   21230415.7124
       240.0004        201.0004
  22478695.5914   -3444171.71249  -2659031.22046  22478695.1234   22478702.5964
       224.0004        173.0004
  23602896.3484    7541864.18349   5873119.41245  23602897.4744   23602903.7924
       217.0004        157.0004
  20162393.0464   -1203874.48049   -926632.47747  20162392.7364   20162398.6674
       245.0004        212.0004
  24297676.1034  -10778113.88849  -7516153.12845  24297674.5004   24297681.7814
       211.0004        142.0004
  24139279.9314    8098089.84949   6304282.92345  24139279.4254   24139288.4264
       212.0004        147.0004
  21933904.1004   -6470806.41849  -5014133.70346  21933903.7244   21933910.6894
       227.0004        178.0004
  24028018.9504   -6361891.54449  -4921867.86945  24028018.5594   24028026.1214
       210.0004        146.0004
 05  5 19 16 18  0.0000000  0 10G15G18G21G29G30G 6G22G10G26G16
  23578574.8374   -7181905.41349  -5568169.59845  23578574.1734   23578582.2334
       213.0004        153.0004
  21869279.3234   -7924719.72149  -6138985.57147  21869278.4844   21869284.3294
       236.0004        191.0004
  21223927.6594   -4474950.07849  -3474346.56847  21223926.9514   21223931.8724
       240.0004        201.0004
  22477486.5934   -3450524.98249  -2663981.83246  22477486.9904   22477493.5024
       224.0004        173.0004
  23621896.8834    7641712.40449   5950923.13845  23621896.7914   23621904.7354
       216.0004        157.0004
  20165138.0084   -1189449.63949   -915392.34047  20165137.8164   20165143.7724
       245.0004        212.0004
  24278423.1364  -10879288.97249  -7594990.77945  24278422.6984   24278429.0634
       208.0004        141.0004
  24159446.9804    8204068.04549   6386863.34945  24159447.0634   24159455.6334
       213.0004        147.0004
  21924340.9464   -6521061.02249  -5053293.09946  21924340.4654   21924347.3264
       227.0004        178.0004
  24018538.2874   -6411712.44349  -4960689.31345  24018536.8134   24018545.1574
       209.0004        145.0004
 05  5 19 16 18 30.0000000  0 10G15G18G21G29G30G 6G22G10G26G16
  23565118.2454   -7252620.37349  -5623272.11445  23565117.2994   23565125.9364
       214.0004        154.0004
  21855383.1734   -7997744.22149  -6195887.75347  21855382.5934   21855388.6024
       236.0004        192.0004
  21217471.6494   -4508876.50549  -3500782.73447  21217471.1304   21217475.9314
       241.0004        201.0004
  22476382.8854   -3456325.17949  -2668501.45946  22476382.7344   22476389.2054
       224.0004        173.0004
  23640904.9884    7741600.38849   6028757.83445  23640904.6824   23640912.9434
       215.0004        157.0004
  20167973.2784   -1174550.20449   -903782.38947  20167973.0734   20167979.1194
       245.0004        211.0004
  24259201.8274  -10980296.93449  -7673698.18345  24259200.8154   24259206.7844
       209.0004        139.0004
  24179625.4014    8310105.79149   6469490.16045  24179625.1644   24179632.8034
       210.0004        144.0004
  21914881.1504   -6570772.33949  -5092029.14546  21914880.6344   21914887.9014
       227.0004        178.0004
  24009148.3634   -6461056.50249  -4999139.18845  24009147.5234   24009155.0644
       209.0004        145.0004
 05  5 19 16 19  0.0000000  0 10G15G18G21G29G30G 6G22G10G26G16
  23551673.6624   -7323272.07349  -5678325.35145  23551671.8774   23551681.2704
       213.0004        153.0004
  21841555.0064   -8070411.65549  -6252511.70147  21841554.1574   21841560.3104
       237.0004        192.0004
  21211043.4874   -4542656.80449  -3527105.03147  21211042.8314   21211047.9494
       241.0004        201.0004
  22475384.7414   -3461570.40649  -2672588.65846  22475384.9054   22475391.1574
       223.0004        173.0004
  23659920.2664    7841526.22449   6106622.01245  23659920.6684   23659928.0084
       216.0004        157.0004
  20170899.1544   -1159174.68449   -891801.46047  20170898.7774   20170904.8964
       245.0004        211.0004
  24240012.9784  -11081134.65649  -7752272.93945  24240011.8794   24240017.7794
       208.0004        138.0004
  24199814.8324    8416201.75649   6552162.36545  24199813.4284   24199823.0444
       207.0004        140.0004
  21905525.4994   -6619936.46449  -5130338.81146  21905525.2204   21905532.7584
       228.0004        178.0004
  23999849.7564   -6509921.33349  -5037215.65545  23999849.3404   23999856.5764
       208.0004        145.0004
 05  5 19 16 19 30.0000000  0 10G15G18G21G29G30G 6G22G10G26G16
  23538241.0764   -7393860.63549  -5733329.38545  23538239.6464   23538248.3844
       214.0004        153.0004
  21827794.8794   -8142721.42749  -6308856.94547  21827794.2234   21827800.0764
       237.0004        192.0004
  21204643.1074   -4576290.94249  -3553313.44447  21204642.4124   21204647.6464
       241.0004        201.0004
  22474492.2954   -3466260.52549  -2676243.30846  22474491.9134   22474498.7214
       224.0004        174.0004
  23678942.2254    7941486.64749   6184513.15945  23678942.6494   23678950.3434
       216.0004        157.0004
  20173915.6694   -1143322.75849   -879449.30647  20173915.3794   20173921.5114
       245.0004        211.0004
  24220856.7364  -11181800.84049  -7830714.01045  24220855.4114   24220862.6864
       205.0004        139.0004
  24220014.7434    8522353.28149   6634877.80145  24220013.2044   24220022.0384
       196.0004        136.0004
  21896274.3904   -6668551.18749  -5168220.36646  21896274.6444   21896280.9904
       227.0004        178.0004
  23990642.3874   -6558305.98249  -5074917.95645  23990641.6644   23990648.8084
       208.0004        145.0004
 05  5 19 16 20  0.0000000  0 10G15G18G21G29G30G 6G22G10G26G16
  23524820.3014   -7464386.96049  -5788284.92545  23524819.0174   23524827.3584
       213.0004        153.0004
  21814102.9684   -8214672.75149  -6364922.88547  21814102.3714   21814107.8154
       237.0004        192.0004
  21198270.4834   -4609779.40349  -3579408.34047  21198269.7534   21198274.8964
       240.0004        201.0004
  22473705.4514   -3470395.37149  -2679465.27046  22473705.1684   22473712.6284
       224.0004        173.0004
  23697970.0624    8041478.06649   6262428.44945  23697970.5364   23697977.6904
       217.0004        157.0004
  20177022.8024   -1126994.70549   -866726.14447  20177022.3684   20177028.5494
       245.0004        211.0004
  24201733.1714  -11282294.73449  -7909020.82445  24201731.6504   24201739.5004
       208.0004        140.0004
  24240224.7104    8628557.50449   6717634.24745  24240223.6524   24240232.6864
       199.0004        134.0004
  21887128.2064   -6716614.57549  -5205672.32946  21887128.3064   21887134.9914
       227.0004        179.0004
  23981526.6344   -6606209.44649  -5112245.30545  23981524.8864   23981533.9444
       208.0004        143.0004
 05  5 19 16 20 30.0000000  0 10G15G18G21G29G30G 6G22G10G26G16
  23511411.5534   -7534850.58449  -5843191.60745  23511411.2494   23511418.8294
       213.0004        153.0004
  21800479.6044   -8286263.95449  -6420708.20647  21800479.1124   21800484.9644
       237.0004        193.0004
  21191925.5744   -4643122.00049  -3605389.57647  21191925.0064   21191929.9004
       241.0004        201.0004
  22473024.5224   -3473973.64449  -2682253.53546  22473024.2794   22473031.3234
       225.0004        174.0004
  23717003.3504    8141498.01549   6340365.96845  23717003.8204   23717011.2424
       216.0004        158.0004
  20180220.6734   -1110189.69549   -853631.32747  20180220.3444   20180226.3714
       245.0004        211.0004
  24182642.9374  -11382614.14049  -7987191.67845  24182641.3164   24182647.6894
       208.0004        142.0004
  24260444.3634    8734812.32749   6800430.13445  24260444.8044   24260453.1614
       207.0004        139.0004
  21878087.5944   -6764123.26349  -5242692.04746  21878087.5554   21878094.1364
       228.0004        179.0004
  23972502.7114   -6653630.55049  -5149196.78545  23972501.7624   23972510.7654
       209.0004        142.0004
 05  5 19 16 21  0.0000000  0 10G15G18G21G29G30G 6G22G10G26G16
  23498014.3564   -7605253.04949  -5898050.63345  23498013.3144   23498021.4144
       214.0004        153.0004
  21786924.7024   -8357495.55149  -6476213.31147  21786924.2664   21786929.5914
       237.0004        193.0004
  21185608.2284   -4676319.91449  -3631258.07347  21185607.5394   21185612.7434
       241.0004        201.0004
  22472449.4064   -3476995.94649  -2684608.58046  22472449.1874   22472456.0194
       224.0004        174.0004
  23736041.3214    8241542.47949   6418322.59745  23736041.4204   23736048.2204
       216.0004        157.0004
  20183509.2044   -1092908.32349   -840165.31947  20183508.8884   20183514.8064
       245.0004        211.0004
  24163586.0404  -11482758.50549  -8065226.12745  24163585.4884   24163591.6044
       210.0004        143.0004
  24280673.1054    8841114.45649   6883262.92145  24280672.8804   24280681.4234
       213.0004        146.0004
  21869152.7654   -6811075.93549  -5279278.51246  21869152.5114   21869159.0824
       228.0004        179.0004
  23963570.4414   -6700569.30049  -5185772.40645  23963569.4464   23963577.3744
       209.0004        142.0004
 05  5 19 16 21 30.0000000  0 10G15G18G21G29G30G 6G22G10G26G16
  23484629.1614   -7675592.50249  -5952860.55045  23484628.0904   23484636.9394
       214.0004        153.0004
  21773438.7754   -8428364.48849  -6531435.82947  21773438.6124   21773444.1144
       237.0004        193.0004
  21179318.8534   -4709370.85549  -3657012.04647  21179318.2234   21179323.2754
       241.0004        201.0004
  22471980.6074   -3479459.56049  -2686528.27546  22471980.3124   22471986.7344
       224.0004        173.0004
  23755083.7014    8341610.65449   6496297.70245  23755084.5674   23755090.5824
       218.0004        156.0004
  20186888.8934   -1075147.94949   -826326.06947  20186888.5384   20186894.7484
       245.0004        211.0004
  24144563.1944  -11582724.04149  -8143121.25845  24144563.5964   24144569.2484
       211.0004        147.0004
  24300910.8344    8947463.87849   6966132.58045  24300910.9694   24300919.0074
       214.0004        148.0004
  21860324.6254   -6857468.01149  -5315428.15146  21860324.5824   21860331.4034
       228.0004        179.0004
  23954730.7674   -6747022.05049  -5221969.34645  23954730.8454   23954737.6814
       209.0004        142.0004
 05  5 19 16 22  0.0000000  0 10G15G18G21G29G30G 6G22G10G26G16
  23471255.7514   -7745869.99649  -6007622.20445  23471255.0084   23471263.2324
       214.0004        153.0004
  21760021.8694   -8498870.86849  -6586375.83447  21760021.3714   21760027.0074
       238.0004        194.0004
  21173057.1694   -4742276.00949  -3682652.41547  21173056.4884   21173061.6894
       241.0004        201.0004
  22471618.0054   -3481365.08849  -2688013.09746  22471617.9834   22471624.4574
       224.0004        173.0004
  23774129.8014    8441698.50049   6574288.12745  23774129.4834   23774138.3384
       216.0004        155.0004
  20190359.5724   -1056909.41449   -812114.22147  20190359.2354   20190365.3704
       245.0004        211.0004
  24125574.4554  -11682510.31649  -8220876.68745  24125573.6334   24125580.1094
       214.0004        150.0004
  24321156.8364    9053857.03149   7049036.31845  24321156.7344   24321165.0374
       214.0004        146.0004
  21851603.4604   -6903297.96549  -5351139.77046  21851603.1104   21851610.5814
       229.0004        179.0004
  23945983.6374   -6792988.76149  -5257787.56145  23945983.3214   23945989.9204
       209.0004        143.0004
 05  5 19 16 22 30.0000000  0 10G15G18G21G29G30G 6G22G10G26G16
  23457894.3214   -7816084.75349  -6062334.96345  23457893.4084   23457902.2134
       215.0004        153.0004
  21746674.4024   -8569012.25849  -6641031.43147  21746673.9514   21746679.3134
       238.0004        194.0004
  21166823.4114   -4775034.65249  -3708178.61947  21166822.8134   21166828.1224
       241.0004        202.0004
  22471361.8724   -3482710.97649  -2689061.82546  22471362.2604   22471368.4314
       224.0004        173.0004
  23793179.2864    8541804.02249   6652292.32445  23793180.2744   23793186.9134
       216.0004        154.0004
  20193921.4484   -1038191.63049   -797528.93747  20193921.2194   20193927.2034
       245.0004        211.0004
  24106620.3364  -11782114.76249  -8298490.44745  24106619.5554   24106625.8464
       215.0004        152.0004
  24341410.8534    9160292.64449   7131973.16245  24341409.2734   24341419.5374
       212.0004        143.0004
  21842989.8694   -6948562.35249  -5386410.69346  21842989.7434   21842996.9334
       229.0004        179.0004
  23937329.3464   -6838467.36049  -5293225.40245  23937328.3424   23937336.2984
       209.0004        143.0004
 05  5 19 16 23  0.0000000  0 10G15G18G21G29G30G 6G22G10G26G16
  23444544.5644   -7886238.23849  -6116999.97645  23444543.9204   23444551.7914
       215.0004        153.0004
  21733396.3254   -8638788.98949  -6695402.87547  21733395.5134   21733401.1554
       239.0004        194.0004
  21160617.3634   -4807647.76649  -3733591.42147  21160616.8704   21160621.9824
       241.0004        202.0004
  22471212.1664   -3483497.90449  -2689675.02046  22471211.8844   22471218.4004
       223.0004        173.0004
  23812231.3694    8641922.81649   6730306.86445  23812231.5754   23812239.3564
       215.0004        153.0004
  20197574.3794   -1018995.31849   -782570.77147  20197574.2504   20197580.2614
       245.0004        211.0004
  24087700.7764  -11881537.13249  -8375962.32245  24087700.1624   24087706.6674
       216.0004        154.0004
  24361672.2594    9266767.14849   7214940.29645  24361671.1064   24361680.6874
       208.0004        137.0004
  21834484.1754   -6993260.02149  -5421240.01546  21834484.1814   21834490.6794
       229.0004        179.0004
  23928767.8764   -6883457.85249  -5328282.91945  23928767.4394   23928774.1804
       210.0004        143.0004
 05  5 19 16 23 30.0000000  0 10G15G18G21G29G30G 6G22G10G26G16
  23431206.5834   -7956329.19649  -6171616.27345  23431205.7344   23431213.5934
       216.0004        153.0004
  21720187.9824   -8708199.05949  -6749488.61647  21720187.5274   21720192.9104
       238.0004        194.0004
  21154439.2414   -4840114.04849  -3758889.81247  21154438.5374   21154443.6484
       241.0004        202.0004
  22471169.0904   -3483724.14749  -2689851.30546  22471168.8344   22471175.5774
       224.0004        173.0004
  23831285.7204    8742053.55949   6808330.71345  23831286.2344   23831293.7914
       215.0004        152.0004
  20201318.6964    -999318.92949   -767238.52547  20201318.4484   20201324.3024
       245.0004        211.0004
  24068816.4984  -11980774.48749  -8453290.03445  24068816.0554   24068822.4134
       215.0004        156.0004
  24381940.9194    9373279.68149   7297937.06945  24381941.5134   24381949.1664
       203.0004        134.0004
  21826087.0184   -7037387.19749  -5455624.80146  21826086.9944   21826094.0664
       229.0004        180.0004
  23920299.8354   -6927957.95949  -5362958.30345  23920299.8614   23920306.6584
       210.0004        143.0004
 05  5 19 16 24  0.0000000  0 10G15G18G21G29G30G 6G22G10G26G16
  23417880.5814   -8026358.06749  -6226184.18545  23417880.1994   23417888.1444
       216.0004        153.0004
  21707049.5044   -8777242.03549  -6803288.30147  21707048.8834   21707054.4344
       238.0004        195.0004
  21148288.9574   -4872433.95549  -3784074.13947  21148288.2954   21148293.4074
       241.0004        202.0004
  22471232.7654   -3483389.57549  -2689590.58846  22471232.3604   22471239.3444
       224.0004        173.0004
  23850341.6634    8842192.83649   6886361.21245  23850341.2524   23850348.3074
       215.0004        152.0004
  20205154.3294    -979162.48249   -751532.20547  20205154.0234   20205160.1354
       244.0004        211.0004
  24049967.6454  -12079825.51649  -8530472.55645  24049967.2344   24049972.8054
       218.0004        157.0004
  24402216.2174    9479827.24449   7380961.11545  24402214.2894   24402222.7334
       203.0004        134.0004
  21817798.8334   -7080941.79349  -5489563.41446  21817798.9024   21817805.5304
       229.0004        180.0004
  23911925.1484   -6971966.86449  -5397250.95545  23911924.7994   23911930.8554
       210.0004        143.0004
 05  5 19 16 24 30.0000000  0 10G15G18G21G29G30G 6G22G10G26G16
  23404566.3214   -8096324.89849  -6280703.76645  23404564.7074   23404573.4744
       214.0004        154.0004
  21693981.2014   -8845916.22349  -6856800.63147  21693980.5104   21693986.3064
       237.0004        195.0004
  21142166.6744   -4904606.81249  -3809143.88847  21142165.9034   21142171.0414
       240.0004        202.0004
  22471403.2794   -3482493.46849  -2688892.30846  22471402.9114   22471409.2834
       223.0004        173.0004
  23869398.7704    8942338.18449   6964396.44345  23869399.0894   23869406.2784
       213.0004        150.0004
  20209081.4494    -958525.32749   -735451.31747  20209081.1544   20209087.1774
       243.0004        211.0004
  24031154.5884  -12178688.34149  -8607508.43045  24031154.2984   24031160.0804
       218.0004        157.0004
  24422497.7944    9586408.09049   7464011.06745  24422496.8374   24422506.6554
       208.0004        139.0004
  21809620.1664   -7123920.97449  -5523053.65646  21809620.5044   21809627.1014
       229.0004        180.0004
  23903644.2884   -7015482.94049  -5431159.57445  23903643.7224   23903650.6624
       211.0004        145.0004
 05  5 19 16 25  0.0000000  0 10G15G18G21G29G30G 6G22G10G26G16
  23391263.8454   -8166229.75949  -6335175.05245  23391262.8564   23391271.8334
       217.0004        154.0004
  21680983.2304   -8914221.04049  -6910025.12947  21680982.7984   21680988.3054
       238.0004        195.0004
  21136072.2814   -4936632.94449  -3834099.29947  21136071.5124   21136076.5884
       241.0004        202.0004
  22471680.7734   -3481035.34449  -2687756.09046  22471680.6394   22471686.9004
       224.0004        173.0004
  23888456.4154    9042486.66549   7042434.10545  23888456.8054   23888464.0534
       213.0004        150.0004
  20213100.0924    -937407.21749   -718995.65447  20213099.6624   20213105.8454
       245.0004        211.0004
  24012377.6804  -12277361.35649  -8684396.40545  24012376.8574   24012382.5324
       217.0004        158.0004
  24442785.4814    9693020.03849   7547085.28345  24442785.1724   24442793.6074
       212.0004        146.0004
  21801551.3964   -7166322.36449  -5556093.65646  21801551.1104   21801558.2004
       229.0004        180.0004
  23895457.4674   -7058505.55649  -5464683.68745  23895456.8094   23895463.9594
       213.0004        146.0004
 05  5 19 16 25 30.0000000  0 10G15G18G21G29G30G 6G22G10G26G16
  23377973.1104   -8236072.95449  -6389598.28945  23377972.3374   23377980.3554
       218.0004        154.0004
  21668055.7354   -8982155.58749  -6962961.11547  21668055.4774   21668060.8944
       238.0004        196.0004
  21130005.8414   -4968512.44449  -3858940.45447  21130005.0024   21130010.2244
       241.0004        202.0004
  22472065.1884   -3479015.31949  -2686182.01946  22472064.4044   22472071.5054
       224.0004        174.0004
  23907514.0874    9142634.89049   7120471.58045  23907514.4324   23907523.1864
       213.0004        149.0004
  20217210.1914    -915808.51149   -702165.50647  20217209.8174   20217215.8784
       244.0004        211.0004
  23993637.0494  -12375843.64049  -8761135.75645  23993636.5014   23993642.6774
       216.0004        157.0004
  24463078.4714    9799660.19349   7630181.48445  24463077.6444   24463086.9454
       214.0004        151.0004
  21793592.9734   -7208144.14449  -5588682.02146  21793592.9104   21793599.5554
       230.0004        180.0004
  23887364.5444   -7101034.03649  -5497822.75645  23887364.9014   23887371.0934
       211.0004        147.0004
 05  5 19 16 26  0.0000000  0 10G15G18G21G29G30G 6G22G10G26G16
  23364694.0704   -8305854.33649  -6443973.34945  23364693.0904   23364702.1894
       216.0004        155.0004
  21655198.8984   -9049718.63649  -7015607.61447  21655198.1284   21655204.1874
       238.0004        196.0004
  21123967.3104   -5000245.04249  -3883667.14047  21123966.4324   21123971.6034
       241.0004        202.0004
  22472556.6844   -3476432.47949  -2684169.39446  22472556.3934   22472563.1574
       224.0004        174.0004
  23926571.2284    9242780.49149   7198507.00645  23926571.4294   23926579.6524
       212.0004        148.0004
  20221411.9354    -893728.24449   -684960.11247  20221411.5884   20221417.7934
       245.0004        211.0004
  23974933.1224  -12474132.96649  -8837724.74345  23974931.5804   23974939.2314
       217.0004        156.0004
  24483376.6274    9906326.89749   7713298.36345  24483376.4114   24483385.1924
       215.0004        153.0004
  21785745.3924   -7249383.35149  -5620816.42646  21785745.1224   21785751.6644
       230.0004        181.0004
  23879365.9644   -7143066.66849  -5530575.45845  23879365.8994   23879372.4824
       214.0004        148.0004
 05  5 19 16 26 30.0000000  0 10G15G18G21G29G30G 6G22G10G26G16
  23351426.8874   -8375573.56249  -6498299.98645  23351426.2244   23351435.0744
       218.0004        155.0004
  21642412.9724   -9116909.16549  -7067963.84247  21642412.3104   21642418.2254
       237.0004        196.0004
  21117956.8124   -5031830.41149  -3908279.10247  21117956.1034   21117961.1964
       240.0004        202.0004
  22473155.4144   -3473286.19249  -2681717.71946  22473155.0784   22473161.8504
       224.0004        174.0004
  23945627.4104    9342920.79949   7276538.29345  23945628.2174   23945635.3364
       210.0004        147.0004
  20225705.3794    -871166.08849   -667379.21747  20225705.1264   20225711.0654
       245.0004        211.0004
  23956266.2474  -12572227.52149  -8914161.97745  23956266.2024   23956271.7354
       213.0004        155.0004
  24503679.4534   10013018.38349   7796434.56245  24503678.6564   24503687.3554
       212.0004        150.0004
  21778009.1454   -7290037.58049  -5652495.00746  21778009.0084   21778015.6544
       230.0004        181.0004
  23871462.0494   -7184602.35849  -5562940.90345  23871461.4214   23871468.5454
       213.0004        149.0004
 05  5 19 16 27  0.0000000  0 10G15G18G21G29G30G 6G22G10G26G16
  23338171.4824   -8445231.27749  -6552578.70045  23338171.6504   23338178.6384
       217.0004        155.0004
  21629697.9474   -9183726.88949  -7120029.57847  21629697.2724   21629702.9094
       237.0004        196.0004
  21111974.2414   -5063268.91849  -3932776.62447  21111973.6554   21111978.9044
       240.0004        203.0004
  22473861.3034   -3469576.65449  -2678827.14346  22473861.3604   22473867.0724
       224.0004        174.0004
  23964681.8604    9443052.51349   7354562.88445  23964680.9874   23964690.1594
       210.0004        147.0004
  20230090.4694    -848122.34649   -649423.06947  20230090.2204   20230096.5634
       243.0004        211.0004
  23937636.6294  -12670126.28049  -8990446.64945  23937636.2594   23937642.1804
       212.0004        153.0004
  24523986.3984   10119731.84049   7879587.88545  24523986.1184   24523994.5894
       209.0004        146.0004
  21770384.5544   -7330105.03749  -5683716.34746  21770384.0274   21770391.0964
       230.0004        181.0004
  23863652.7254   -7225640.50249  -5594918.66545  23863652.3674   23863660.0434
       214.0004        150.0004
 05  5 19 16 27 30.0000000  0 10G15G18G21G29G30G 6G22G10G26G16
  23324927.6914   -8514827.78749  -6606809.71645  23324926.9094   23324934.6814
       218.0004        155.0004
  21617054.1554   -9250170.25449  -7171803.60847  21617053.1954   21617059.3424
       238.0004        197.0004
  21106019.6694   -5094560.42549  -3957159.60447  21106018.9974   21106024.0744
       241.0004        203.0004
  22474674.4554   -3465303.45849  -2675497.35746  22474673.9474   22474680.2564
       224.0004        173.0004
  23983734.1914    9543172.79649   7432578.56045  23983735.1964   23983742.8474
       211.0004        146.0004
  20234567.2544    -824596.72049   -631091.42347  20234566.9914   20234572.9074
       243.0004        211.0004
  23919044.5544  -12767827.58549  -9066577.45545  23919043.7614   23919050.7124
       215.0004        151.0004
  24544297.0444   10226465.15549   7962756.70145  24544296.7874   24544305.3294
       203.0004        140.0004
  21762872.1174   -7369583.19049  -5714478.50146  21762872.0974   21762878.5604
       230.0004        181.0004
  23855938.2664   -7266180.22049  -5626508.04445  23855938.1684   23855944.5114
       215.0004        151.0004
 05  5 19 16 28  0.0000000  0 10G15G18G21G29G30G 6G22G10G26G16
  23311695.7774   -8584361.80949  -6660992.04945  23311695.4494   23311702.8574
       217.0004        155.0004
  21604481.9194   -9316237.53349  -7223284.58447  21604481.3094   21604487.0044
       238.0004        197.0004
  21100093.3254   -5125703.49849  -3981426.92447  21100092.7004   21100097.7234
       241.0004        203.0004
  22475595.1444   -3460464.92749  -2671727.04246  22475594.8794   22475601.1274
       224.0004        173.0004
  24002784.0594    9643280.15849   7510584.18645  24002784.1884   24002793.5104
       212.0004        147.0004
  20239136.0394    -800587.62649   -612383.05447  20239135.7984   20239141.8184
       243.0004        211.0004
  23900490.5844  -12865328.85249  -9142552.38145  23900489.7554   23900495.5764
       214.0004        150.0004
  24564611.2414   10333217.46949   8045940.28445  24564609.1654   24564617.3844
       199.0004        135.0004
  21755472.4864   -7408468.33549  -5744778.57246  21755472.7704   21755478.7834
       230.0004        182.0004
  23848319.1734   -7306218.96949  -5657707.06345  23848319.3324   23848326.3794
       215.0004        152.0004
 05  5 19 16 28 30.0000000  0 10G15G18G21G29G30G 6G22G10G26G16
  23298475.5424   -8653834.76249  -6715126.79345  23298474.5724   23298483.0874
       218.0004        156.0004
  21591981.2354   -9381929.10249  -7274472.79347  21591980.6834   21591986.1034
       238.0004        197.0004
  21094194.9834   -5156699.35249  -4005579.52147  21094194.4034   21094199.4124
       241.0004        203.0004
  22476623.2024   -3455062.28049  -2667517.14946  22476622.2684   22476629.0354
       224.0004        173.0004
  24021830.7124    9743370.46249   7588576.50545  24021830.7534   24021840.3414
       212.0004        148.0004
  20243796.5964    -776096.33949   -593298.94347  20243796.3114   20243802.3564
       243.0004        211.0004
  23881974.8124  -12962629.69849  -9218371.14645  23881974.5434   23881980.2054
       212.0004        149.0004
  24584928.4534   10439985.47649   8129136.10445  24584927.1194   24584935.9794
       200.0004        132.0004
  21748185.8354   -7446759.85249  -5774616.06346  21748185.7144   21748192.9414
       230.0004        182.0004
  23840795.3084   -7345757.37849  -5688516.20545  23840794.4514   23840801.6624
       217.0004        152.0004
 05  5 19 16 29  0.0000000  0 10G15G18G21G29G30G 6G22G10G26G16
  23285266.9224   -8723246.23049  -6769213.61445  23285266.9454   23285274.6084
       217.0004        156.0004
  21579552.3024   -9447243.55449  -7325367.15847  21579551.6474   21579557.1444
       238.0004        197.0004
  21088324.8114   -5187547.39149  -4029616.94847  21088324.3174   21088329.0794
       240.0004        203.0004
  22477758.7684   -3449094.81749  -2662867.14246  22477758.1224   22477764.5954
       225.0004        173.0004
  24040873.7074    9843441.43949   7666553.76845  24040875.6984   24040883.7324
       212.0004        149.0004
  20248549.0384    -751122.08749   -573838.50847  20248548.7414   20248554.8754
       242.0004        211.0004
  23863497.5984  -13059727.97649  -9294032.07145  23863496.7454   23863503.8994
       212.0004        148.0004
  24605248.4754   10546767.59749   8212342.94645  24605248.0714   24605258.3024
       204.0004        133.0004
  21741012.6574   -7484454.99049  -5803988.85146  21741011.7414   21741019.4974
       229.0004        182.0004
  23833366.8694   -7384793.65849  -5718934.07645  23833366.8534   23833373.5024
       215.0004        153.0004
 05  5 19 16 29 30.0000000  0 10G15G18G21G29G30G 6G22G10G26G16
  23272069.9624   -8792596.53949  -6823252.79245  23272069.3324   23272077.1854
       218.0004        156.0004
  21567195.2524   -9512180.40749  -7375967.28247  21567194.7724   21567200.2094
       238.0004        197.0004
  21082482.6594   -5218248.00249  -4053539.48647  21082482.2314   21082487.2504
       241.0004        203.0004
  22479001.8264   -3442562.43349  -2657776.93846  22479001.8414   22479008.2244
       224.0004        174.0004
  24059912.3764    9943489.94849   7744513.50945  24059912.4894   24059920.4564
       212.0004        149.0004
  20253393.3684    -725665.11149   -554001.91547  20253393.2384   20253399.1744
       243.0004        211.0004
  23845059.1564  -13156622.35549  -9369534.12145  23845059.0894   23845064.7384
       213.0004        149.0004
  24625570.7494   10653561.15549   8295558.71545  24625570.5824   24625579.1224
       209.0004        137.0004
  21733953.3324   -7521551.67849  -5832895.30646  21733953.6074   21733959.6234
       229.0004        182.0004
  23826034.2394   -7423327.30149  -5748960.28845  23826033.3004   23826040.4164
       215.0004        154.0004
 05  5 19 16 30  0.0000000  0 10G15G18G21G29G30G 6G22G10G26G16
  23258884.8364   -8861885.06049  -6877243.81145  23258883.4704   23258892.4584
       218.0004        156.0004
  21554910.3164   -9576737.98849  -7426271.87247  21554909.7274   21554915.4194
       238.0004        198.0004
  21076668.7514   -5248800.32549  -4077346.47847  21076668.0564   21076673.1914
       241.0004        203.0004
  22480352.5144   -3435464.32349  -2652245.89446  22480353.0954   22480358.5444
       224.0004        173.0004
  24078946.4454   10043513.86449   7822454.10345  24078945.6234   24078955.0824
       213.0004        150.0004
  20258329.6764    -699724.67449   -533788.60247  20258329.3204   20258335.3604
       243.0004        211.0004
  23826659.9864  -13253310.67749  -9444875.60745  23826659.0274   23826664.9554
       214.0004        149.0004
  24645894.8864   10760364.75549   8378782.31745  24645892.8534   24645902.8784
       210.0004        142.0004
  21727008.4514   -7558047.22849  -5861333.35446  21727008.5254   21727014.8354
       230.0004        182.0004
  23818797.4154   -7461356.83749  -5778593.68045  23818796.6704   23818803.6994
       215.0004        154.0004
 05  5 19 16 30 30.0000000  0 10G15G18G21G29G30G 6G22G10G26G16
  23245711.3084   -8931112.40649  -6931187.16745  23245710.8594   23245718.7754
       217.0004        157.0004
  21542697.5594   -9640916.32449  -7476280.95047  21542697.0514   21542702.6524
       238.0004        198.0004
  21070882.9534   -5279204.79649  -4101038.26247  21070882.5124   21070887.0954
       241.0004        203.0004
  22481810.7404   -3427801.10949  -2646274.51746  22481810.8964   22481817.5254
       224.0004        174.0004
  24097975.1914   10143509.62149   7900372.74045  24097975.5794   24097984.6494
       214.0004        151.0004
  20263357.9224    -673301.19449   -513198.88947  20263357.7094   20263363.8274
       243.0004        211.0004
  23808300.1004  -13349792.35249  -9520056.07145  23808299.8274   23808305.1864
       215.0004        151.0004
  24666220.2434   10867175.56549   8462011.51945  24666220.1914   24666228.3434
       208.0004        144.0004
  21720178.2064   -7593940.19249  -5889301.84146  21720178.7734   21720184.6434
       230.0004        183.0004
  23811656.5924   -7498882.27249  -5807834.26945  23811655.3744   23811663.5824
       214.0004        154.0004
 05  5 19 16 31  0.0000000  0  9G15G18G21G29G30G 6G22G26G16
  23232549.8834   -9000275.78649  -6985080.67545  23232548.8014   23232557.0654
       217.0004        157.0004
  21530557.7344   -9704711.28349  -7525991.29047  21530556.9264   21530562.7264
       239.0004        198.0004
  21065125.9184   -5309458.23849  -4124612.36047  21065125.3274   21065130.2314
       241.0004        203.0004
  22483377.1804   -3419569.29049  -2639860.06746  22483376.4424   22483382.8234
       224.0004        174.0004
  24116998.5534   10243477.64449   7978269.75445  24116999.0894   24117007.8414
       215.0004        151.0004
  20268478.6464    -646391.59249   -492230.37847  20268478.4344   20268484.4544
       243.0004        211.0004
  23789980.5374  -13446062.38249  -9595071.62645  23789979.7504   23789985.7394
       215.0004        152.0004
  21713463.6754   -7629225.18949  -5916796.59046  21713463.1824   21713469.9364
       231.0004        183.0004
  23804612.4364   -7535899.51049  -5836678.86345  23804611.8404   23804619.1844
       214.0004        153.0004
 05  5 19 16 31 30.0000000  0  9G15G18G21G29G30G 6G22G26G16
  23219400.3434   -9069376.71849  -7038925.51245  23219399.8144   23219407.2094
       218.0004        157.0004
  21518490.6974   -9768123.93049  -7575403.73347  21518489.8894   21518495.8574
       238.0004        198.0004
  21059397.4614   -5339561.45949  -4148069.40647  21059397.0434   21059402.0044
       241.0004        203.0004
  22485051.4894   -3410770.47049  -2633003.79546  22485050.3044   22485057.6334
       224.0004        174.0004
  24136015.8424   10343413.64249   8056141.83145  24136016.6034   24136024.0024
       213.0004        152.0004
  20273691.5924    -618997.41349   -470884.28147  20273691.1964   20273697.4324
       243.0004        211.0004
  23771701.1794  -13542120.88749  -9669922.35645  23771700.6544   23771705.7664
       216.0004        153.0004
  21706864.9274   -7663901.63449  -5943817.14746  21706864.4804   21706871.4454
       230.0004        183.0004
  23797664.8654   -7572409.01849  -5865127.82445  23797663.9404   23797671.5484
       215.0004        154.0004
 05  5 19 16 32  0.0000000  0  9G15G18G21G29G30G 6G22G26G16
  23206262.2114   -9138418.04449  -7092723.91645  23206261.4994   23206269.8654
       216.0004        157.0004
  21506496.1194   -9831155.90749  -7624519.54047  21506495.8234   21506500.9134
       239.0004        198.0004
  21053696.9294   -5369517.87849  -4171412.05347  21053696.3094   21053701.5634
       241.0004        203.0004
  22486833.2124   -3401407.25449  -2625707.73546  22486833.2894   22486838.5814
       224.0004        174.0004
  24155025.9964   10443312.01949   8133984.59045  24155025.7244   24155035.3624
       214.0004        153.0004
  20278996.2884    -591121.13149   -449162.51347  20278996.2034   20279002.1284
       243.0004        211.0004
  23753461.7564  -13637969.40349  -9744609.46345  23753461.7614   23753467.7634
       219.0004        155.0004
  21700381.8384   -7697970.33749  -5970364.13946  21700381.3794   21700388.5674
       230.0004        183.0004
  23790813.6194   -7608412.90449  -5893182.79345  23790813.3234   23790819.7134
       215.0004        155.0004
 05  5 19 16 32 30.0000000  0  9G15G18G21G29G30G 6G22G26G16
  23193135.7674   -9207397.97549  -7146474.48545  23193135.2674   23193143.6564
       217.0004        158.0004
  21494574.4244   -9893804.82549  -7673336.86147  21494574.0664   21494578.9644
       239.0004        198.0004
  21048024.8374   -5399324.84549  -4194638.25047  21048024.1164   21048029.3244
       241.0004        203.0004
  22488722.7264   -3391477.66349  -2617970.33546  22488722.1624   22488729.3894
       224.0004        174.0004
  24174028.8784   10543171.86949   8211797.32145  24174029.5984   24174037.3784
       214.0004        153.0004
  20284393.0574    -562761.08949   -427063.79347  20284392.7674   20284399.1334
       243.0004        211.0004
  23735263.0174  -13733604.25149  -9819130.06045  23735262.7704   23735268.0964
       218.0004        156.0004
  21694015.1474   -7731427.54249  -5996434.63946  21694014.9864   21694021.5924
       230.0004        184.0004
  23784058.9754   -7643908.58949  -5920841.76345  23784059.2684   23784065.6304
       216.0004        155.0004
 05  5 19 16 33  0.0000000  0  9G15G18G21G29G30G 6G22G26G16
  23180020.8564   -9276316.96749  -7200177.56445  23180019.7364   23180028.2864
       217.0004        158.0004
  21482725.7254   -9956070.20449  -7721855.32647  21482725.0694   21482730.6354
       239.0004        198.0004
  21042381.0664   -5428983.02749  -4217748.51047  21042380.4334   21042385.3754
       241.0004        203.0004
  22490719.9354   -3380982.10549  -2609791.93946  22490719.8894   22490727.0344
       224.0004        174.0004
  24193023.7564   10642990.15849   8289577.65645  24193024.1784   24193031.6064
       213.0004        152.0004
  20289881.8514    -533917.42349   -404588.22947  20289881.6374   20289887.6154
       243.0004        211.0004
  23717105.1014  -13829024.47249  -9893483.42645  23717104.7304   23717111.1174
       219.0004        158.0004
  21687765.1384   -7764271.30649  -6022027.15046  21687764.9434   21687771.5594
       231.0004        184.0004
  23777401.1914   -7678895.61449  -5948104.38345  23777400.1284   23777407.5274
       216.0004        155.0004
 05  5 19 16 33 30.0000000  0  9G15G18G21G29G30G 6G22G26G16
  23166917.5674   -9345175.26249  -7253833.34645  23166916.7374   23166925.3904
       217.0004        158.0004
  21470950.1154  -10017951.19649  -7770074.26147  21470949.5514   21470955.0354
       239.0004        199.0004
  21036765.5994   -5458492.38249  -4240742.79647  21036765.0814   21036769.8514
       241.0004        203.0004
  22492824.8204   -3369920.58649  -2601172.52346  22492824.2824   22492831.2504
       223.0004        174.0004
  24212010.1594   10742763.99349   8367323.36745  24212011.5034   24212017.6944
       214.0004        152.0004
  20295462.5834    -504590.47749   -381736.07447  20295462.4544   20295468.4294
       243.0004        211.0004
  23698988.3284  -13924228.70649  -9967668.49145  23698988.3924   23698993.4274
       219.0004        159.0004
  21681632.1694   -7796499.94949  -6047140.32746  21681632.1784   21681637.6424
       231.0004        184.0004
  23770840.2874   -7713373.17349  -5974970.00145  23770840.1604   23770846.9614
       215.0004        155.0004
 05  5 19 16 34  0.0000000  0  9G15G18G21G29G30G 6G22G26G16
  23153825.9524   -9413972.23749  -7307441.33345  23153825.0704   23153832.8184
       218.0004        158.0004
  21459247.8964  -10079446.63449  -7817992.76847  21459246.9424   21459252.8194
       238.0004        199.0004
  21031178.6224   -5487852.04249  -4263620.43847  21031177.8494   21031182.8904
       242.0004        203.0004
  22495037.5024   -3358292.71349  -2592111.79646  22495037.0204   22495043.1114
       224.0004        174.0004
  24230987.6764   10842491.07949   8445032.64545  24230988.6664   24230996.7964
       212.0004        151.0004
  20301135.4204    -474779.61249   -358506.84447  20301135.0374   20301141.3444
       243.0004        211.0004
  23680913.0484  -14019214.86149 -10041683.63545  23680912.9754   23680919.1214
       220.0004        160.0004
  21675616.8034   -7828110.88649  -6071772.19046  21675616.5734   21675623.1714
       231.0004        184.0004
  23764376.5464   -7747340.35449  -6001437.92245  23764376.6044   23764382.6834
       215.0004        155.0004
 05  5 19 16 34 30.0000000  0  9G15G18G21G29G30G 6G22G26G16
  23140746.0754   -9482707.30849  -7361001.09145  23140744.6464   23140752.9984
       217.0004        159.0004
  21447619.3184  -10140555.26049  -7865609.86747  21447618.5934   21447624.4774
       239.0004        199.0004
  21025620.2804   -5517061.30149  -4286380.88947  21025619.4274   21025624.5824
       241.0004        203.0004
  22497358.0934   -3346097.75449  -2582609.19246  22497357.6534   22497364.5704
       224.0004        174.0004
  24249955.9034   10942169.37849   8522703.90645  24249956.2954   24249964.6324
       210.0004        149.0004
  20306900.4424    -444484.25749   -334900.09347  20306900.1364   20306906.3184
       243.0004        211.0004
  23662879.6714  -14113980.68549 -10115527.08245  23662878.9904   23662885.5114
       221.0004        160.0004
  21669719.4184   -7859101.69549  -6095920.82746  21669718.7564   21669725.3824
       231.0004        184.0004
  23758010.2494   -7780795.65649  -6027506.98345  23758010.0324   23758016.8484
       215.0004        155.0004
 05  5 19 16 35  0.0000000  0  9G15G18G21G29G30G 6G22G26G16
  23127677.5024   -9551382.55249  -7414514.23645  23127675.9134   23127684.7954
       216.0004        159.0004
  21436064.0334  -10201278.65849  -7912926.77947  21436063.2724   21436068.9094
       238.0004        199.0004
  21020090.2394   -5546121.91149  -4309025.50447  21020089.6954   21020094.7254
       241.0004        204.0004
  22499786.1474   -3333338.07749  -2572666.55046  22499785.6434   22499791.7724
       224.0004        174.0004
  24268913.9474   11041794.04149   8600333.36445  24268914.3304   24268923.0744
       209.0004        147.0004
  20312757.2374    -413706.58549   -310917.50447  20312757.0314   20312763.1154
       243.0004        211.0004
  23644888.1114  -14208527.09149 -10189199.55145  23644888.6844   23644893.0344
       221.0004        161.0004
  21663939.9984   -7889472.48249  -6119586.33446  21663939.2674   21663946.2254
       230.0004        184.0004
  23751741.0594   -7813740.42649  -6053178.23645  23751741.1624   23751748.0134
       215.0004        155.0004
 05  5 19 16 35 30.0000000  0  9G15G18G21G29G30G 6G22G26G16
  23114620.9734   -9619995.29449  -7467978.68545  23114620.3714   23114628.5984
       218.0004        159.0004
  21424582.7414  -10261613.12249  -7959940.63747  21424582.0304   21424587.6834
       239.0004        199.0004
  21014588.9884   -5575031.08749  -4331552.12247  21014588.2934   21014593.3714
       240.0004        203.0004
  22502322.2254   -3320010.75149  -2562281.57646  22502321.7074   22502329.2104
       223.0004        174.0004
  24287861.8344   11141365.07949   8677921.02245  24287862.6834   24287871.0224
       207.0004        146.0004
  20318706.3164    -382443.99449   -286557.06747  20318705.8734   20318712.2774
       243.0004        211.0004
  23626939.0784  -14302849.81049 -10262697.73345  23626937.8314   23626944.2004
       221.0004        161.0004
  21658279.4654   -7919218.60249  -6142765.09646  21658278.7664   21658285.9574
       231.0004        185.0004
  23745569.6924   -7846171.19349  -6078448.95545  23745569.3344   23745576.9354
       215.0004        155.0004
 05  5 19 16 36  0.0000000  0  9G15G18G21G29G30G 6G22G26G16
  23101576.0174   -9688546.88349  -7521395.46845  23101575.0224   23101583.6164
       217.0004        160.0004
  21413175.3634  -10321559.09549  -8006651.76647  21413174.7784   21413180.5674
       239.0004        200.0004
  21009116.3614   -5603789.95749  -4353961.61347  21009115.5824   21009120.6934
       240.0004        204.0004
  22504966.0124   -3306117.37149  -2551455.53246  22504965.3374   22504971.6794
       223.0004        174.0004
  24306798.6574   11240878.48649   8755463.77745  24306798.3544   24306808.6664
       207.0004        143.0004
  20324747.4244    -350697.81549   -261819.80147  20324747.1704   20324753.2324
       243.0004        210.0004
  23609032.6454  -14396948.71049 -10336021.50545  23609032.7274   23609037.5594
       220.0004        162.0004
  21652737.9254   -7948339.48349  -6165456.65746  21652737.7924   21652743.9094
       230.0004        185.0004
  23739495.9794   -7878088.62049  -6103319.67045  23739494.8504   23739503.3254
       213.0004        155.0004
 05  5 19 16 36 30.0000000  0  9G15G18G21G29G30G 6G22G26G16
  23088542.6124   -9757037.55749  -7574764.79145  23088541.9354   23088549.3784
       217.0004        160.0004
  21401841.9594  -10381116.45649  -8053060.08047  21401841.5134   21401846.5454
       239.0004        200.0004
  21003672.3014   -5632398.43449  -4376253.92247  21003671.6214   21003676.4234
       241.0004        204.0004
  22507717.4864   -3291658.17149  -2540188.59646  22507717.3714   22507723.4354
       224.0004        174.0004
  24325724.0014   11340331.40749   8832959.41945  24325724.1024   24325732.7194
       205.0004        140.0004
  20330880.5034    -318468.33649   -236705.93847  20330880.1154   20330886.2964
       243.0004        210.0004
  23591169.0104  -14490822.49749 -10409169.86145  23591168.7844   23591173.9864
       220.0004        161.0004
  21647315.6714   -7976833.44949  -6187659.70846  21647315.5954   21647322.2674
       231.0004        185.0004
  23733519.9824   -7909492.32349  -6127790.09145  23733519.5064   23733526.6284
       215.0004        154.0004
 05  5 19 16 37  0.0000000  0  9G15G18G21G29G30G 6G22G26G16
  23075521.0874   -9825465.88249  -7628085.52845  23075520.1504   23075528.7464
       217.0004        160.0004
  21390582.9594  -10440282.90949  -8099163.79247  21390582.3584   21390587.8164
       239.0004        200.0004
  20998257.2224   -5660854.97749  -4398427.83647  20998256.5294   20998261.7444
       241.0004        204.0004
  22510576.8344   -3276632.00949  -2528479.87046  22510576.2824   22510582.6724
       224.0004        174.0004
  24344637.5644   11439722.48649   8910406.84045  24344637.9784   24344645.1854
       206.0004        139.0004
  20337105.7994    -285754.31749   -211214.51847  20337105.5154   20337111.6844
       243.0004        210.0004
  23573348.7414  -14584468.50149 -10482140.73745  23573348.2514   23573353.7584
       219.0004        161.0004
  21642013.2954   -8004697.56049  -6209371.96746  21642013.0164   21642020.1274
       232.0004        185.0004
  23727642.1274   -7940380.70049  -6151858.94845  23727641.2364   23727648.6024
       213.0004        154.0004
 05  5 19 16 37 30.0000000  0  9G15G18G21G29G30G 6G22G26G16
  23062511.2944   -9893832.44249  -7681358.14645  23062510.1764   23062518.6014
       218.0004        160.0004
  21379398.2804  -10499058.78949  -8144963.16747  21379397.7914   21379403.5084
       239.0004        200.0004
  20992870.9404   -5689159.86349  -4420483.58147  20992870.3684   20992875.4094
       240.0004        204.0004
  22513543.9334   -3261039.61649  -2516329.93046  22513543.9284   22513549.6794
       224.0004        174.0004
  24363538.8264   11539048.49749   8987803.56845  24363540.3424   24363547.4374
       205.0004        137.0004
  20343423.1614    -252556.45649   -185346.07547  20343422.8614   20343428.9334
       243.0004        210.0004
  23555572.0174  -14677885.58249 -10554933.21945  23555571.9674   23555576.4614
       219.0004        161.0004
  21636831.0354   -8031930.45149  -6230592.37146  21636830.5044   21636837.1374
       232.0004        185.0004
  23721862.3884   -7970753.35649  -6175525.95645  23721861.7174   23721869.1794
       215.0004        154.0004
 05  5 19 16 38  0.0000000  0  9G15G18G21G29G30G 6G22G26G16
  23049513.2524   -9962137.81249  -7734583.07945  23049513.0344   23049519.8084
       218.0004        161.0004
  21368288.0114  -10557443.66949  -8190457.85847  21368287.4524   21368293.0644
       239.0004        201.0004
  20987513.5544   -5717313.18049  -4442421.21347  20987512.8374   20987517.8794
       241.0004        204.0004
  22516618.7084   -3244881.53549  -2503739.19346  22516618.7194   22516624.8534
       224.0004        174.0004
  24382427.1094   11638306.35049   9065147.20345  24382426.4274   24382437.3434
       207.0004        137.0004
  20349832.4454    -218875.39249   -159101.10847  20349832.1844   20349838.5414
       243.0004        210.0004
  23537839.0414  -14771072.83549 -10627546.62445  23537839.1834   23537844.6504
       219.0004        160.0004
  21631769.1384   -8058530.71849  -6251319.81846  21631769.0784   21631775.6984
       230.0004        185.0004
  23716180.8434   -8000610.07249  -6198790.92045  23716180.0504   23716188.1414
       213.0004        154.0004
 05  5 19 16 38 30.0000000  0  9G15G18G21G29G30G 6G22G26G16
  23036526.9314  -10030381.41849  -7787759.87945  23036526.0554   23036533.4924
       218.0004        161.0004
  21357252.4024  -10615436.03149  -8235646.69447  21357251.7624   21357257.4274
       239.0004        201.0004
  20982185.0884   -5745314.39749  -4464240.32947  20982184.3564   20982189.3524
       241.0004        204.0004
  22519801.1834   -3228157.66349  -2490707.58046  22519800.3874   22519807.8274
       225.0004        174.0004
  24401301.9674   11737493.87749   9142436.01145  24401302.2304   24401310.7054
       208.0004        136.0004
  20356333.7554    -184710.89649   -132479.44547  20356333.3344   20356339.6824
       243.0004        210.0004
  23520150.0714  -14864028.46049 -10699979.53645  23520150.0194   23520155.1464
       219.0004        160.0004
  21626828.0074   -8084496.31949  -6271552.71946  21626827.9294   21626833.9034
       231.0004        185.0004
  23710597.6604   -8029949.85649  -6221653.08145  23710597.7954   23710605.0754
       215.0004        154.0004
 05  5 19 16 39  0.0000000  0  9G15G18G21G29G30G 6G22G26G16
  23023552.2154  -10098563.42649  -7840888.69045  23023551.2474   23023559.4264
       218.0004        161.0004
  21346291.5064  -10673035.89649  -8280529.68647  21346290.9604   21346296.6364
       239.0004        201.0004
  20976885.5884   -5773163.32349  -4485940.77347  20976884.9254   20976889.8664
       241.0004        204.0004
  22523091.1784   -3210868.37049  -2477235.39246  22523091.2384   22523097.2034
       225.0004        174.0004
  24420162.8744   11836608.17749   9219667.78745  24420163.8224   24420172.4964
       209.0004        136.0004
  20362927.0204    -150063.25749   -105481.30847  20362926.7894   20362932.9584
       243.0004        210.0004
  23502505.4014  -14956751.21049 -10772230.98445  23502504.2054   23502510.2324
       219.0004        160.0004
  21622007.9364   -8109825.71249  -6291289.87746  21622008.2254   21622013.9644
       231.0004        186.0004
  23705112.9314   -8058772.41449  -6244112.21945  23705112.1624   23705119.3074
       213.0004        154.0004
 05  5 19 16 39 30.0000000  0  9G15G18G21G29G30G 6G22G26G16
  23010589.3274  -10166683.96849  -7893969.60545  23010588.4014   23010596.0364
       219.0004        161.0004
  21335405.4074  -10730242.56849  -8325106.30347  21335404.8374   21335410.3074
       239.0004        201.0004
  20971615.1374   -5800859.66349  -4507522.32847  20971614.4834   20971619.4614
       241.0004        204.0004
  22526488.7974   -3193013.76749  -2463322.69246  22526488.9664   22526494.8914
       224.0004        174.0004
  24439009.4024   11935646.68249   9296840.48845  24439010.3954   24439018.5154
       210.0004        136.0004
  20369612.1474    -114932.71749    -78106.88647  20369612.0414   20369618.0474
       243.0004        210.0004
  23484905.3504  -15049239.74549 -10844299.91345  23484904.6194   23484911.2914
       218.0004        160.0004
  21617309.2634   -8134517.35149  -6310530.08846  21617308.7094   21617315.6664
       231.0004        186.0004
  23699726.6974   -8087077.42449  -6266168.07245  23699725.8514   23699733.0474
       216.0004        154.0004
 05  5 19 16 40  0.0000000  0  9G15G18G21G29G30G 6G22G26G16
  22997638.1234  -10234743.08749  -7947002.64645  22997636.7674   22997645.2334
       219.0004        161.0004
  21324594.2764  -10787055.44549  -8369376.05547  21324593.8414   21324598.9084
       239.0004        201.0004
  20966373.7424   -5828403.40549  -4528984.96947  20966373.0924   20966378.0834
       241.0004        204.0004
  22529993.9034   -3174594.39549  -2448969.91846  22529993.7204   22529999.7094
       224.0004        174.0004
  24457841.0594   12034606.66549   9373952.00045  24457841.4694   24457851.9324
       210.0004        137.0004
  20376389.1534     -79319.48049    -50356.33247  20376389.0594   20376395.1054
       243.0004        210.0004
  23467350.2254  -15141492.29749 -10916184.97745  23467349.9424   23467354.6134
       218.0004        160.0004
  21612732.2444   -8158569.47449  -6329271.97146  21612732.0774   21612739.0944
       231.0004        186.0004
  23694439.0854   -8114863.99149  -6287819.94245  23694439.8214   23694446.0694
       215.0004        154.0004
 05  5 19 16 40 30.0000000  0  9G15G18G21G29G30G 6G22G26G16
  22984698.5444  -10302740.63349  -7999987.70645  22984697.5154   22984705.6714
       219.0004        162.0004
  21313858.2044  -10843473.86149  -8413338.44147  21313857.6134   21313863.1114
       239.0004        202.0004
  20961161.4584   -5855794.17849  -4550328.41347  20961160.7204   20961165.7284
       241.0004        204.0004
  22533606.4234   -3155610.44249  -2434177.21246  22533606.1894   22533612.6294
       224.0004        174.0004
  24476657.2054   12133485.57549   9451000.35745  24476657.7024   24476666.2774
       212.0004        139.0004
  20383257.9274     -43223.79949    -22229.84747  20383257.6944   20383263.9474
       243.0004        210.0004
  23449840.1994  -15233507.77849 -10987885.30245  23449839.4844   23449845.4424
       218.0004        160.0004
  21608277.2814   -8181980.48449  -6347514.28546  21608277.3114   21608283.9454
       232.0004        186.0004
  23689250.1004   -8142132.26549  -6309067.93845  23689249.7244   23689257.3674
       215.0004        153.0004
 05  5 19 16 41  0.0000000  0  9G15G18G21G29G30G 6G22G26G16
  22971770.9174  -10370675.72249  -8052924.09745  22971770.3444   22971778.4474
       219.0004        162.0004
  21303197.3884  -10899496.77249  -8456992.64147  21303196.8744   21303202.3314
       239.0004        202.0004
  20955978.4424   -5883030.93949  -4571551.85047  20955977.8184   20955982.8714
       241.0004        204.0004
  22537326.4544   -3136061.42749  -2418944.19346  22537325.9844   22537333.5154
       225.0004        174.0004
  24495457.5944   12232281.56349   9527984.08145  24495457.1484   24495466.8484
       212.0004        140.0004
  20390218.6434      -6645.18149      6272.94847  20390218.3964   20390224.6014
       243.0004        210.0004
  23432375.6884  -15325284.14049 -11059399.30545  23432375.6444   23432380.3134
       219.0004        161.0004
  21603944.7294   -8204747.99349  -6365255.17646  21603944.5904   21603950.8464
       231.0004        186.0004
  23684160.0244   -8168880.50549  -6329910.72645  23684159.7874   23684166.7994
       214.0004        153.0004
 05  5 19 16 41 30.0000000  0  9G15G18G21G29G30G 6G22G26G16
  22958854.9934  -10438549.48049  -8105812.70045  22958854.4464   22958861.8634
       219.0004        162.0004
  21292611.7044  -10955124.89449  -8500339.21847  21292611.2024   21292616.6844
       240.0004        202.0004
  20950824.5494   -5910114.83449  -4592656.17647  20950823.7274   20950828.8734
       240.0004        204.0004
  22541153.7414   -3115948.87749  -2403272.06346  22541153.9744   22541159.8044
       225.0004        174.0004
  24514241.4644   12330990.83649   9604900.23845  24514242.3234   24514250.6864
       213.0004        142.0004
  20397271.0004      30415.15349     35151.10847  20397270.8034   20397277.0164
       243.0004        210.0004
  23414956.7844  -15416820.96449 -11130726.64745  23414956.1434   23414961.4234
       220.0004        161.0004
  21599734.7424   -8226871.63649  -6382494.35146  21599735.0254   21599741.0674
       232.0004        186.0004
  23679168.8014   -8195109.38849  -6350348.81045  23679167.5534   23679175.9904
       213.0004        153.0004
 05  5 19 16 42  0.0000000  0  9G15G18G21G29G30G 6G22G26G16
  22945950.8414  -10506361.31949  -8158653.05546  22945950.3594   22945957.7474
       220.0004        163.0004
  21282101.3724  -11010357.02649  -8543377.22847  21282100.9584   21282106.4314
       240.0004        202.0004
  20945699.9024   -5937044.92049  -4613640.64747  20945699.1944   20945704.1754
       241.0004        204.0004
  22545088.2414   -3095272.91449  -2387160.92146  22545087.4014   22545094.6694
       224.0004        174.0004
  24533008.4584   12429611.29149   9681747.17145  24533009.5414   24533018.3134
       214.0004        144.0004
  20404415.0104      67957.11449     64404.56547  20404414.6784   20404421.0914
       243.0004        210.0004
  23397583.8274  -15508116.40049 -11201865.90745  23397583.1704   23397589.0934
       220.0004        161.0004
  21595647.6244   -8248349.41349  -6399230.25746  21595647.8344   21595653.9174
       231.0004        186.0004
  23674276.4834   -8220818.57049  -6370381.93745  23674275.6304   23674283.8014
       214.0004        153.0004
 05  5 19 16 42 30.0000000  0  9G15G18G21G29G30G 6G22G26G16
  22933058.4874  -10574111.00749  -8211444.97946  22933056.9454   22933065.8174
       220.0004        163.0004
  21271666.6454  -11065191.94049  -8586105.71547  21271666.0224   21271671.3184
       240.0004        202.0004
  20940604.7114   -5963820.27949  -4634504.55247  20940604.0714   20940609.0174
       241.0004        204.0004
  22549129.9464   -3074033.41749  -2370610.64946  22549129.9824   22549135.7774
       224.0004        173.0004
  24551758.1174   12528140.61149   9758523.09745  24551758.2614   24551767.4994
       214.0004        146.0004
  20411650.6884     105980.82349     94033.40447  20411650.2294   20411656.5944
       243.0004        210.0004
  23380257.1204  -15599168.85949 -11272815.82145  23380256.4554   23380262.4884
       220.0004        162.0004
  21591683.7474   -8269179.56249  -6415461.52546  21591683.6484   21591689.8084
       232.0004        186.0004
  23669483.3084   -8246006.88849  -6390009.18945  23669482.5784   23669490.1654
       214.0004        153.0004
 05  5 19 16 43  0.0000000  0  9G15G18G21G29G30G 6G22G26G16
  22920177.8014  -10641799.35449  -8264189.10946  22920176.7824   22920184.4074
       220.0004        163.0004
  21261307.3694  -11119630.20349  -8628525.12147  21261306.7844   21261311.9634
       240.0004        202.0004
  20935538.8674   -5990441.48649  -4655248.34047  20935538.2084   20935542.9314
       241.0004        204.0004
  22553278.6534   -3052231.68649  -2353622.28146  22553277.8814   22553284.2684
       224.0004        173.0004
  24570489.8734   12626575.44349   9835225.39245  24570489.8044   24570499.4064
       213.0004        147.0004
  20418977.8124     144485.03449    124036.66747  20418977.5164   20418983.7244
       243.0004        210.0004
  23362976.7084  -15689977.81649 -11343576.00645  23362976.7184   23362982.4444
       221.0004        162.0004
  21587843.2444   -8289361.48449  -6431187.67446  21587842.8574   21587849.4354
       231.0004        186.0004
  23664789.1164   -8270675.00049  -6409231.09945  23664789.2374   23664795.9284
       214.0004        153.0004
 05  5 19 16 43 30.0000000  0  9G15G18G21G29G30G 6G22G26G16
  22907308.9364  -10709425.59949  -8316884.85346  22907307.6514   22907316.0744
       221.0004        163.0004
  21251023.7574  -11173670.79349  -8670634.65747  21251023.2734   21251028.6354
       239.0004        203.0004
  20930502.4974   -6016907.64949  -4675871.31447  20930501.7254   20930506.5964
       241.0004        204.0004
  22557534.4264   -3029867.48649  -2336195.62346  22557533.8844   22557541.3084
       224.0004        173.0004
  24589203.1664   12724913.90849   9911852.57945  24589203.9884   24589211.9784
       211.0004        148.0004
  20426396.4424     183470.13949    154414.65247  20426396.2104   20426402.3934
       243.0004        210.0004
  23345743.0314  -15780541.27149 -11414144.89345  23345743.1184   23345747.7434
       221.0004        162.0004
  21584126.4684   -8308893.21149  -6446407.17946  21584126.0304   21584132.9514
       231.0004        187.0004
  23660194.1564   -8294821.79949  -6428046.79245  23660193.3294   23660200.8714
       214.0004        153.0004
 05  5 19 16 44  0.0000000  0  9G15G18G21G29G30G 6G22G26G16
  22894452.0234  -10776989.03349  -8369531.63646  22894451.5914   22894459.9154
       221.0004        163.0004
  21240816.0464  -11227312.66949  -8712433.50147  21240815.4594   21240821.1554
       240.0004        203.0004
  20925495.8254   -6043217.87849  -4696372.78347  20925495.1014   20925500.0794
       241.0004        204.0004
  22561897.2254   -3006940.73049  -2318330.60746  22561897.0644   22561903.2224
       224.0004        173.0004
  24607897.8164   12823154.08849   9988403.20145  24607898.0574   24607907.8314
       211.0004        148.0004
  20433906.6184     222936.31249    185167.49347  20433906.2514   20433912.5874
       243.0004        210.0004
  23328556.4474  -15870857.18249 -11484520.88346  23328555.6874   23328562.0254
       221.0004        163.0004
  21580533.8574   -8327772.44649  -6461118.25646  21580533.6174   21580539.8684
       231.0004        187.0004
  23655698.5334   -8318446.34549  -6446455.52445  23655698.2714   23655705.5024
       214.0004        152.0004
 05  5 19 16 44 30.0000000  0  9G15G18G21G29G30G 6G22G26G16
  22881606.9014  -10844490.27749  -8422129.96846  22881605.1844   22881613.2214
       221.0004        164.0004
  21230684.2054  -11280555.85349  -8753921.67947  21230683.5844   21230689.0714
       240.0004        203.0004
  20920518.7124   -6069372.78449  -4716753.22247  20920518.0074   20920523.2084
       243.0004        204.0004
  22566366.8734   -2983452.58049  -2300028.16346  22566366.7294   22566372.9834
       223.0004        173.0004
  24626573.1134   12921292.71849  10064874.66745  24626573.6584   24626583.5794
       211.0004        148.0004
  20441508.1324     262882.52849    216294.39547  20441507.7894   20441514.1934
       243.0004        209.0004
  23311417.0624  -15960925.25549 -11554703.75046  23311416.3124   23311422.3954
       222.0004        164.0004
  21577065.4724   -8345998.69949  -6475320.51746  21577065.3194   21577071.8664
       231.0004        187.0004
  23651302.2814   -8341549.06849  -6464457.64645  23651301.7554   23651308.6674
       214.0004        152.0004
 05  5 19 16 45  0.0000000  0  9G15G18G21G29G30G 6G22G26G16
  22868773.6864  -10911929.00649  -8474679.58246  22868773.1384   22868780.6344
       221.0004        164.0004
  21220628.3584  -11333399.63049  -8795098.63247  21220627.8254   21220633.3394
       240.0004        203.0004
  20915571.3694   -6095371.31349  -4737011.80847  20915570.7124   20915575.7114
       243.0004        204.0004
  22570943.2354   -2959403.53749  -2281288.64846  22570943.0014   22570949.6004
       224.0004        173.0004
  24645228.5684   13019327.38749  10141265.11745  24645228.8734   24645238.0134
       209.0004        147.0004
  20449200.9604     303308.55949    247795.17247  20449200.8534   20449207.0694
       242.0004        209.0004
  23294325.1284  -16050743.60649 -11624692.01746  23294324.3354   23294330.0914
       222.0004        164.0004
  21573721.6954   -8363570.40349  -6489012.74246  21573721.8834   21573727.7694
       232.0004        187.0004
  23647005.3124   -8364129.59749  -6482052.84745  23647004.9494   23647012.6034
       215.0004        152.0004
 05  5 19 16 45 30.0000000  0  9G15G18G21G29G30G 6G22G26G16
  22855952.3654  -10979305.26849  -8527180.50646  22855951.2544   22855959.1804
       221.0004        164.0004
  21210648.6014  -11385843.54749  -8835963.99647  21210647.9744   21210653.4744
       240.0004        203.0004
  20910653.7494   -6121213.48049  -4757148.55547  20910653.0664   20910658.2074
       243.0004        205.0004
  22575626.2664   -2934794.05949  -2262112.43046  22575625.9394   22575632.0944
       223.0004        172.0004
  24663863.8754   13117255.55049  10217572.59445  24663865.0524   24663874.8874
       207.0004        146.0004
  20456985.0054     344213.89649    279669.44547  20456984.5744   20456991.1554
       243.0004        209.0004
  23277281.0274  -16140310.81549 -11694484.59846  23277279.9944   23277285.7334
       222.0004        164.0004
  21570502.7094   -8380486.24349  -6502193.90346  21570502.8324   21570509.1794
       232.0004        187.0004
  23642807.8324   -8386187.71049  -6499240.98645  23642807.3454   23642813.8474
       213.0004        152.0004
 05  5 19 16 46  0.0000000  0  9G15G18G21G29G30G 6G22G26G16
  22843142.9794  -11046619.19049  -8579632.88246  22843142.2324   22843149.7734
       222.0004        164.0004
  21200744.9514  -11437887.46949  -8876517.68647  21200744.3904   21200749.7594
       240.0004        203.0004
  20905765.9864   -6146898.79649  -4777163.08147  20905765.4304   20905770.3964
       243.0004        205.0004
  22580415.8124   -2909624.85349  -2242500.07146  22580415.6044   22580421.8854
       223.0004        172.0004
  24682478.4664   13215074.63649  10293795.04945  24682480.6644   24682486.5354
       202.0004        143.0004
  20464860.1504     385598.05749    311916.82247  20464859.8524   20464866.2714
       243.0004        209.0004
  23260284.9054  -16229625.90349 -11764080.70946  23260284.7304   23260289.9004
       222.0004        165.0004
  21567408.7454   -8396744.99249  -6514863.05046  21567408.8244   21567414.9164
       232.0004        187.0004
  23638709.7774   -8407723.24049  -6516021.91045  23638710.1124   23638716.2074
       213.0004        152.0004
 05  5 19 16 46 30.0000000  0  9G15G18G21G29G30G 6G22G26G16
  22830345.4544  -11113870.71749  -8632036.61746  22830344.6014   22830352.3584
       221.0004        164.0004
  21190917.4424  -11489531.33349  -8916759.63847  21190916.8044   21190922.3764
       240.0004        203.0004
  20900908.0804   -6172427.30449  -4797055.41647  20900907.4134   20900912.1724
       243.0004        205.0004
  22585311.7184   -2883896.51049  -2222452.02746  22585311.4544   22585317.4944
       223.0004        172.0004
  24701071.7134   13312782.08749  10369930.52445  24701071.9044   24701082.4204
       200.0004        140.0004
  20472826.3234     427460.35149    344536.76647  20472826.1174   20472832.3494
       242.0004        209.0004
  23243337.0144  -16318687.67349 -11833479.44346  23243336.5634   23243342.0214
       223.0004        165.0004
  21564440.0474   -8412345.63449  -6527019.38246  21564440.3694   21564446.2444
       231.0004        187.0004
  23634711.1824   -8428735.99149  -6532395.48245  23634710.5804   23634718.5334
       213.0004        152.0004
 05  5 19 16 47  0.0000000  0  9G15G18G21G29G30G 6G22G26G16
  22817559.8734  -11181059.34549  -8684391.34946  22817559.1724   22817567.2784
       221.0004        164.0004
  21181166.2574  -11540774.15949  -8956689.09247  21181165.6644   21181171.0824
       240.0004        204.0004
  20896080.1444   -6197798.12449  -4816824.88147  20896079.5554   20896084.5554
       243.0004        205.0004
  22590314.0144   -2857609.33249  -2201968.52046  22590313.5214   22590320.5764
       224.0004        172.0004
  24719643.0634   13410375.61649  10445977.19245  24719644.1064   24719652.6394
       199.0004        138.0004
  20480883.5064     469801.02049    377529.47447  20480883.3694   20480889.7194
       243.0004        209.0004
  23226437.6064  -16407494.49049 -11902679.49446  23226436.9324   23226442.7334
       222.0004        166.0004
  21561596.8994   -8427286.53749  -6538661.63746  21561596.9274   21561603.2804
       232.0004        187.0004
  23630812.1194   -8449225.52249  -6548361.35645  23630811.7794   23630819.0254
       214.0004        152.0004
 05  5 19 16 47 30.0000000  0  9G15G18G21G29G30G 6G22G26G16
  22804786.2154  -11248184.78949  -8736696.83846  22804785.6454   22804792.8364
       221.0004        164.0004
  21171491.4484  -11591615.43649  -8996305.64847  21171490.9124   21171496.1584
       240.0004        204.0004
  20891282.3304   -6223010.83849  -4836471.14047  20891281.6174   20891286.7144
       242.0004        205.0004
  22595422.5154   -2830764.03049  -2181050.11846  22595423.0644   22595429.5114
       223.0004        173.0004
  24738192.4384   13507852.76149  10521933.19145  24738193.8854   24738201.2244
       198.0004        136.0004
  20489031.5754     512619.37349    410894.40747  20489031.2494   20489037.6464
       242.0004        209.0004
  23209586.9464  -16496045.00149 -11971679.83046  23209585.8084   23209591.9794
       222.0004        166.0004
  21558879.4884   -8441566.59549  -6549788.94546  21558879.3684   21558885.5184
       232.0004        187.0004
  23627012.7194   -8469191.57149  -6563919.30845  23627012.8994   23627019.8364
       213.0004        152.0004
 05  5 19 16 48  0.0000000  0  9G15G18G21G29G30G 6G22G26G16
  22792024.4064  -11315248.47349  -8788954.21346  22792024.0804   22792031.3584
       221.0004        165.0004
  21161892.8994  -11642056.01149  -9035609.96747  21161892.6674   21161897.9934
       240.0004        204.0004
  20886514.3924   -6248066.56749  -4855995.07447  20886513.7474   20886518.7694
       242.0004        205.0004
  22600636.8584   -2803362.42049  -2159698.21546  22600636.3954   22600642.4524
       223.0004        172.0004
  24756719.1154   13605209.91549  10597795.71245  24756718.9604   24756728.2294
       200.0004        135.0004
  20497270.2414     555913.74049    444630.25547  20497269.9654   20497276.3434
       243.0004        209.0004
  23192785.0754  -16584339.23349 -12040480.46246  23192784.5994   23192789.6244
       222.0004        167.0004
  21556287.8484   -8455185.59249  -6560401.14446  21556287.6634   21556294.2774
       232.0004        187.0004
  23623312.6924   -8488635.14149  -6579070.13745  23623312.0514   23623319.6814
       212.0004        152.0004
 05  5 19 16 48 30.0000000  0  9G15G18G21G29G30G 6G22G26G16
  22779274.6184  -11382248.69649  -8841162.12646  22779273.8774   22779281.1944
       221.0004        165.0004
  21152371.0314  -11692093.77049  -9074600.40647  21152370.4494   21152375.9994
       240.0004        204.0004
  20881776.6964   -6272963.23849  -4875395.06947  20881776.0074   20881781.0404
       243.0004        205.0004
  22605957.2044   -2775403.77349  -2137912.25946  22605957.1424   22605963.5724
       223.0004        173.0004
  24775222.6314   13702446.14049  10673563.95945  24775222.4204   24775234.0234
       203.0004        136.0004
  20505599.6884     599685.15449    478737.82747  20505599.4294   20505605.7474
       242.0004        209.0004
  23176032.5154  -16672374.25449 -12109079.12146  23176031.3574   23176037.6564
       223.0004        167.0004
  21553822.5124   -8468141.03449  -6570496.28346  21553822.1694   21553828.6894
       232.0004        187.0004
  23619712.4854   -8507554.49249  -6593812.48745  23619711.4844   23619718.1034
       215.0004        152.0004
 05  5 19 16 49  0.0000000  0  9G15G18G21G29G30G 6G22G26G16
  22766536.9314  -11449185.41049  -8893320.57046  22766535.9654   22766543.8864
       222.0004        165.0004
  21142925.7874  -11741728.78649  -9113277.02147  21142925.3674   21142930.7234
       240.0004        204.0004
  20877069.3714   -6297700.51349  -4894670.85747  20877068.6964   20877073.9014
       242.0004        205.0004
  22611383.4404   -2746888.71349  -2115692.74246  22611383.3254   22611389.4474
       224.0004        173.0004
  24793702.7364   13799558.79049  10749235.95445  24793703.9964   24793713.0614
       203.0004        136.0004
  20514019.7464     643932.70849    513216.41947  20514019.4604   20514025.6394
       242.0004        209.0004
  23159329.4774  -16760148.92649 -12177474.89746  23159328.0314   23159334.4844
       222.0004        167.0004
  21551483.6404   -8480431.95949  -6580073.62146  21551483.5484   21551489.6054
       232.0004        187.0004
  23616211.9594   -8525950.02449  -6608146.65645  23616211.7374   23616218.3414
       213.0004        152.0004
 05  5 19 16 49 30.0000000  0  9G15G18G21G29G30G 6G22G26G16
  22753811.2914  -11516059.02649  -8945429.83846  22753810.2854   22753818.1774
       222.0004        165.0004
  21133557.1204  -11790961.28149  -9151639.98247  21133556.4334   21133562.0454
       240.0004        204.0004
  20872392.3134   -6322278.57149  -4913822.58147  20872391.6644   20872396.4914
       242.0004        205.0004
  22616915.3004   -2717818.79549  -2093040.86246  22616915.6654   22616921.1064
       224.0004        173.0004
  24812158.7014   13896544.91549  10824809.33945  24812159.1004   24812169.2834
       207.0004        134.0004
  20522530.2154     688655.46349    548065.30447  20522529.9684   20522536.2914
       242.0004        209.0004
  23142676.1034  -16847662.64849 -12245667.34846  23142675.4594   23142681.4174
       221.0004        167.0004
  21549271.3034   -8492057.75949  -6589132.67746  21549271.1104   21549276.9594
       232.0004        187.0004
  23612810.9634   -8543822.30149  -6622073.10545  23612810.8614   23612817.8624
       214.0004        152.0004
 05  5 19 16 50  0.0000000  0  9G15G18G21G29G30G 6G22G26G16
  22741097.6644  -11582868.95949  -8997489.48846  22741096.4474   22741104.5044
       221.0004        165.0004
  21124265.2234  -11839790.34949  -9189688.58247  21124264.6964   21124270.2244
       240.0004        204.0004
  20867745.8044   -6346696.04549  -4932849.17647  20867745.2114   20867749.9664
       242.0004        205.0004
  22622552.6984   -2688194.06349  -2069956.65846  22622552.6334   22622559.1314
       223.0004        173.0004
  24830590.3014   13993402.57049  10900282.62345  24830590.9104   24830599.7854
       208.0004        135.0004
  20531131.1054     733853.38049    583284.43647  20531131.0144   20531137.2014
       242.0004        208.0004
  23126072.6994  -16934913.50749 -12313654.96246  23126073.3134   23126077.8414
       221.0004        168.0004
  21547185.8364   -8503016.97749  -6597672.31746  21547185.8744   21547191.9504
       232.0004        187.0004
  23609509.7784   -8561170.26449  -6635590.99245  23609509.8764   23609516.8194
       213.0004        151.0004
 05  5 19 16 50 30.0000000  0  8G15G18G21G29G 6G22G26G16
  22728397.5924  -11649608.07149  -9049493.94446  22728396.6084   22728404.5034
       221.0004        165.0004
  21115051.5084  -11888208.80349  -9227417.22647  21115050.8444   21115056.2214
       240.0004        205.0004
  20863131.1364   -6370946.27349  -4951745.44547  20863130.5654   20863135.5164
       242.0004        205.0004
  22628296.8724   -2658008.51549  -2046435.45246  22628297.3764   22628302.5324
       224.0004        173.0004
  20539823.6214     779532.71949    618878.70247  20539823.4064   20539829.5474
       242.0004        208.0004
  23109520.8514  -17021893.68549 -12381431.65946  23109520.5724   23109526.3964
       222.0004        168.0004
  21545228.6994   -8513301.75449  -6605686.41346  21545228.6794   21545235.3564
       233.0004        187.0004
  23606309.6044   -8577987.02849  -6648694.96145  23606308.9324   23606315.8054
       214.0004        152.0004
 05  5 19 16 51  0.0000000  0  8G15G18G21G29G 6G22G26G16
  22715709.0174  -11716287.08849  -9101451.58246  22715707.8634   22715715.6554
       221.0004        166.0004
  21105913.9114  -11936227.06649  -9264834.02947  21105913.2904   21105918.7004
       240.0004        205.0004
  20858546.3814   -6395039.46249  -4970519.34747  20858545.5694   20858550.6074
       243.0004        205.0004
  22634145.5064   -2627273.84749  -2022486.36346  22634145.5774   22634151.4314
       223.0004        173.0004
  20548605.5324     825681.97549    654839.13547  20548605.2574   20548611.4684
       242.0004        208.0004
  23093018.6874  -17108612.70649 -12449004.85546  23093018.4964   23093023.9004
       223.0004        168.0004
  21543398.0374   -8522922.05249  -6613182.74046  21543397.7264   21543404.1344
       232.0004        187.0004
  23603208.4224   -8594283.76349  -6661393.70445  23603207.9694   23603215.4964
       214.0004        152.0004
 05  5 19 16 51 30.0000000  0  8G15G18G21G29G 6G22G26G16
  22703032.3704  -11782903.38849  -9153360.34846  22703032.1884   22703038.9644
       221.0004        166.0004
  21096852.9354  -11983842.63049  -9301937.04447  21096852.4234   21096857.7754
       240.0004        205.0004
  20853992.0044   -6418972.75549  -4989168.65647  20853991.2124   20853996.3984
       242.0004        205.0004
  22640098.9394   -2595988.25049  -1998107.97246  22640099.0664   22640105.2244
       223.0004        173.0004
  20557477.2524     872303.05449    691167.22547  20557476.9554   20557483.3804
       242.0004        208.0004
  23076567.0234  -17195066.72149 -12516371.55846  23076566.3064   23076572.1954
       223.0004        169.0004
  21541694.4474   -8531874.32849  -6620158.52946  21541694.2454   21541700.7414
       232.0004        187.0004
  23600206.7534   -8610057.64549  -6673685.03845  23600206.2074   23600212.9894
       214.0004        152.0004
 05  5 19 16 52  0.0000000  0  8G15G18G21G29G 6G22G26G16
  22690367.6824  -11849456.64649  -9205219.98746  22690366.7964   22690375.1104
       222.0004        166.0004
  21087868.7614  -12031054.72849  -9338725.66847  21087868.2734   21087873.7284
       241.0004        205.0004
  20849468.2294   -6442745.27049  -5007692.68347  20849467.4344   20849472.3704
       242.0004        205.0004
  22646157.1104   -2564152.40549  -1973300.82246  22646156.9724   22646163.6654
       222.0004        173.0004
  20566438.6964     919395.60849    727862.69447  20566438.5614   20566444.7684
       242.0004        208.0004
  23060166.0774  -17281254.14249 -12583530.52946  23060165.7994   23060170.7044
       223.0004        169.0004
  21540118.2344   -8540157.38649  -6626612.85146  21540118.2664   21540124.6794
       233.0004        187.0004
  23597304.5544   -8625308.65449  -6685568.93845  23597304.4564   23597311.0134
       213.0004        152.0004
 05  5 19 16 52 30.0000000  0  8G15G18G21G29G 6G22G26G16
  22677715.2764  -11915945.30449  -9257029.28346  22677714.5654   22677722.9594
       221.0004        166.0004
  21078961.6184  -12077862.24949  -9375199.04247  21078960.9894   21078966.5114
       241.0004        205.0004
  20844975.3604   -6466355.48749  -5026090.24447  20844974.7744   20844979.4474
       242.0004        205.0004
  22652320.0914   -2531765.87449  -1948064.56246  22652319.8354   22652326.8254
       223.0004        173.0004
  20575489.9384     966960.08549    764925.89847  20575489.6254   20575495.8064
       242.0004        208.0004
  23043816.2904  -17367172.68549 -12650479.98746  23043815.7784   23043821.2744
       224.0004        170.0004
  21538669.7524   -8547769.21749  -6632544.14146  21538669.4594   21538676.2544
       232.0004        187.0004
  23594502.1394   -8640035.65549  -6697044.51445  23594501.0974   23594508.8984
       213.0004        151.0004
 05  5 19 16 53  0.0000000  0  8G15G18G21G29G 6G22G26G16
  22665074.9454  -11982370.47049  -9308789.11646  22665074.2064   22665082.5294
       223.0004        167.0004
  21070131.3044  -12124265.72649  -9411357.57547  21070130.7224   21070136.0484
       241.0004        205.0004
  20840513.2754   -6489803.90549  -5044361.72647  20840512.8134   20840517.3124
       242.0004        205.0004
  22658587.4184   -2498830.75349  -1922400.84246  22658587.3864   22658593.8194
       222.0004        172.0004
  20584630.6664    1014994.84349    802355.54547  20584630.5674   20584636.9184
       242.0004        208.0004
  23027517.6854  -17452822.46949 -12717220.01446  23027517.1724   23027521.9454
       224.0004        170.0004
  21537348.9584   -8554709.95649  -6637952.50646  21537349.2334   21537355.2804
       233.0004        187.0004
  23591799.1734   -8654239.57049  -6708112.47345  23591798.5884   23591805.5504
       214.0004        152.0004
 05  5 19 16 53 30.0000000  0  8G15G18G21G29G 6G22G26G16
  22652446.9724  -12048730.65849  -9360498.31646  22652446.1084   22652454.0724
       222.0004        167.0004
  21061378.1894  -12170263.55149  -9447200.01547  21061377.5024   21061383.1334
       241.0004        205.0004
  20836082.2784   -6513088.94349  -5062505.89947  20836081.7314   20836086.5224
       242.0004        206.0004
  22664959.1794   -2465346.71249  -1896309.37946  22664958.6064   22664965.4054
       222.0004        172.0004
  20593860.9544    1063500.32749    840151.99547  20593860.8174   20593867.2484
       242.0004        208.0004
  23011270.6754  -17538200.90549 -12783748.61846  23011269.9494   23011276.1044
       225.0004        170.0004
  21536156.2714   -8560977.65449  -6642836.42046  21536156.3294   21536162.3484
       232.0004        187.0004
  23589195.9804   -8667919.55349  -6718772.18945  23589196.3294   23589202.3624
       213.0004        152.0004
 05  5 19 16 54  0.0000000  0  8G15G18G21G29G 6G22G26G16
  22639831.2174  -12115026.81049  -9412157.61446  22639829.6424   22639838.3034
       221.0004        167.0004
  21052702.0884  -12215856.80549  -9482727.20247  21052701.5084   21052706.9184
       241.0004        206.0004
  20831682.1854   -6536211.52749  -5080523.48447  20831681.5574   20831686.4874
       242.0004        206.0004
  22671435.0094   -2431315.99949  -1869791.94946  22671434.7824   22671441.0264
       223.0004        172.0004
  20603180.5174    1112474.68649    878313.81147  20603180.3754   20603186.5274
       242.0004        208.0004
  22995075.3194  -17623308.08749 -12850065.86446  22995074.7714   22995080.1084
       225.0004        171.0004
  21535091.5164   -8566573.00749  -6647196.43646  21535091.2574   21535097.4354
       232.0004        187.0004
  23586692.2234   -8681076.89949  -6729024.65245  23586691.8934   23586698.6874
       215.0004        152.0004
 05  5 19 16 54 30.0000000  0  8G15G18G21G29G 6G22G26G16
  22627227.7244  -12181258.06249  -9463766.33446  22627226.9674   22627234.9664
       224.0004        168.0004
  21044103.1044  -12261044.78549  -9517938.59547  21044102.5314   21044107.9724
       241.0004        206.0004
  20827313.2574   -6559170.35049  -5098413.46847  20827312.6224   20827317.6184
       241.0004        206.0004
  22678014.8454   -2396738.67449  -1842848.58846  22678014.5974   22678020.8144
       221.0004        171.0004
  20612589.2464    1161917.75049    916840.83747  20612589.0024   20612595.4834
       241.0004        208.0004
  22978931.9604  -17708141.98149 -12916170.16246  22978931.6074   22978937.4604
       224.0004        171.0004
  21534155.0314   -8571494.07249  -6651031.03646  21534155.3044   21534161.2154
       232.0004        187.0004
  23584288.0544   -8693710.88149  -6738869.29745  23584287.3784   23584294.6954
       213.0004        152.0004
 05  5 19 16 55  0.0000000  0  8G15G18G21G29G 6G22G26G16
  22614636.6414  -12247424.79049  -9515324.77246  22614636.4634   22614643.1544
       225.0004        168.0004
  21035581.1464  -12305827.77149  -9552834.40647  21035580.5114   21035585.9934
       242.0004        206.0004
  20822975.5054   -6581965.28249  -5116175.74347  20822974.8344   20822979.7644
       241.0004        206.0004
  22684698.3974   -2361616.31749  -1815480.52046  22684698.2004   22684704.4884
       222.0004        171.0004
  20622086.9704    1211828.46649    955732.27347  20622086.7864   20622093.2324
       242.0004        208.0004
  22962840.6724  -17792702.06749 -12982061.09746  22962840.7564   22962845.0524
       226.0004        171.0004
  21533346.9204   -8575740.88549  -6654340.23846  21533346.8544   21533353.5164
       232.0004        187.0004
  23581983.3164   -8705822.34349  -6748306.78845  23581982.3034   23581989.4594
       215.0004        152.0004
 05  5 19 16 55 30.0000000  0  8G15G18G21G29G 6G22G26G16
  22602058.1254  -12313525.24349  -9566831.57346  22602057.8614   22602065.8994
       223.0004        168.0004
  21027136.6714  -12350203.77349  -9587413.09247  21027136.0774   21027141.3914
       241.0004        206.0004
  20818669.3474   -6604594.28149  -5133808.71947  20818668.7364   20818673.4594
       242.0004        206.0004
  22691485.7794   -2325948.24349  -1787687.21746  22691485.0224   22691491.9124
       222.0004        171.0004
  20631673.8214    1262207.53849    994988.66247  20631673.4904   20631679.8984
       242.0004        208.0004
  22946802.0284  -17876985.45149 -13047736.42446  22946802.2794   22946807.1154
       225.0004        171.0004
  21532667.5214   -8579311.13949  -6657122.25246  21532667.2554   21532673.3014
       232.0004        187.0004
  23579778.3554   -8717409.64549  -6757335.83245  23579777.7204   23579784.5334
       214.0004        152.0004
 05  5 19 16 56  0.0000000  0  8G15G18G21G29G 6G22G26G16
  22589491.9814  -12379560.45849  -9618287.54846  22589491.0414   22589499.0144
       224.0004        169.0004
  21018769.3274  -12394174.34149  -9621675.85347  21018768.8394   21018774.1604
       242.0004        206.0004
  20814394.6084   -6627058.27149  -5151313.11647  20814393.7554   20814398.7324
       242.0004        206.0004
  22698376.5634   -2289737.08449  -1759470.74046  22698376.4414   22698382.6434
       222.0004        171.0004
  20641349.3484    1313052.71949   1034608.25147  20641349.1414   20641355.5024
       242.0004        207.0004
  22930815.9564  -17960992.64349 -13113196.54146  22930815.2174   22930820.5454
       225.0004        171.0004
  21532116.7114   -8582205.60449  -6659377.68246  21532116.7464   21532122.9634
       233.0004        187.0004
  23577672.7174   -8728474.38749  -6765957.69345  23577672.5474   23577679.2094
       214.0004        152.0004
 05  5 19 16 56 30.0000000  0  8G15G18G21G29G 6G22G26G16
  22576938.4334  -12445529.77749  -9669692.16346  22576937.6514   22576944.9664
       224.0004        169.0004
  21010479.3434  -12437738.49849  -9655621.93047  21010478.6184   21010484.1544
       242.0004        207.0004
  20810151.4474   -6649356.15249  -5168688.07347  20810150.7924   20810155.6074
       241.0004        206.0004
  22705370.6314   -2252983.17249  -1730831.34946  22705370.5694   22705376.8094
       222.0004        171.0004
  20651113.5544    1364363.86349   1074590.93447  20651113.4424   20651119.7144
       241.0004        207.0004
  22914882.7654  -18044721.93549 -13178440.11146  22914882.7174   22914887.6584
       225.0004        171.0004
  21531694.7384   -8584423.05549  -6661105.56346  21531694.8784   21531701.0724
       233.0004        187.0004
  23575666.6324   -8739016.54149  -6774172.33045  23575665.8264   23575672.9854
       214.0004        152.0004
 05  5 19 16 57  0.0000000  0  8G15G18G21G29G 6G22G26G16
  22564397.4304  -12511432.94949  -9721045.25346  22564396.3134   22564404.4494
       225.0004        170.0004
  21002266.6554  -12480896.32249  -9689251.38947  21002266.1344   21002271.3224
       242.0004        207.0004
  20805939.9104   -6671487.90149  -5185933.58347  20805939.1884   20805943.8814
       241.0004        206.0004
  22712467.7644   -2215687.62249  -1701769.89446  22712467.6164   22712474.0704
       223.0004        172.0004
  20660966.2624    1416140.03649   1114935.96947  20660965.8514   20660972.2794
       241.0004        207.0004
  22899002.6244  -18128172.30949 -13243466.34746  22899003.6704   22899006.5634
       225.0004        171.0004
  21531401.7084   -8585963.13849  -6662305.63046  21531401.8014   21531407.5724
       232.0004        187.0004
  23573759.8824   -8749036.43549  -6781980.02545  23573760.1954   23573766.8804
       215.0004        152.0004
 05  5 19 16 57 30.0000000  0  8G15G18G21G29G 6G22G26G16
  22551868.9324  -12577270.65449  -9772347.31946  22551868.0174   22551876.1364
       225.0004        170.0004
  20994131.2494  -12523648.15349  -9722564.48647  20994130.6364   20994136.0914
       242.0004        207.0004
  20801759.9614   -6693453.67449  -5203049.75347  20801759.1524   20801764.1354
       241.0004        206.0004
  22719667.5494   -2177852.50249  -1672288.00246  22719667.4024   22719673.7824
       223.0004        172.0004
  20670907.1484    1468379.64949   1155642.13047  20670906.9694   20670913.1204
       241.0004        207.0004
  22883175.6734  -18211343.22449 -13308274.81146  22883174.9884   22883179.6554
       225.0004        171.0004
  21531237.5024   -8586826.10049  -6662978.06446  21531237.0954   21531243.6784
       232.0004        187.0004
  23571952.3604   -8758535.07849  -6789381.55445  23571951.6974   23571958.9024
       215.0004        152.0004
 05  5 19 16 58  0.0000000  0  8G15G18G21G29G 6G22G26G16
  22539353.2284  -12643041.01249  -9823596.90146  22539352.8514   22539360.2774
       225.0004        170.0004
  20986073.3074  -12565992.80649  -9755560.30247  20986072.6944   20986078.0494
       242.0004        207.0004
  20797612.0614   -6715251.01749  -5220034.68847  20797611.4934   20797616.3644
       242.0004        206.0004
  22726970.1734   -2139477.08449  -1642385.08946  22726970.1664   22726976.1204
       224.0004        172.0004
  20680936.3774    1521083.35749   1196709.91947  20680936.0764   20680942.4284
       242.0004        207.0004
  22867402.4554  -18294231.97849 -13372863.43046  22867401.9774   22867407.5154
       226.0004        172.0004
  21531202.5564   -8587009.50149  -6663120.97046  21531202.2894   21531208.2084
       232.0004        187.0004
  23570244.2374   -8767511.01949  -6796375.78245  23570244.6494   23570250.7794
       214.0004        152.0004
 05  5 19 16 58 30.0000000  0  8G15G18G21G29G 6G22G26G16
  22526850.1054  -12708745.06149  -9874794.82046  22526849.0774   22526857.1594
       224.0004        170.0004
  20978092.7224  -12607931.15849  -9788239.52147  20978092.0094   20978097.2634
       241.0004        207.0004
  20793496.0604   -6736880.73149  -5236888.99647  20793495.3134   20793500.5274
       241.0004        206.0004
  22734375.1074   -2100564.16449  -1612063.36046  22734375.0104   22734381.5344
       224.0004        172.0004
  20691053.5144    1574249.11849   1238137.75147  20691053.1424   20691059.7444
       241.0004        207.0004
  22851682.8494  -18376839.02349 -13437232.52246  22851682.8694   22851687.8374
       225.0004        172.0004
  21531296.7454   -8586514.46649  -6662735.23146  21531296.4244   21531303.4604
       232.0004        187.0004
  23568635.3224   -8775965.85849  -6802963.95945  23568634.2544   23568641.4574
       215.0004        153.0004
 05  5 19 16 59  0.0000000  0  8G15G18G21G29G 6G22G26G16
  22514359.4534  -12774383.58849  -9925941.68946  22514358.9144   22514365.3804
       226.0004        171.0004
  20970189.2924  -12649463.93849  -9820602.71247  20970188.4914   20970193.9254
       242.0004        207.0004
  20789411.8054   -6758343.62149  -5253613.31147  20789411.2404   20789416.0934
       241.0004        206.0004
  22741881.9824   -2061115.54149  -1581324.18046  22741881.9934   22741888.2554
       224.0004        172.0004
  20701258.1574    1627874.84749   1279924.00547  20701257.8074   20701264.5144
       241.0004        206.0004
  22836016.8784  -18459164.30449 -13501382.04946  22836016.9144   22836021.8244
       226.0004        172.0004
  21531519.9464   -8585341.42849  -6661821.17146  21531519.7694   21531526.5464
       232.0004        187.0004
  23567125.3154   -8783901.13649  -6809147.28745  23567124.9494   23567131.5604
       214.0004        153.0004
 05  5 19 16 59 30.0000000  0  8G15G18G21G29G 6G22G26G16
  22501881.7594  -12839954.05049  -9977035.52246  22501881.1024   22501888.4424
       225.0004        171.0004
  20962363.4014  -12690589.24949  -9852648.39747  20962362.7684   20962368.0934
       241.0004        207.0004
  20785359.8364   -6779636.70249  -5270205.31247  20785359.0354   20785364.0434
       241.0004        206.0004
  22749490.9174   -2021130.35949  -1550166.90446  22749490.7254   22749496.7364
       224.0004        172.0004
  20711550.6574    1681962.13849   1322069.90747  20711550.3724   20711556.7704
       241.0004        206.0004
  22820405.2524  -18541204.11549 -13565309.14846  22820404.8324   22820409.2664
       225.0004        173.0004
  21531872.6754   -8583487.76349  -6660376.75746  21531872.6554   21531878.4244
       232.0004        187.0004
  23565714.5474   -8791314.73749  -6814924.10845  23565714.5154   23565721.9494
       215.0004        152.0004
 05  5 19 17  0  0.0000000  0  8G15G18G21G29G 6G22G26G16
  22489416.8644  -12905457.44149 -10028077.09146  22489415.4624   22489423.7554
       226.0004        171.0004
  20954614.8944  -12731307.89349  -9884377.19447  20954614.3024   20954619.5524
       241.0004        207.0004
  20781340.1024   -6800760.49749  -5286665.39747  20781339.4184   20781344.2124
       241.0004        206.0004
  22757201.5434   -1980610.69149  -1518593.15346  22757201.2374   22757207.0714
       223.0004        172.0004
  20721930.5524    1736508.88049   1364573.82747  20721930.3864   20721936.9074
       241.0004        206.0004
  22804847.8494  -18622958.73249 -13629014.00846  22804847.6724   22804852.6814
       226.0004        173.0004
  21532354.8464   -8580954.05449  -6658402.43246  21532354.5114   21532361.1704
       232.0004        187.0004
  23564402.7524   -8798208.36749  -6820295.76145  23564402.2644   23564408.9284
       214.0004        152.0004
 05  5 19 17  0 30.0000000  0  8G15G18G21G29G 6G22G26G16
  22476964.7984  -12970893.19249 -10079065.96146  22476963.2524   22476971.8294
       225.0004        171.0004
  20946943.7014  -12771620.12549  -9915789.31147  20946942.8834   20946948.3084
       240.0004        207.0004
  20777352.8314   -6821713.79049  -5302992.62847  20777352.3284   20777356.9504
       242.0004        206.0004
  22765013.7274   -1939557.60849  -1486603.76146  22765013.6494   22765020.4264
       224.0004        172.0004
  20732397.7864    1791514.34049   1407435.19247  20732397.4604   20732404.1204
       241.0004        206.0004
  22789344.9864  -18704426.66849 -13692495.47346  22789344.0254   22789349.5304
       226.0004        174.0004
  21532966.4814   -8577739.97349  -6655897.96046  21532966.2084   21532972.7154
       232.0004        187.0004
  23563189.8664   -8804582.00849  -6825262.21745  23563189.3334   23563196.7404
       215.0004        152.0004
 05  5 19 17  1  0.0000000  0  8G15G18G21G29G 6G22G26G16
  22464525.3824  -13036262.59549 -10130003.12046  22464524.6234   22464531.9164
       225.0004        172.0004
  20939349.6634  -12811526.97049  -9946885.53847  20939349.1404   20939354.4594
       240.0004        207.0004
  20773397.7174   -6842498.03449  -5319188.12847  20773397.1364   20773401.9594
       242.0004        206.0004
  22772926.7974   -1897974.17549  -1454201.09346  22772926.7314   22772932.7914
       223.0004        171.0004
  20742951.7844    1846975.94049   1450651.99447  20742951.4744   20742958.1984
       241.0004        205.0004
  22773896.4714  -18785608.93349 -13755754.33746  22773896.6194   22773901.3194
       227.0004        174.0004
  21533707.3844   -8573846.46649  -6652864.05346  21533707.4154   21533713.6374
       232.0004        187.0004
  23562075.5034   -8810437.89149  -6829825.22845  23562074.5854   23562081.6404
       214.0004        153.0004
 05  5 19 17  1 30.0000000  0  8G15G18G21G29G 6G22G26G16
  22452099.2384  -13101562.55149 -10180886.17946  22452098.1964   22452105.7804
       225.0004        172.0004
  20931833.3524  -12851025.42149  -9977663.54047  20931832.9844   20931838.2084
       240.0004        207.0004
  20769475.3964   -6863109.86249  -5335249.28047  20769474.7124   20769479.7234
       241.0004        206.0004
  22780941.1364   -1855858.40849  -1421383.63546  22780940.0334   22780947.7614
       223.0004        171.0004
  20753592.9494    1902895.55449   1494225.68247  20753592.7874   20753599.4104
       241.0004        205.0004
  22758503.0824  -18866501.39149 -13818787.38446  22758502.3974   22758507.7954
       226.0004        175.0004
  21534578.1274   -8569270.77949  -6649298.58546  21534578.0724   21534584.6064
       233.0004        187.0004
  23561060.1484   -8815773.63049  -6833982.94345  23561059.3384   23561066.1454
       215.0004        152.0004
 05  5 19 17  2  0.0000000  0  8G15G18G21G29G 6G22G26G16
  22439686.0094  -13166794.39949 -10231716.14446  22439685.2294   22439693.0304
       225.0004        172.0004
  20924394.3544  -12890117.54949 -10008124.92047  20924393.5744   20924399.1774
       240.0004        207.0004
  20765585.6674   -6883550.51849  -5351177.04947  20765584.8754   20765589.7364
       241.0004        206.0004
  22789056.1624   -1813213.59549  -1388153.92846  22789055.3254   22789062.4414
       222.0004        170.0004
  20764320.7934    1959270.60749   1538154.26947  20764320.6204   20764327.1824
       240.0004        205.0004
  22743164.6864  -18947104.75049 -13881595.14146  22743164.0554   22743169.8264
       227.0004        175.0004
  21535578.4494   -8564014.06249  -6645202.43946  21535578.2394   21535584.7624
       232.0004        187.0004
  23560143.4424   -8820591.18849  -6837736.88845  23560142.4234   23560150.6864
       215.0004        152.0004
 05  5 19 17  2 30.0000000  0  8G15G18G21G29G 6G22G26G16
  22427285.8704  -13231957.43549 -10282492.51346  22427284.9744   22427292.2614
       225.0004        172.0004
  20917032.9014  -12928802.11549 -10038268.72647  20917032.1704   20917037.4914
       240.0004        207.0004
  20761728.7394   -6903818.76349  -5366970.48047  20761727.9554   20761732.9724
       242.0004        206.0004
  22797271.7234   -1770040.46049  -1354512.54446  22797271.3774   22797278.1554
       222.0004        170.0004
  20775135.1954    2016100.50649   1582437.26947  20775134.9134   20775141.4414
       240.0004        205.0004
  22727881.6394  -19027417.35349 -13944176.34746  22727881.1454   22727885.8204
       228.0004        175.0004
  21536708.5144   -8558075.63149  -6640575.09247  21536708.4274   21536714.5044
       233.0004        188.0004
  23559325.2944   -8824890.52049  -6841087.01145  23559323.6604   23559332.3274
       215.0004        152.0004
 05  5 19 17  3  0.0000000  0  8G15G18G21G29G 6G22G26G16
  22414898.9184  -13297051.36349 -10333215.02146  22414897.4894   22414905.4674
       225.0004        172.0004
  20909748.8434  -12967080.08549 -10068095.70247  20909748.2924   20909753.5894
       241.0004        208.0004
  20757904.7614   -6923913.91949  -5382629.03547  20757904.1024   20757908.7354
       242.0004        206.0004
  22805587.5964   -1726340.27849  -1320460.47846  22805588.2804   22805594.4004
       222.0004        170.0004
  20786035.9664    2073384.37349   1627074.02147  20786035.6674   20786042.1644
       240.0004        205.0004
  22712654.1084  -19107438.39149 -14006530.35646  22712653.6374   22712659.0304
       227.0004        176.0004
  21537968.3394   -8551455.32149  -6635416.41247  21537968.0354   21537974.5624
       232.0004        188.0004
  23558605.6314   -8828672.29549  -6844033.84245  23558605.5074   23558611.9954
       214.0004        152.0004
 05  5 19 17  3 30.0000000  0  8G15G18G21G29G 6G22G26G16
  22402524.9314  -13362077.08549 -10383884.38246  22402523.1964   22402531.5664
       225.0004        172.0004
  20902541.9794  -13004952.42349 -10097606.60047  20902541.2524   20902546.6554
       241.0004        208.0004
  20754113.5354   -6943836.86149  -5398153.39447  20754112.9274   20754117.4464
       242.0004        206.0004
  22814003.3014   -1682115.58149  -1285999.69646  22814003.3644   22814010.1194
       223.0004        170.0004
  20797022.6464    2131119.63849   1672062.51247  20797022.5214   20797028.9654
       241.0004        205.0004
  22697482.1114  -19187167.86649 -14068657.17446  22697481.6504   22697487.4714
       228.0004        176.0004
  21539357.6644   -8544154.33649  -6629727.33247  21539357.7234   21539363.9244
       233.0004        188.0004
  23557984.1164   -8831938.42749  -6846578.87645  23557983.6474   23557991.3604
       215.0004        153.0004
 05  5 19 17  4  0.0000000  0  8G15G18G21G29G 6G22G26G16
  22390164.2214  -13427032.64049 -10434499.06646  22390163.7424   22390170.8864
       225.0004        172.0004
  20895412.5564  -13042417.67649 -10126800.28947  20895412.0674   20895417.1554
       240.0004        208.0004
  20750355.5494   -6963585.14849  -5413541.66547  20750354.9084   20750359.5304
       242.0004        206.0004
  22822518.8614   -1637366.30749  -1251130.14946  22822518.8194   22822525.2744
       222.0004        170.0004
  20808095.3564    2189306.96749   1717403.26247  20808095.0564   20808101.6964
       240.0004        204.0004
  22682366.0614  -19266603.44249 -14130554.98846  22682365.9054   22682370.9284
       229.0004        177.0004
  21540876.8664   -8536170.96749  -6623506.52947  21540877.0114   21540883.4694
       232.0004        188.0004
  23557460.9444   -8834687.95449  -6848721.36945  23557459.9104   23557467.1224
       215.0004        153.0004
 05  5 19 17  4 30.0000000  0  8G15G18G21G29G 6G22G26G16
  22377816.8394  -13491918.60349 -10485059.51446  22377815.9504   22377823.6694
       225.0004        173.0004
  20888360.5164  -13079476.40249 -10155677.21047  20888360.1094   20888365.1954
       241.0004        208.0004
  20746630.7984   -6983158.92049  -5428793.94547  20746630.0774   20746634.8444
       241.0004        206.0004
  22831133.8244   -1592094.46449  -1215853.40846  22831133.2054   22831140.4714
       222.0004        171.0004
  20819253.7394    2247944.53749   1763094.84547  20819253.3314   20819259.9974
       240.0004        204.0004
  22667305.9934  -19345744.78549 -14192223.51346  22667305.5914   22667310.6924
       229.0004        177.0004
  21542525.8134   -8527505.77749  -6616754.43447  21542525.6604   21542531.8554
       232.0004        188.0004
  23557035.8094   -8836922.00049  -6850462.16845  23557035.0444   23557042.4504
       217.0004        153.0004
 05  5 19 17  5  0.0000000  0  8G15G18G21G29G 6G22G26G16
  22365482.7824  -13556734.29149 -10535565.20946  22365481.2304   22365490.1964
       225.0004        173.0004
  20881385.8624  -13116128.35749 -10184237.15947  20881385.2884   20881390.6324
       240.0004        208.0004
  20742939.3214   -7002557.65249  -5443909.83447  20742938.7024   20742943.5744
       241.0004        206.0004
  22839847.9994   -1546301.24349  -1180170.40046  22839847.4534   22839854.2674
       222.0004        170.0004
  20830497.6454    2307031.51749   1809136.62747  20830497.4674   20830504.1664
       240.0004        204.0004
  22652302.0824  -19424590.71849 -14253661.86046  22652301.7284   22652306.4304
       230.0004        177.0004
  21544304.5364   -8518158.45049  -6609470.80847  21544304.5984   21544310.8204
       233.0004        188.0004
  23556708.7254   -8838640.85849  -6851801.53445  23556708.3604   23556715.4764
       215.0004        153.0004
 05  5 19 17  5 30.0000000  0  8G15G18G21G29G 6G22G26G16
  22353162.1484  -13621479.36249 -10586015.87746  22353161.1694   22353168.3244
       226.0004        173.0004
  20874488.6034  -13152373.77249 -10212480.32547  20874488.1734   20874493.3414
       241.0004        208.0004
  20739281.2564   -7021780.88949  -5458888.97447  20739280.5754   20739285.5254
       241.0004        206.0004
  22848661.1714   -1499987.97149  -1144082.15346  22848660.4524   22848667.3194
       223.0004        170.0004
  20841826.8554    2366566.90849   1855527.81347  20841826.6844   20841833.2204
       240.0004        204.0004
  22637354.5324  -19503140.49049 -14314869.43846  22637353.9864   22637359.4794
       230.0004        178.0004
  21546213.1014   -8508128.94549  -6601655.60647  21546213.1374   21546219.3024
       233.0004        188.0004
  23556479.4794   -8839845.56449  -6852740.27545  23556478.8694   23556486.3084
       214.0004        153.0004
 05  5 19 17  6  0.0000000  0  8G15G18G21G29G 6G22G26G16
  22340854.9474  -13686153.93549 -10636411.62946  22340853.4594   22340861.5894
       225.0004        173.0004
  20867668.5574  -13188213.28349 -10240407.20447  20867667.9844   20867673.2504
       241.0004        208.0004
  20735656.8084   -7040827.39349  -5473730.40747  20735656.1744   20735661.0624
       241.0004        206.0004
  22857572.8444   -1453156.65749  -1107590.24046  22857572.9224   22857579.7644
       223.0004        170.0004
  20853241.1134    2426549.10349   1902267.15847  20853240.8024   20853247.4964
       240.0004        204.0004
  22622463.4364  -19581393.39449 -14375845.69046  22622463.2054   22622468.3724
       230.0004        178.0004
  21548251.3544   -8497417.75349  -6593309.22747  21548251.2764   21548257.6684
       232.0004        188.0004
  23556347.9054   -8840536.84949  -6853278.95145  23556347.4104   23556354.6334
       215.0004        153.0004
 05  5 19 17  6 30.0000000  0  8G15G18G21G29G 6G22G26G16
  22328561.4354  -13750756.79949 -10686751.49246  22328560.6194   22328568.1364
       226.0004        173.0004
  20860925.8424  -13223646.41949 -10268017.42747  20860925.3524   20860930.5634
       240.0004        208.0004
  20732066.1434   -7059696.47249  -5488433.58447  20732065.5604   20732070.4924
       241.0004        206.0004
  22866583.0424   -1405807.90149  -1070695.12946  22866583.2144   22866589.0144
       222.0004        170.0004
  20864740.2934    2486977.51849   1949354.20647  20864739.8214   20864746.8334
       240.0004        204.0004
  22607629.1374  -19659347.74949 -14436589.29246  22607628.9044   22607633.2374
       228.0004        178.0004
  21550419.4644   -8486024.15949  -6584431.11047  21550419.6754   21550425.9334
       232.0004        188.0004
  23556314.1384   -8840714.34849  -6853417.26245  23556314.6434   23556321.3424
       214.0004        153.0004
 05  5 19 17  7  0.0000000  0  8G15G18G21G29G 6G22G26G16
  22316281.4534  -13815288.41949 -10737035.84846  22316279.4714   22316288.7904
       225.0004        173.0004
  20854260.4054  -13258673.52849 -10295311.26747  20854259.6164   20854264.9564
       240.0004        208.0004
  20728509.2444   -7078388.04749  -5502998.45147  20728508.6424   20728513.5314
       241.0004        206.0004
  22875691.2504   -1357944.06349  -1033398.65246  22875691.2384   22875697.0014
       221.0004        169.0004
  20876324.0664    2547850.52149   1996787.68447  20876323.7124   20876330.4634
       240.0004        204.0004
  22592851.7274  -19737003.30049 -14497100.07646  22592851.2354   22592856.3514
       228.0004        178.0004
  21552717.3124   -8473948.85149  -6575021.78847  21552717.2244   21552723.6504
       233.0004        188.0004
  23556377.8294   -8840380.00449  -6853156.74245  23556376.9104   23556383.8944
       214.0004        153.0004
 05  5 19 17  7 30.0000000  0  8G15G18G21G29G 6G22G26G16
  22304015.2434  -13879747.86449 -10787263.95646  22304013.8534   22304021.6594
       226.0004        174.0004
  20847672.1874  -13293294.65349 -10322288.75047  20847671.5874   20847676.9154
       241.0004        208.0004
  20724986.2694   -7096901.42849  -5517424.45847  20724985.4514   20724990.4934
       241.0004        206.0004
  22884897.2664   -1309565.97249   -995701.46346  22884897.3854   22884903.7694
       221.0004        169.0004
  20887992.2884    2609167.28749   2044566.96147  20887991.9044   20887998.6884
       240.0004        203.0004
  22578131.4184  -19814358.78349 -14557377.03446  22578130.3764   22578135.7114
       228.0004        178.0004
  21555144.8964   -8461191.74749  -6565081.18846  21555145.0644   21555151.7824
       233.0004        187.0004
  23556538.7924   -8839534.08349  -6852497.59645  23556537.8684   23556545.3264
       216.0004        153.0004
 05  5 19 17  8  0.0000000  0  8G15G18G21G29G 6G22G26G16
  22291762.6524  -13944135.89149 -10837436.42546  22291761.4554   22291768.9334
       226.0004        174.0004
  20841161.0264  -13327510.94049 -10348950.78347  20841160.4854   20841165.8364
       240.0004        208.0004
  20721497.1854   -7115236.58049  -5531711.59147  20721496.4074   20721501.2074
       241.0004        206.0004
  22894200.7244   -1260676.15349   -957605.52346  22894200.3654   22894207.2784
       222.0004        169.0004
  20899744.5524    2670925.71949   2092690.38447  20899744.0984   20899751.0064
       239.0004        203.0004
  22563468.2744  -19891414.05949 -14617420.07546  22563467.5264   22563472.8624
       229.0004        178.0004
  21557702.0884   -8447753.69549  -6554609.98946  21557701.8444   21557708.1484
       233.0004        187.0004
  23556796.8584   -8838178.11449  -6851440.99145  23556796.4094   23556803.8454
       215.0004        153.0004
 05  5 19 17  8 30.0000000  0  8G15G18G21G29G 6G22G26G16
  22279523.6724  -14008451.77749 -10887552.66746  22279522.5774   22279530.6474
       226.0004        174.0004
  20834726.9834  -13361322.13449 -10375297.15647  20834726.3994   20834731.5474
       241.0004        208.0004
  20718042.2184   -7133392.63349  -5545859.16447  20718041.7784   20718046.5604
       241.0004        206.0004
  22903601.2874   -1211275.92349   -919111.86246  22903601.0474   22903607.2994
       221.0004        169.0004
  20911580.6644    2733124.88349   2141157.23947  20911580.4444   20911587.2024
       239.0004        203.0004
  22548862.4554  -19968168.18749 -14677228.44546  22548862.2084   22548866.8304
       229.0004        178.0004
  21560388.8324   -8433634.70649  -6543608.18246  21560388.7634   21560395.2594
       232.0004        187.0004
  23557151.8684   -8836312.50249  -6849987.27745  23557150.9144   23557158.1434
       216.0004        153.0004
 05  5 19 17  9  0.0000000  0  8G15G18G21G29G 6G22G26G16
  22267298.5344  -14072694.99149 -10937612.28946  22267297.5214   22267304.8334
       226.0004        174.0004
  20828370.0274  -13394727.99549 -10401327.68447  20828369.5104   20828374.4374
       240.0004        209.0004
  20714621.3514   -7151369.45049  -5559867.07647  20714620.6964   20714625.5294
       241.0004        206.0004
  22913098.7414   -1161366.48749   -880221.42446  22913098.4424   22913105.2554
       222.0004        168.0004
  20923500.4674    2795763.82049   2189966.77147  20923500.2524   20923506.8074
       239.0004        203.0004
  22534314.1174  -20044619.97649 -14736801.22346  22534313.6694   22534319.0034
       229.0004        178.0004
  21563205.1914   -8418834.82349  -6532075.81646  21563205.2844   21563211.5934
       232.0004        187.0004
  23557603.7344   -8833937.94849  -6848136.97445  23557602.8514   23557609.4904
       215.0004        153.0004
 05  5 19 17  9 30.0000000  0  8G15G18G21G29G 6G22G26G16
  22255087.3684  -14136865.15549 -10987614.98546  22255086.7344   22255094.5214
       227.0004        175.0004
  20822090.1394  -13427729.05449 -10427042.78347  20822089.5474   20822094.8784
       240.0004        209.0004
  20711234.9984   -7169164.91749  -5573733.67247  20711234.2414   20711239.1704
       241.0004        206.0004
  22922692.7574   -1110949.56749   -840935.53946  22922692.3404   22922699.5134
       221.0004        168.0004
  20935503.7154    2858841.23849   2239117.98047  20935503.5524   20935510.1344
       240.0004        203.0004
  22519823.4684  -20120768.70949 -14796137.86046  22519823.3814   22519827.9054
       229.0004        179.0004
  21566151.0684   -8403354.14449  -6520012.95746  21566151.3444   21566157.2314
       232.0004        187.0004
  23558152.2314   -8831055.31549  -6845890.77745  23558150.9614   23558157.7124
       216.0004        152.0004
 05  5 19 17 10  0.0000000  0  8G15G18G21G29G 6G22G26G16
  22242890.2564  -14200961.57349 -11037560.23346  22242889.8884   22242897.4064
       226.0004        175.0004
  20815887.2974  -13460325.18649 -10452442.35847  20815886.7214   20815891.8924
       240.0004        209.0004
  20707883.2464   -7186778.51449  -5587458.55447  20707882.4714   20707887.3574
       242.0004        206.0004
  22932383.1194   -1060026.57149   -801255.30046  22932382.6524   22932389.1054
       221.0004        168.0004
  20947590.2604    2922356.16349   2288610.10647  20947589.9854   20947596.4324
       239.0004        202.0004
  22505390.6684  -20196613.11849 -14855237.36846  22505390.2934   22505394.9374
       229.0004        179.0004
  21569226.5044   -8387192.76149  -6507419.68046  21569226.7054   21569232.4134
       233.0004        187.0004
  23558797.4054   -8827665.16149  -6843249.10745  23558796.4754   23558803.8174
       216.0004        153.0004
 05  5 19 17 10 30.0000000  0  8G15G18G21G29G 6G22G26G16
  22230707.0894  -14264984.16149 -11087447.93046  22230706.7124   22230713.4654
       227.0004        175.0004
  20809761.4114  -13492516.87149 -10477526.78047  20809760.8224   20809766.0594
       240.0004        209.0004
  20704566.0704   -7204210.31349  -5601041.77547  20704565.3884   20704570.2284
       241.0004        206.0004
  22942169.4374   -1008599.23249   -761182.07346  22942169.2574   22942175.9024
       221.0004        167.0004
  20959759.6644    2986306.86349   2338441.79247  20959759.7004   20959765.9024
       239.0004        202.0004
  22491015.8214  -20272153.01649 -14914099.59146  22491015.9344   22491021.0994
       229.0004        179.0004
  21572431.3274   -8370351.42449  -6494296.56646  21572430.8274   21572437.1044
       233.0004        187.0004
  23559538.9344   -8823768.51749  -6840212.77645  23559538.1014   23559544.9694
       215.0004        153.0004
 05  5 19 17 11  0.0000000  0  8G15G18G21G29G 6G22G26G16
  22218538.1414  -14328932.56749 -11137277.82946  22218536.9674   22218544.9564
       227.0004        176.0004
  20803712.4484  -13524304.43349 -10502296.29747  20803711.8504   20803717.1084
       240.0004        209.0004
  20701283.6354   -7221459.56149  -5614482.74547  20701283.0504   20701287.8354
       241.0004        206.0004
  22952051.3904    -956669.36749   -720717.26846  22952050.9264   22952057.8274
       222.0004        167.0004
  20972011.7624    3050692.00149   2388612.00747  20972011.3794   20972018.2484
       239.0004        202.0004
  22476699.2624  -20347387.10949 -14972723.51846  22476699.1954   22476704.2634
       230.0004        179.0004
  21575765.4924   -8352830.29549  -6480643.73946  21575765.5384   21575771.4924
       233.0004        187.0004
  23560376.5744   -8819366.53349  -6836782.65645  23560376.3214   23560382.6904
       215.0004        153.0004
 05  5 19 17 11 30.0000000  0  8G15G18G21G29G 6G22G26G16
  22206383.4904  -14392805.52749 -11187048.95046  22206382.6314   22206389.3594
       226.0004        176.0004
  20797740.5234  -13555687.15149 -10526750.35747  20797739.8644   20797745.1714
       240.0004        209.0004
  20698036.2384   -7238524.70549  -5627780.26547  20698035.5184   20698040.3724
       241.0004        206.0004
  22962028.8454    -904237.72949   -679861.46446  22962028.4984   22962035.4574
       221.0004        167.0004
  20984346.4904    3115511.30749   2439120.52647  20984346.1594   20984352.8614
       239.0004        202.0004
  22462441.1444  -20422313.89749 -15031107.99446  22462441.3654   22462445.3374
       230.0004        179.0004
  21579229.0764   -8334629.14949  -6466461.04246  21579229.0714   21579235.3394
       233.0004        187.0004
  23561310.3874   -8814459.49949  -6832959.00645  23561309.7854   23561317.2474
       214.0004        153.0004
 05  5 19 17 12  0.0000000  0  8G15G18G21G29G 6G22G26G16
  22194242.9904  -14456604.03949 -11236762.04146  22194241.6364   22194248.9934
       227.0004        176.0004
  20791845.2084  -13586667.06049 -10550890.53547  20791844.6854   20791849.8024
       240.0004        209.0004
  20694823.6754   -7255406.91549  -5640935.23347  20694823.2124   20694827.9594
       241.0004        206.0004
  22972101.1834    -851307.47749   -638617.13846  22972101.2854   22972107.2264
       221.0004        167.0004
  20996763.2504    3180761.84149   2489965.07447  20996763.0234   20996769.8604
       238.0004        201.0004
  22448241.4264  -20496934.14149 -15089253.59546  22448241.1564   22448245.4264
       230.0004        180.0004
  21582821.7564   -8315749.70449  -6451749.79146  21582821.4544   21582828.2354
       233.0004        187.0004
  23562339.8564   -8809049.52449  -6828743.45145  23562338.7624   23562347.0074
       214.0004        153.0004
 05  5 19 17 12 30.0000000  0  8G15G18G21G29G 6G22G26G16
  22182116.9274  -14520326.80249 -11286416.11146  22182116.0214   22182123.3094
       228.0004        176.0004
  20786026.7634  -13617243.25849 -10574716.13047  20786026.1044   20786031.4454
       240.0004        209.0004
  20691646.3454   -7272104.00049  -5653945.95047  20691645.4124   20691650.4334
       241.0004        207.0004
  22982268.2284    -797879.38649   -596984.88746  22982268.0274   22982274.4174
       221.0004        167.0004
  21009262.0424    3246443.25749   2541145.36247  21009261.7014   21009268.4464
       238.0004        201.0004
  22434100.3054  -20571246.25749 -15147159.09546  22434099.6164   22434104.6724
       230.0004        180.0004
  21586543.5414   -8296191.60649  -6436509.72546  21586543.5574   21586549.8474
       232.0004        187.0004
  23563465.1084   -8803136.47449  -6824135.88745  23563464.3034   23563471.7124
       215.0004        153.0004
 05  5 19 17 13  0.0000000  0  8G15G18G21G29G 6G22G26G16
  22170005.3084  -14583973.83049 -11336011.17546  22170004.8554   22170011.9784
       227.0004        177.0004
  20780285.0324  -13647416.24149 -10598227.53547  20780284.4784   20780289.4384
       240.0004        209.0004
  20688504.2224   -7288615.93949  -5666812.39647  20688503.4674   20688508.4904
       241.0004        207.0004
  22992529.6184    -743955.48349   -554966.28046  22992529.1134   22992535.6354
       221.0004        166.0004
  21021842.4994    3312553.88249   2592660.10347  21021841.9224   21021849.0424
       238.0004        201.0004
  22420017.8134  -20645249.67449 -15204824.05446  22420017.9154   22420021.6254
       230.0004        180.0004
  21590394.3514   -8275955.53549  -6420741.36846  21590394.3614   21590400.5214
       233.0004        187.0004
  23564685.8284   -8796721.67749  -6819137.36145  23564685.2084   23564693.0184
       217.0004        153.0004
 05  5 19 17 13 30.0000000  0  8G15G18G21G29G 6G22G26G16
  22157908.2384  -14647544.25549 -11385546.54446  22157907.4804   22157915.0524
       227.0004        177.0004
  20774619.9184  -13677186.57749 -10621425.19047  20774619.4504   20774624.6444
       240.0004        209.0004
  20685397.6184   -7304941.25549  -5679533.42747  20685397.1384   20685401.7504
       241.0004        207.0004
  23002885.0744    -689537.18049   -512562.43946  23002884.5744   23002890.6524
       220.0004        166.0004
  21034504.4034    3379092.56649   2644508.39047  21034504.1064   21034511.0394
       239.0004        201.0004
  22405994.3354  -20718943.22849 -15262247.56946  22405993.6834   22405998.3344
       230.0004        181.0004
  21594374.1014   -8255041.74949  -6404444.91646  21594374.1664   21594380.2884
       232.0004        187.0004
  23566001.7964   -8789806.02049  -6813748.54445  23566000.3374   23566009.1214
       215.0004        153.0004
 05  5 19 17 14  0.0000000  0  8G15G18G21G29G 6G22G26G16
  22145825.5244  -14711038.98649 -11435022.93146  22145824.3454   22145831.7274
       228.0004        177.0004
  20769031.1554  -13706555.65249 -10644310.17047  20769030.5694   20769035.9054
       240.0004        209.0004
  20682326.3774   -7321080.78149  -5692109.68047  20682325.6744   20682330.6644
       241.0004        206.0004
  23013334.0664    -634627.33249   -469775.56346  23013333.4214   23013340.6514
       219.0004        165.0004
  21047247.3084    3446056.71749   2696688.21947  21047247.2944   21047253.9984
       238.0004        200.0004
  22392029.6874  -20792327.61949 -15319430.16846  22392029.2314   22392034.0204
       230.0004        181.0004
  21598482.4394   -8233452.23649  -6387621.92546  21598482.3124   21598488.4634
       233.0004        187.0004
  23567412.6594   -8782391.77949  -6807971.23045  23567412.3604   23567418.8174
       213.0004        152.0004
 05  5 19 17 14 30.0000000  0  8G15G18G21G29G 6G22G26G16
  22133757.6774  -14774455.87949 -11484438.65546  22133757.0694   22133764.5364
       228.0004        178.0004
  20763519.0214  -13735522.10649 -10666881.41847  20763518.4354   20763523.6294
       240.0004        210.0004
  20679290.8484   -7337032.45549  -5704539.55547  20679290.3054   20679294.8224
       241.0004        206.0004
  23023876.5524    -579226.39149   -426606.02746  23023876.4924   23023882.4754
       220.0004        165.0004
  21060071.1754    3513446.45549   2749199.67947  21060071.0664   21060077.7104
       238.0004        200.0004
  22378124.4044  -20865400.37749 -15376369.93546  22378124.4074   22378129.5824
       231.0004        182.0004
  21602719.6194   -8211185.77249  -6370271.44346  21602719.2794   21602725.8254
       233.0004        186.0004
  23568918.5484   -8774478.37549  -6801804.97045  23568917.6184   23568925.7024
       214.0004        152.0004
 05  5 19 17 15  0.0000000  0  8G15G18G21G29G 6G22G26G16
  22121704.4594  -14837795.84849 -11533794.44846  22121703.7334   22121710.9974
       228.0004        178.0004
  20758083.2354  -13764087.34349 -10689140.03047  20758082.8984   20758087.7794
       240.0004        210.0004
  20676291.0264   -7352796.63449  -5716823.33247  20676290.6124   20676295.2614
       241.0004        206.0004
  23034511.9284    -523337.23849   -383056.05646  23034512.1994   23034518.9474
       220.0004        165.0004
  21072975.5434    3581259.27349   2802040.79947  21072975.1534   21072981.7654
       238.0004        200.0004
  22364278.3854  -20938161.98749 -15433067.25246  22364277.9234   22364282.5904
       231.0004        182.0004
  21607085.2464   -8188244.10549  -6352394.82546  21607085.0364   21607091.3374
       233.0004        186.0004
  23570519.0064   -8766068.04649  -6795251.47945  23570518.3604   23570526.3674
       213.0004        153.0004
 05  5 19 17 15 30.0000000  0  8G15G18G21G29G 6G22G26G16
  22109666.1824  -14901057.26749 -11583089.02446  22109665.3274   22109672.8524
       228.0004        178.0004
  20752723.9484  -13792250.61449 -10711085.42447  20752723.2994   20752728.4034
       241.0004        210.0004
  20673327.2384   -7368371.53949  -5728959.62047  20673326.6544   20673331.2824
       241.0004        206.0004
  23045240.1154    -466960.50649   -339126.14846  23045239.7034   23045246.4474
       221.0004        166.0004
  21085960.3454    3649494.80149   2855211.30747  21085960.0644   21085966.9064
       238.0004        200.0004
  22350491.8804  -21010610.70549 -15489520.76246  22350491.5174   22350495.9734
       231.0004        183.0004
  21611579.4574   -8164626.88149  -6333991.80646  21611579.3154   21611585.8614
       232.0004        186.0004
  23572214.0394   -8757160.66949  -6788310.67945  23572214.1664   23572220.7794
       214.0004        152.0004
 05  5 19 17 16  0.0000000  0  8G15G18G21G29G 6G22G26G16
  22097642.7954  -14964240.43549 -11632322.64046  22097642.0614   22097649.9724
       228.0004        179.0004
  20747440.9564  -13820012.97749 -10732718.42247  20747440.2964   20747445.6864
       240.0004        210.0004
  20670399.5054   -7383756.89649  -5740948.21247  20670398.8214   20670403.7214
       241.0004        207.0004
  23056060.5844    -410098.65049   -294818.23846  23056060.0224   23056066.6724
       220.0004        166.0004
  21099025.1894    3718150.86349   2908709.49847  21099024.9894   21099031.6214
       238.0004        199.0004
  22336764.8804  -21082746.54549 -15545730.46646  22336764.4104   22336769.5404
       231.0004        183.0004
  21616201.9314   -8140335.58049  -6315063.52846  21616202.4144   21616208.0254
       233.0004        186.0004
  23574003.2134   -8747758.38049  -6780984.24145  23574002.7284   23574009.7994
       214.0004        152.0004
 05  5 19 17 16 30.0000000  0  8G15G18G21G29G 6G22G26G16
  22085634.6504  -15027343.79349 -11681494.04646  22085633.6044   22085641.0924
       229.0004        179.0004
  20742234.3624  -13847373.65949 -10754038.42047  20742233.7104   20742239.0104
       240.0004        210.0004
  20667508.1324   -7398951.21049  -5752787.93847  20667507.4424   20667512.2334
       241.0004        207.0004
  23066973.2094    -352752.63849   -250133.05046  23066972.7374   23066978.9854
       221.0004        166.0004
  21112169.9504    3787226.95449   2962534.99547  21112169.8694   21112176.5794
       237.0004        199.0004
  22323097.7164  -21154567.62449 -15601694.90246  22323097.5014   22323102.0514
       232.0004        183.0004
  21620952.7224   -8115369.87449  -6295609.73946  21620952.7464   21620958.9144
       233.0004        186.0004
  23575886.6494   -8737861.08249  -6773272.08345  23575886.2344   23575893.4544
       213.0004        153.0004
 05  5 19 17 17  0.0000000  0  8G15G18G21G29G 6G22G26G16
  22073641.4674  -15090368.27649 -11730604.00146  22073641.0964   22073647.3674
       229.0004        179.0004
  20737103.7664  -13874335.08449 -10775047.31047  20737103.2724   20737108.2514
       240.0004        210.0004
  20664653.0094   -7413954.95349  -5764479.16647  20664652.3694   20664657.1664
       241.0004        207.0004
  23077977.3294    -294925.82249   -205073.21046  23077977.6984   23077983.3394
       220.0004        165.0004
  21125394.0524    3856720.08849   3016685.44747  21125393.9244   21125400.9784
       237.0004        199.0004
  22309490.2924  -21226074.89449 -15657414.81546  22309490.1614   22309494.8164
       232.0004        184.0004
  21625831.4834   -8089731.79049  -6275632.02046  21625831.7184   21625837.6294
       233.0004        186.0004
  23577863.7774   -8727471.57349  -6765176.37245  23577863.5754   23577869.4044
       214.0004        152.0004
 05  5 19 17 17 30.0000000  0  8G15G18G21G29G 6G22G26G16
  22061663.5504  -15153312.59449 -11779651.49946  22061662.9794   22061669.9674
       229.0004        180.0004
  20732049.2604  -13900896.63749 -10795744.61547  20732048.7414   20732053.6954
       240.0004        210.0004
  20661834.3964   -7428766.90049  -5776020.94247  20661833.9004   20661838.5654
       241.0004        207.0004
  23089072.7524    -236619.11849   -159639.44546  23089072.3884   23089078.8664
       219.0004        165.0004
  21138697.4294    3926629.57349   3071160.33547  21138697.1844   21138703.8904
       237.0004        199.0004
  22295942.8764  -21297266.88749 -15712889.05946  22295942.8404   22295947.1434
       232.0004        184.0004
  21630838.1794   -8063421.54249  -6255130.54046  21630837.7434   21630843.9464
       232.0004        186.0004
  23579934.4684   -8716590.05349  -6756697.29345  23579933.7024   23579940.6624
       213.0004        152.0004
 05  5 19 17 18  0.0000000  0  8G15G18G21G29G 6G22G26G16
  22049700.9394  -15216176.49049 -11828636.31746  22049700.1204   22049707.5064
       229.0004        180.0004
  20727070.7534  -13927058.72549 -10816130.64847  20727070.0884   20727075.3164
       240.0004        210.0004
  20659052.4584   -7443386.14549  -5787412.56147  20659051.8864   20659056.5534
       241.0004        207.0004
  23100259.0534    -177834.67449   -113833.41846  23100258.8744   23100265.0774
       221.0004        164.0004
  21152079.7094    3996953.80849   3125958.40347  21152079.3804   21152086.2764
       237.0004        198.0004
  22282455.6404  -21368142.83749 -15768117.04046  22282454.9674   22282460.3754
       232.0004        184.0004
  21635972.6404   -8036439.97749  -6234105.94446  21635972.3484   21635978.4674
       233.0004        186.0004
  23582098.4744   -8705218.08449  -6747836.03945  23582097.9934   23582105.5074
       213.0004        152.0004
 05  5 19 17 18 30.0000000  0  8G15G18G21G29G 6G22G26G16
  22037753.7354  -15278959.42649 -11877558.05146  22037753.1214   22037760.9044
       229.0004        180.0004
  20722168.1514  -13952822.11549 -10836206.00747  20722167.6424   20722172.6024
       240.0004        210.0004
  20656307.2494   -7457812.29049  -5798653.71447  20656306.6264   20656311.4624
       241.0004        207.0004
  23111535.9444    -118574.40949    -67656.61546  23111535.4474   23111541.7134
       220.0004        164.0004
  21165540.6164    4067691.12849   3181078.35847  21165540.4514   21165546.9234
       237.0004        198.0004
  22269028.6534  -21438702.24549 -15823098.35846  22269028.2534   22269032.8864
       232.0004        185.0004
  21641234.6374   -8008788.09849  -6212559.03346  21641234.3054   21641240.5914
       233.0004        186.0004
  23584355.6534   -8693356.77049  -6738593.47845  23584353.9614   23584362.5574
       213.0004        152.0004
 05  5 19 17 19  0.0000000  0  8G15G18G21G29G 6G22G26G16
  22025821.9664  -15341661.14449 -11926416.50946  22025821.3514   22025828.0164
       229.0004        180.0004
  20717341.3004  -13978187.43649 -10855971.18247  20717340.7434   20717345.9484
       240.0004        210.0004
  20653598.9434   -7472044.54049  -5809743.77647  20653598.2714   20653602.9724
       241.0004        207.0004
  23122902.9664     -58840.34149    -21110.62246  23122903.6674   23122908.5414
       220.0004        164.0004
  21179079.8054    4138839.97249   3236518.97847  21179079.6184   21179086.1444
       237.0004        198.0004
  22255661.9284  -21508944.81049 -15877832.78746  22255661.3464   22255666.4984
       232.0004        185.0004
  21646624.0334   -7980466.72249  -6190490.42946  21646624.3644   21646630.1814
       233.0004        186.0004
  23586705.6294   -8681007.48249  -6728970.67545  23586705.0844   23586712.5384
       214.0004        152.0004
 05  5 19 17 19 30.0000000  0  8G15G18G21G29G 6G22G26G16
  22013905.8804  -15404280.40949 -11975210.70646  22013904.8114   22013911.6164
       229.0004        180.0004
  20712590.2384  -14003154.42749 -10875425.97547  20712589.6334   20712594.8524
       240.0004        210.0004
  20650927.8034   -7486081.36349  -5820681.56147  20650927.3604   20650931.7714
       241.0004        207.0004
  23134359.8844       1366.08349     25803.44346  23134359.6664   23134366.3424
       219.0004        164.0004
  21192697.1594    4210399.26949   3292279.42947  21192697.0614   21192703.8024
       237.0004        197.0004
  22242355.6614  -21578869.30549 -15932319.37546  22242355.2984   22242360.2854
       232.0004        185.0004
  21652140.7564   -7951476.18649  -6167900.40946  21652140.4554   21652147.0374
       233.0004        186.0004
  23589148.3414   -8668170.89249  -6718968.15645  23589148.0334   23589154.8944
       213.0004        152.0004
 05  5 19 17 20  0.0000000  0  8G15G18G21G29G 6G22G26G16
  22002005.3134  -15466817.99249 -12023941.25746  22002004.4894   22002011.6424
       230.0004        181.0004
  20707914.7354  -14027724.35449 -10894571.36547  20707914.3094   20707919.4334
       240.0004        210.0004
  20648293.7424   -7499923.54749  -5831467.67647  20648293.0544   20648298.0234
       241.0004        207.0004
  23145906.1414      62042.09949     73083.41946  23145906.0234   23145912.9674
       220.0004        164.0004
  21206392.1344    4282366.61949   3348357.84847  21206391.9104   21206398.6234
       237.0004        197.0004
  22229109.8544  -21648475.99249 -15986558.32146  22229109.7184   22229114.9204
       233.0004        185.0004
  21657784.4164   -7921818.63149  -6144790.63346  21657784.3484   21657790.6054
       232.0004        186.0004
  23591683.3704   -8654849.23449  -6708587.65745  23591683.0784   23591689.9854
       213.0004        152.0004
 05  5 19 17 20 30.0000000  0  8G15G18G21G29G 6G22G26G16
  21990120.6234  -15529272.75449 -12072607.26846  21990119.4874   21990127.6124
       229.0004        181.0004
  20703314.7764  -14051897.23849 -10913407.37447  20703314.2644   20703319.3754
       240.0004        210.0004
  20645697.0614   -7513569.12049  -5842100.59347  20645696.4624   20645701.1454
       242.0004        207.0004
  23157541.5564     123186.27749    120728.19546  23157540.6984   23157547.7244
       220.0004        164.0004
  21220164.4904    4354740.79149   3404753.26247  21220164.4364   21220171.2194
       237.0004        197.0004
  22215924.8004  -21717763.74849 -16040548.75346  22215924.7254   22215929.3294
       233.0004        185.0004
  21663554.9724   -7891494.28849  -6121161.28546  21663554.8434   21663561.0314
       232.0004        186.0004
  23594310.5954   -8641043.37749  -6697829.86545  23594309.9794   23594316.7594
       212.0004        152.0004
 05  5 19 17 21  0.0000000  0  8G15G18G21G29G 6G22G26G16
  21978251.7824  -15591643.89649 -12121208.13646  21978250.3744   21978258.0724
       229.0004        181.0004
  20698790.2644  -14075673.71849 -10931934.49847  20698789.6164   20698794.8014
       240.0004        210.0004
  20643137.9174   -7527017.56949  -5852579.90647  20643137.3134   20643142.0704
       242.0004        207.0004
  23169265.6014     184796.55849    168736.16946  23169265.7314   23169271.8194
       219.0004        164.0004
  21234014.0084    4427520.29549   3461464.51847  21234013.6184   21234020.4524
       237.0004        197.0004
  22202800.6214  -21786731.89249 -16094290.13546  22202800.2014   22202804.8064
       233.0004        186.0004
  21669452.1804   -7860504.25049  -6097013.20946  21669452.0014   21669458.2104
       232.0004        186.0004
  23597029.6374   -8626754.60649  -6686695.76645  23597029.9064   23597035.9644
       213.0004        152.0004
 05  5 19 17 21 30.0000000  0  8G15G18G21G29G 6G22G26G16
  21966398.9394  -15653930.74449 -12169743.30046  21966397.9294   21966405.5054
       229.0004        181.0004
  20694341.1484  -14099054.03849 -10950152.92547  20694340.6664   20694345.7554
       240.0004        210.0004
  20640616.4384   -7540267.99349  -5862904.90747  20640615.8194   20640620.6494
       241.0004        207.0004
  23181078.0204     246871.05849    217105.87746  23181077.7644   23181084.5644
       220.0004        165.0004
  21247940.3484    4500703.62749   3518490.45147  21247940.2674   21247946.9074
       236.0004        196.0004
  22189737.3634  -21855379.89549 -16147782.05146  22189736.5054   22189741.7394
       233.0004        186.0004
  21675475.8734   -7828849.31249  -6072347.03146  21675475.5514   21675482.1924
       232.0004        185.0004
  23599840.3914   -8611984.06949  -6675186.27245  23599839.8314   23599846.4194
       213.0004        152.0004
 05  5 19 17 22  0.0000000  0  8G15G18G21G29G 6G22G26G16
  21954562.1464  -15716133.21449 -12218212.72546  21954561.0144   21954568.9814
       230.0004        181.0004
  20689967.2054  -14122039.27949 -10968063.50247  20689966.6944   20689971.8194
       240.0004        211.0004
  20638132.7014   -7553320.17249  -5873075.44047  20638132.2184   20638136.6114
       241.0004        207.0004
  23192978.3644     309407.49649    265835.53346  23192978.4154   23192985.2614
       219.0004        165.0004
  21261943.1444    4574288.62149   3575829.37047  21261942.8234   21261949.6474
       236.0004        196.0004
  22176735.0114  -21923707.45549 -16201024.27646  22176734.5364   22176738.9634
       233.0004        186.0004
  21681625.8104   -7796531.03949  -6047163.97746  21681625.7934   21681631.7434
       231.0004        185.0004
  23602742.4464   -8596733.61749  -6663302.82845  23602741.4024   23602748.7324
       211.0004        152.0004
 05  5 19 17 22 30.0000000  0  8G15G18G21G29G 6G22G26G16
  21942741.6594  -15778250.51049 -12266615.77846  21942740.1374   21942748.4284
       230.0004        182.0004
  20685668.4154  -14144629.41749 -10985666.20447  20685667.7904   20685672.7574
       240.0004        210.0004
  20635686.9554   -7566172.82749  -5883090.49347  20635686.3324   20635691.0954
       241.0004        207.0004
  23204966.2934     372404.12749    314923.78646  23204966.4264   23204972.9524
       219.0004        165.0004
  21276022.1564    4648274.18849   3633480.41747  21276021.8574   21276028.9444
       236.0004        196.0004
  22163793.7884  -21991713.67849 -16254016.11146  22163793.7254   22163797.9654
       233.0004        186.0004
  21687901.8574   -7763550.10249  -6021464.55946  21687901.3484   21687908.1404
       231.0004        185.0004
  23605735.6464   -8581004.50549  -6651046.38645  23605734.5604   23605742.8994
       213.0004        151.0004
 05  5 19 17 23  0.0000000  0  8G15G18G21G29G 6G22G26G16
  21930937.3574  -15840282.22449 -12314952.15046  21930936.5894   21930944.1384
       230.0004        182.0004
  20681444.7064  -14166825.17349 -11002961.59747  20681443.9544   20681449.4294
       240.0004        211.0004
  20633279.2454   -7578825.44249  -5892949.67447  20633278.4894   20633283.4774
       241.0004        207.0004
  23217041.3094     435858.73449    364368.89846  23217040.6274   23217048.1504
       217.0004        164.0004
  21290177.0474    4722658.34949   3691442.06147  21290177.0374   21290183.6064
       236.0004        195.0004
  22150913.8254  -22059398.15849 -16306757.23646  22150913.3224   22150918.1744
       233.0004        186.0004
  21694303.7924   -7729907.79049  -5995249.77846  21694303.4764   21694310.1424
       231.0004        185.0004
  23608819.5874   -8564798.00149  -6638417.95845  23608819.2454   23608826.2304
       213.0004        151.0004
 05  5 19 17 23 30.0000000  0  8G15G18G21G29G 6G22G26G16
  21919149.4484  -15902227.54649 -12363221.21246  21919148.5094   21919156.3334
       230.0004        182.0004
  20677295.9154  -14188627.18649 -11019950.18147  20677295.3664   20677300.6984
       240.0004        211.0004
  20630909.8164   -7591276.84049  -5902652.06647  20630909.3194   20630913.9364
       241.0004        207.0004
  23229203.1494     499769.51249    414169.46146  23229203.5074   23229209.3254
       218.0004        164.0004
  21304407.5424    4797439.74449   3749713.23147  21304407.5564   21304414.1724
       236.0004        195.0004
  22138095.2254  -22126760.27449 -16359247.17946  22138095.1564   22138099.3694
       234.0004        187.0004
  21700831.3874   -7695605.05049  -5968520.39146  21700831.3674   21700838.1554
       231.0004        185.0004
  23611994.1524   -8548115.55449  -6625418.67245  23611993.9274   23612001.1934
       213.0004        151.0004
 05  5 19 17 24  0.0000000  0  8G15G18G21G29G 6G22G26G16
  21907378.1184  -15964086.48049 -12411422.94146  21907376.6494   21907384.5414
       231.0004        182.0004
  20673221.9094  -14210036.19349 -11036632.52147  20673221.2474   20673226.5644
       240.0004        211.0004
  20628578.6394   -7603527.20449  -5912197.80147  20628577.9234   20628582.6884
       241.0004        207.0004
  23241451.2454     564133.80749    464323.43246  23241451.2884   23241458.4774
       218.0004        163.0004
  21318713.1394    4872616.00149   3808292.09447  21318713.0824   21318719.5034
       236.0004        195.0004
  22125338.0544  -22193799.84749 -16411485.77446  22125337.3084   22125342.3154
       233.0004        187.0004
  21707484.3004   -7660643.78049  -5941277.85246  21707484.3314   21707490.9584
       231.0004        185.0004
  23615258.9424   -8530959.18549  -6612050.09645  23615258.7874   23615265.0444
       213.0004        151.0004
 05  5 19 17 24 30.0000000  0  8G15G18G21G29G 6G22G26G16
  21895623.3324  -16025858.28149 -12459556.77846  21895622.9564   21895629.4614
       231.0004        182.0004
  20669222.5674  -14231052.86449 -11053009.14747  20669222.0754   20669227.1814
       240.0004        211.0004
  20626285.9714   -7615575.15149  -5921585.81447  20626285.4404   20626290.0324
       241.0004        207.0004
  23253785.3374     628949.67949    514829.27046  23253785.4994   23253791.6614
       218.0004        163.0004
  21333093.6124    4948185.67649   3867177.51547  21333093.3474   21333100.2164
       236.0004        194.0004
  22112642.2554  -22260516.35449 -16463472.63346  22112642.0564   22112646.5984
       233.0004        187.0004
  21714262.4044   -7625024.74449  -5913522.76946  21714262.4594   21714268.5854
       231.0004        184.0004
  23618613.7414   -8513329.63649  -6598312.80645  23618612.9544   23618620.8964
       214.0004        151.0004
 05  5 19 17 25  0.0000000  0  8G15G18G21G29G 6G22G26G16
  21883885.3254  -16087541.83249 -12507621.85846  21883883.8924   21883891.9324
       230.0004        182.0004
  20665297.8784  -14251677.31349 -11069080.14747  20665297.2524   20665302.5324
       240.0004        211.0004
  20624032.1534   -7627419.06949  -5930814.84747  20624031.6604   20624036.3474
       242.0004        207.0004
  23266205.0504     694215.73749    565685.90246  23266204.9714   23266211.1214
       218.0004        163.0004
  21347548.6724    5024147.49949   3926368.50147  21347548.5304   21347555.5074
       236.0004        194.0004
  22100008.1124  -22326908.90249 -16515207.06846  22100007.9934   22100012.2414
       233.0004        187.0004
  21721165.5214   -7588748.73349  -5885255.76546  21721165.5104   21721171.6284
       231.0004        184.0004
  23622058.2954   -8495228.60449  -6584208.12545  23622057.7204   23622065.3024
       213.0004        151.0004
 05  5 19 17 25 30.0000000  0  8G15G18G21G29G 6G22G26G16
  21872164.0584  -16149137.14649 -12555618.17446  21872163.0574   21872170.3034
       230.0004        183.0004
  20661447.5744  -14271910.84049 -11084846.52747  20661446.9884   20661452.2024
       240.0004        211.0004
  20621817.1374   -7639059.02449  -5939884.94447  20621816.5234   20621821.2284
       241.0004        207.0004
  23278709.8964     759929.08649    616891.07346  23278709.9444   23278715.9954
       218.0004        163.0004
  21362077.9174    5100499.28249   3985863.35847  21362077.6414   21362084.4984
       235.0004        194.0004
  22087435.6414  -22392977.56349 -16566689.11046  22087435.5674   22087440.1124
       234.0004        187.0004
  21728193.2554   -7551817.78249  -5856478.41146  21728193.5154   21728199.7894
       231.0004        184.0004
  23625592.2094   -8476657.81949  -6569737.41645  23625591.4634   23625598.8044
       213.0004        151.0004
 05  5 19 17 26  0.0000000  0  8G15G18G21G29G 6G22G26G16
  21860459.8944  -16210642.80649 -12603544.63146  21860459.3694   21860466.1804
       232.0004        183.0004
  20657671.7094  -14291753.19049 -11100308.09747  20657671.0124   20657676.0694
       240.0004        211.0004
  20619641.2444   -7650493.45749  -5948794.89347  20619640.5704   20619645.3054
       241.0004        207.0004
  23291299.6414     826088.43049    668443.77145  23291299.0694   23291307.1114
       217.0004        162.0004
  21376681.1624    5177239.73249   4045661.07247  21376680.8324   21376687.3954
       235.0004        193.0004
  22074925.1384  -22458720.78649 -16617917.56347  22074924.9574   22074929.1634
       234.0004        188.0004
  21735345.4954   -7514232.44149  -5827191.14446  21735345.3644   21735352.0874
       231.0004        184.0004
  23629215.3544   -8457618.20549  -6554901.38345  23629214.9954   23629221.3954
       213.0004        152.0004
 05  5 19 17 26 30.0000000  0  8G15G18G21G29G 6G22G26G16
  21848772.7534  -16272059.23849 -12651401.56246  21848771.7204   21848778.7344
       232.0004        183.0004
  20653969.9854  -14311205.85249 -11115466.01447  20653969.5344   20653974.7054
       240.0004        211.0004
  20617504.4014   -7661722.65149  -5957544.92347  20617503.5294   20617508.6644
       241.0004        207.0004
  23303973.6714     892690.70949    720341.61346  23303973.9654   23303980.0784
       217.0004        163.0004
  21391357.9204    5254366.45049   4105759.77747  21391357.3214   21391364.4654
       234.0004        193.0004
  22062476.3574  -22524139.46549 -16668893.13147  22062475.8364   22062480.5024
       234.0004        188.0004
  21742621.8624   -7475994.93549  -5797395.70046  21742621.7764   21742628.2044
       231.0004        184.0004
  23632927.2394   -8438112.13249  -6539701.86345  23632926.7554   23632934.7544
       213.0004        152.0004
 05  5 19 17 27  0.0000000  0  8G15G18G21G29G 6G22G26G16
  21837102.6244  -16333386.29249 -12699188.84146  21837101.3994   21837109.4244
       231.0004        183.0004
  20650342.1454  -14330270.19249 -11130321.34047  20650341.6864   20650346.8254
       240.0004        211.0004
  20615406.7104   -7672746.07349  -5966134.60447  20615406.0614   20615410.9854
       241.0004        207.0004
  23316731.4504     959733.20349    772582.48046  23316731.0334   23316738.3354
       217.0004        163.0004
  21406107.7564    5331877.04649   4166157.60647  21406107.3804   21406114.4024
       236.0004        193.0004
  22050089.3114  -22589233.73149 -16719615.90647  22050088.8914   22050093.6914
       234.0004        188.0004
  21750022.0234   -7437106.99049  -5767093.41846  21750022.2434   21750028.4594
       230.0004        184.0004
  23636727.4674   -8418141.78149  -6524140.58145  23636727.4344   23636733.7684
       213.0004        151.0004
 05  5 19 17 27 30.0000000  0  8G15G18G21G29G 6G22G26G16
  21825449.7694  -16394621.98649 -12746904.93446  21825448.9764   21825456.0834
       232.0004        183.0004
  20646788.3854  -14348945.28349 -11144873.35947  20646787.7964   20646792.9034
       240.0004        211.0004
  20613348.5364   -7683561.91149  -5974562.53747  20613347.9864   20613352.6304
       241.0004        207.0004
  23329572.8144    1027214.98049    825165.64846  23329573.1234   23329579.6504
       217.0004        163.0004
  21420930.5304    5409771.01349   4226854.16247  21420930.4084   21420937.3614
       235.0004        193.0004
  22037764.3574  -22654001.60549 -16770084.35947  22037764.0934   22037768.4994
       234.0004        188.0004
  21757545.9004   -7397568.93949  -5736284.57046  21757546.0744   21757552.1454
       231.0004        184.0004
  23640615.9694   -8397707.41049  -6508217.72345  23640615.8624   23640623.1184
       212.0004        152.0004
 05  5 19 17 28  0.0000000  0  8G15G18G21G29G 6G22G26G16
  21813814.4794  -16455765.56749 -12794549.26246  21813814.0314   21813820.8704
       232.0004        183.0004
  20643308.5714  -14367231.89749 -11159122.67247  20643308.0454   20643313.2554
       240.0004        211.0004
  20611330.0584   -7694169.06849  -5982827.86147  20611329.2744   20611334.1274
       241.0004        207.0004
  23342497.3764    1095134.05749    878089.56445  23342497.1754   23342504.2074
       217.0004        162.0004
  21435825.9244    5488046.62249   4287848.10947  21435825.5974   21435832.7194
       235.0004        193.0004
  22025501.6694  -22718442.36049 -16820297.90647  22025501.3534   22025505.7024
       234.0004        188.0004
  21765193.2264   -7357381.93949  -5704970.04446  21765192.6114   21765199.4894
       230.0004        184.0004
  23644592.4984   -8376810.86449  -6491934.72745  23644592.3694   23644599.1344
       212.0004        151.0004
 05  5 19 17 28 30.0000000  0  8G15G18G21G29G 6G22G26G16
  21802196.8424  -16516816.64249 -12842121.49346  21802195.8444   21802202.9634
       232.0004        184.0004
  20639902.5394  -14385130.79849 -11173069.86547  20639902.0734   20639906.9954
       240.0004        211.0004
  20609351.4074   -7704566.91649  -5990930.08447  20609350.9734   20609355.5984
       241.0004        207.0004
  23355504.7714    1163487.97949    931352.32645  23355504.5714   23355511.7414
       217.0004        162.0004
  21450793.5584    5566701.91649   4349137.91647  21450793.3354   21450800.1554
       235.0004        192.0004
  22013301.2234  -22782556.19349 -16870256.70547  22013300.6094   22013305.5994
       234.0004        188.0004
  21772963.7304   -7316547.80749  -5673151.26446  21772963.8314   21772970.1534
       231.0004        184.0004
  23648656.6834   -8355453.71549  -6475292.81745  23648656.3864   23648663.5314
       212.0004        152.0004
 05  5 19 17 29  0.0000000  0  8G15G18G21G29G 6G22G26G16
  21790596.8934  -16577774.98549 -12889621.46846  21790595.9144   21790603.3024
       233.0004        184.0004
  20636569.9624  -14402643.45749 -11186716.09647  20636569.4604   20636574.3944
       240.0004        211.0004
  20607412.6684   -7714755.14249  -5998868.96847  20607412.0364   20607416.7564
       242.0004        207.0004
  23368594.3404    1232274.06549    984951.83345  23368593.8994   23368601.5494
       217.0004        162.0004
  21465832.9654    5645734.50349   4410721.71247  21465833.0234   21465839.6614
       235.0004        192.0004
  22001162.9884  -22846343.02949 -16919960.71147  22001162.6724   22001166.8044
       234.0004        189.0004
  21780857.0394   -7275068.44849  -5640829.70946  21780856.9174   21780863.4114
       230.0004        185.0004
  23652808.1174   -8333637.91849  -6458293.52245  23652807.7324   23652814.4164
       213.0004        151.0004
 05  5 19 17 29 30.0000000  0  8G15G18G21G29G 6G22G26G16
  21779014.6424  -16638639.88149 -12937048.63746  21779013.5834   21779021.5034
       232.0004        184.0004
  20633310.8834  -14419769.95749 -11200061.42247  20633310.3564   20633315.3314
       240.0004        211.0004
  20605514.0474   -7724732.50749  -6006643.54847  20605513.5404   20605518.1544
       241.0004        207.0004
  23381765.8174    1301490.42049   1038886.61445  23381765.7604   23381772.6734
       216.0004        161.0004
  21480943.8754    5725142.72249   4472598.21047  21480943.3724   21480950.4324
       234.0004        192.0004
  21989087.0494  -22909802.33449 -16969409.49647  21989086.6424   21989091.5614
       234.0004        189.0004
  21788872.8444   -7232945.18049  -5608006.41346  21788873.0974   21788879.1954
       232.0004        184.0004
  23657046.5054   -8311365.17149  -6440938.16845  23657045.8384   23657052.8634
       212.0004        151.0004
 05  5 19 17 30  0.0000000  0  8G15G18G21G29G 6G22G26G16
  21767450.4494  -16699409.84249 -12984401.82346  21767449.4484   21767456.2624
       232.0004        184.0004
  20630125.2594  -14436510.47849 -11213105.98447  20630124.6124   20630129.9584
       240.0004        211.0004
  20603655.7834   -7734497.88449  -6014252.93747  20603655.1264   20603659.9764
       241.0004        207.0004
  23395018.8064    1371135.37949   1093155.38445  23395019.0154   23395025.5784
       216.0004        160.0004
  21496126.0384    5804925.53749   4534766.59947  21496125.8224   21496132.7524
       234.0004        191.0004
  21977073.6474  -22972933.00549 -17018602.20647  21977073.1794   21977078.0524
       235.0004        189.0004
  21797011.0504   -7190178.75149  -5574681.94546  21797010.5444   21797017.5064
       230.0004        184.0004
  23661371.6054   -8288636.47349  -6423227.52145  23661370.3144   23661378.2254
       212.0004        152.0004
 05  5 19 17 30 30.0000000  0  8G15G18G21G29G 6G22G26G16
  21755904.3024  -16760085.07249 -13031681.19746  21755903.4814   21755910.4304
       232.0004        185.0004
  20627012.8424  -14452866.33749 -11225850.81347  20627012.3174   20627017.3524
       240.0004        211.0004
  20601837.9064   -7744050.80549  -6021696.77847  20601837.3054   20601842.1074
       241.0004        207.0004
  23408352.8524    1441206.15249   1147755.94745  23408352.7054   23408359.2734
       216.0004        160.0004
  21511379.0284    5885080.40549   4597224.90147  21511379.1124   21511385.5064
       234.0004        191.0004
  21965122.7254  -23035735.26349 -17067539.00347  21965122.5524   21965127.3724
       236.0004        189.0004
  21805271.1734   -7146771.46249  -5540858.09446  21805270.9054   21805277.6104
       230.0004        184.0004
  23665783.1224   -8265454.15149  -6405163.39345  23665783.3194   23665789.7334
       211.0004        152.0004
 05  5 19 17 31  0.0000000  0  8G15G18G21G29G 6G22G26G16
  21744376.3484  -16820664.88749 -13078886.23046  21744375.0824   21744383.0624
       233.0004        185.0004
  20623973.4114  -14468838.75349 -11238296.85247  20623972.9314   20623978.0814
       239.0004        211.0004
  20600060.6444   -7753390.36249  -6028974.36147  20600059.9554   20600064.7624
       241.0004        207.0004
  23421767.5054    1511700.38749   1202686.48545  23421768.1474   23421774.5604
       217.0004        159.0004
  21526702.4454    5965605.22649   4659971.48147  21526702.3744   21526709.3294
       234.0004        191.0004
  21953234.2994  -23098209.14049 -17116219.92247  21953233.8324   21953238.4754
       236.0004        190.0004
  21813652.9244   -7102725.03149  -5506536.21746  21813653.1924   21813659.5804
       229.0004        183.0004
  23670280.6034   -8241819.87049  -6386747.10145  23670280.4764   23670287.7614
       212.0004        152.0004
 05  5 19 17 31 30.0000000  0  8G15G18G21G29G 6G22G26G16
  21732866.5954  -16881149.07549 -13126016.74146  21732865.3604   21732872.9214
       233.0004        185.0004
  20621006.7654  -14484428.68349 -11250444.85347  20621006.4844   20621011.2464
       240.0004        211.0004
  20598324.0314   -7762516.42949  -6036085.59347  20598323.4374   20598328.2704
       241.0004        207.0004
  23435262.2084    1582615.28549   1257944.82345  23435262.6154   23435269.0694
       217.0004        159.0004
  21542095.8224    6046497.70049   4723004.53547  21542095.6674   21542102.3514
       234.0004        190.0004
  21941408.4384  -23160354.32849 -17164644.72047  21941408.3094   21941412.9414
       236.0004        190.0004
  21822155.9264   -7058041.56349  -5471717.95146  21822156.1464   21822161.8904
       230.0004        183.0004
  23674863.5894   -8217736.15049  -6367980.58245  23674863.6434   23674870.1014
       211.0004        152.0004
 05  5 19 17 32  0.0000000  0  8G15G18G21G29G 6G22G26G16
  21721375.3584  -16941535.89649 -13173071.38446  21721374.1964   21721381.7944
       233.0004        186.0004
  20618112.9474  -14499635.83349 -11262294.58047  20618112.4084   20618117.6014
       240.0004        211.0004
  20596628.3834   -7771427.11049  -6043028.98747  20596627.7514   20596632.6064
       241.0004        207.0004
  23448836.7264    1653949.53649   1313529.93545  23448837.0084   23448843.1824
       218.0004        159.0004
  21557558.9934    6127756.90649   4786323.35947  21557559.2024   21557565.7074
       234.0004        190.0004
  21929645.3064  -23222169.90349 -17212812.67847  21929644.7834   21929649.7564
       236.0004        190.0004
  21830780.0264   -7012721.67449  -5436403.77646  21830780.1854   21830786.5964
       230.0004        183.0004
  23679532.0074   -8193203.86749  -6348864.54345  23679531.5314   23679538.3624
       213.0004        151.0004
 05  5 19 17 32 30.0000000  0  8G15G18G21G29G 6G22G26G16
  21709902.6644  -17001825.01049 -13220049.89546  21709901.9184   21709909.0504
       232.0004        186.0004
  20615291.7174  -14514461.49349 -11273847.04347  20615291.1514   20615296.2644
       239.0004        211.0004
  20594973.8144   -7780122.01849  -6049804.25047  20594973.2874   20594977.9314
       241.0004        207.0004
  23462490.5614    1725700.62149   1369439.84145  23462490.6964   23462496.9394
       216.0004        159.0004
  21573091.4874    6209380.60249   4849926.20147  21573090.8204   21573097.7074
       233.0004        190.0004
  21917944.8874  -23283655.84649 -17260723.77947  21917944.6034   21917949.1984
       235.0004        190.0004
  21839524.8634   -6966767.41249  -5400595.27946  21839524.9814   21839531.1874
       229.0004        183.0004
  23684285.3164   -8168224.87349  -6329400.41545  23684285.4604   23684292.9104
       212.0004        151.0004
 05  5 19 17 33  0.0000000  0  8G15G18G21G29G 6G22G26G16
  21698448.6834  -17062015.96649 -13266951.91646  21698448.0774   21698455.3494
       232.0004        186.0004
  20612542.8564  -14528906.69249 -11285103.03947  20612542.2644   20612547.5134
       239.0004        211.0004
  20593360.4114   -7788600.59749  -6056410.94047  20593359.8044   20593364.4804
       241.0004        207.0004
  23476223.2074    1797865.98249   1425672.56045  23476223.0194   23476230.4964
       217.0004        159.0004
  21588692.8994    6291366.66049   4913811.40747  21588692.8294   21588699.5314
       231.0004        189.0004
  21906307.2874  -23344811.88849 -17308377.81247  21906307.1694   21906311.3414
       236.0004        190.0004
  21848390.0424   -6920180.70449  -5364293.96546  21848390.1144   21848395.7344
       230.0004        183.0004
  23689123.3484   -8142801.28049  -6309589.84345  23689122.9114   23689130.2714
       213.0004        151.0004
 05  5 19 17 33 30.0000000  0  8G15G18G21G29G 6G22G26G16
  21687013.5584  -17122108.07649 -13313776.91346  21687012.7634   21687019.6614
       232.0004        186.0004
  20609866.3994  -14542971.67149 -11296062.76347  20609865.8674   20609871.0254
       239.0004        211.0004
  20591788.4284   -7796861.55149  -6062848.05447  20591787.8424   20591792.5024
       241.0004        207.0004
  23490034.1794    1870443.20249   1482226.20845  23490034.4584   23490040.3244
       217.0004        158.0004
  21604362.9454    6373713.14549   4977977.46247  21604362.7114   21604370.0294
       232.0004        189.0004
  21894732.4854  -23405637.82949 -17355774.62247  21894732.1824   21894736.2654
       236.0004        191.0004
  21857375.2504   -6872963.21149  -5327501.13346  21857375.4344   21857381.6094
       230.0004        183.0004
  23694045.6234   -8116934.73449  -6289434.12745  23694045.3544   23694053.3344
       213.0004        152.0004
 05  5 19 17 34  0.0000000  0  8G15G18G21G29G 6G22G26G16
  21675597.5024  -17182099.65849 -13360523.58446  21675596.3674   21675604.0094
       232.0004        186.0004
  20607262.1694  -14556656.99749 -11306726.65647  20607261.7504   20607266.9084
       240.0004        211.0004
  20590258.1524   -7804903.26249  -6069114.33047  20590257.5214   20590262.2294
       241.0004        207.0004
  23503923.3264    1943430.91349   1539099.70845  23503922.7034   23503930.1674
       217.0004        158.0004
  21620101.3824    6456418.94949   5042423.50247  21620101.2154   21620108.1124
       232.0004        188.0004
  21883220.6994  -23466132.47549 -17402913.27847  21883220.2724   21883224.8004
       236.0004        191.0004
  21866480.3214   -6825115.96149  -5290217.58246  21866480.4614   21866486.5214
       230.0004        183.0004
  23699051.9304   -8090626.37949  -6268934.12945  23699050.8684   23699058.4754
       212.0004        151.0004
 05  5 19 17 34 30.0000000  0  8G15G18G21G29G 6G22G26G16
  21664200.4894  -17241991.34649 -13407192.40946  21664199.7274   21664207.1224
       232.0004        186.0004
  20604729.8814  -14569964.25949 -11317095.95147  20604729.2834   20604734.4934
       240.0004        211.0004
  20588769.5204   -7812726.07149  -6075210.03647  20588768.9924   20588773.5884
       242.0004        207.0004
  23517889.9264    2016825.72349   1596290.43545  23517889.6744   23517896.0194
       216.0004        158.0004
  21635907.5764    6539480.90949   5107147.06747  21635907.5034   21635914.5534
       233.0004        188.0004
  21871771.7844  -23526296.87549 -17449794.60047  21871771.6184   21871776.2574
       237.0004        191.0004
  21875704.6754   -6776641.89649  -5252445.60546  21875704.2354   21875711.0044
       230.0004        183.0004
  23704141.7364   -8063879.19549  -6248092.18445  23704141.0154   23704148.3194
       213.0004        151.0004
 05  5 19 17 35  0.0000000  0  8G15G18G21G29G 6G22G26G16
  21652822.6774  -17301781.88249 -13453782.41846  21652821.7034   21652828.9494
       232.0004        187.0004
  20602269.4484  -14582894.03049 -11327171.09447  20602268.9464   20602274.0334
       239.0004        211.0004
  20587322.7754   -7820328.71549  -6081134.18147  20587322.1034   20587326.8894
       242.0004        207.0004
  23531933.5794    2090625.40649   1653796.65545  23531933.0624   23531939.9924
       216.0004        157.0004
  21651781.2614    6622897.37349   5172146.87247  21651781.0344   21651788.0134
       232.0004        188.0004
  21860385.8774  -23586130.26049 -17496417.98747  21860385.6504   21860390.0144
       236.0004        191.0004
  21885048.0164   -6727542.41549  -5214186.28946  21885047.9874   21885055.1064
       229.0004        183.0004
  23709314.7444   -8036694.88349  -6226909.64145  23709313.6044   23709321.4874
       213.0004        151.0004
 05  5 19 17 35 30.0000000  0  8G15G18G21G29G 6G22G26G16
  21641464.5524  -17361469.26249 -13500292.04846  21641464.0664   21641470.8524
       233.0004        187.0004
  20599880.8924  -14595445.98949 -11336951.84447  20599880.2904   20599885.3534
       241.0004        211.0004
  20585918.3134   -7827709.33249  -6086885.32447  20585917.6364   20585922.4474
       243.0004        207.0004
  23546054.0284    2164829.00249   1711617.60945  23546053.7964   23546060.2194
       216.0004        156.0004
  21667722.2574    6706667.58849   5237422.32346  21667722.3784   21667728.7974
       232.0004        187.0004
  21849063.1814  -23645631.40449 -17542782.49247  21849062.5794   21849067.2034
       237.0004        191.0004
  21894510.2594   -6677818.20749  -5175440.18546  21894510.5764   21894516.8644
       230.0004        182.0004
  23714570.8204   -8009074.10949  -6205386.98145  23714570.4944   23714577.8504
       212.0004        151.0004
 05  5 19 17 36  0.0000000  0  8G15G18G21G29G 6G22G26G16
  21630125.8654  -17421054.46949 -13546722.05846  21630125.2864   21630131.9334
       233.0004        187.0004
  20597563.6624  -14607622.90849 -11346440.35247  20597563.1944   20597568.3694
       241.0004        211.0004
  20584555.8854   -7834868.86149  -6092464.18547  20584555.2894   20584560.1354
       242.0004        207.0004
  23560250.6514    2239432.34549   1769750.06545  23560250.3184   23560257.5344
       217.0004        156.0004
  21683729.8664    6790787.95649   5302970.61846  21683729.4964   21683736.7194
       233.0004        187.0004
  21837803.4534  -23704801.63249 -17588889.14347  21837802.9744   21837807.5984
       236.0004        192.0004
  21904090.6914   -6627472.78449  -5136210.01346  21904091.4934   21904096.8214
       229.0004        182.0004
  23719909.2674   -7981020.38649  -6183526.97245  23719909.2884   23719916.5614
       213.0004        151.0004
 05  5 19 17 36 30.0000000  0  8G15G18G21G29G 6G22G26G16
  21618806.8984  -17480535.94449 -13593071.23446  21618805.9324   21618813.1824
       233.0004        187.0004
  20595317.8884  -14619424.59649 -11355636.47347  20595317.4184   20595322.5404
       241.0004        211.0004
  20583236.0024   -7841804.97549  -6097868.96047  20583235.3034   20583240.2944
       243.0004        207.0004
  23574523.0114    2314433.90749   1828192.80645  23574522.1184   23574528.6504
       216.0004        156.0004
  21699803.7694    6875257.08849   5368790.67846  21699803.7084   21699810.9454
       231.0004        186.0004
  21826606.9004  -23763639.76749 -17634737.02447  21826606.3554   21826611.0884
       237.0004        192.0004
  21913789.1084   -6576507.23249  -5096496.63146  21913789.2994   21913795.3494
       228.0004        182.0004
  23725329.8574   -7952535.17549  -6161330.71645  23725329.6564   23725337.1954
       215.0004        151.0004
 05  5 19 17 37  0.0000000  0  8G15G18G21G29G 6G22G26G16
  21607507.7344  -17539913.51949 -13639339.45047  21607506.9644   21607513.5164
       232.0004        188.0004
  20593143.2544  -14630852.30449 -11364541.18347  20593142.9344   20593147.8914
       241.0004        211.0004
  20581958.5774   -7848517.81549  -6103099.75547  20581958.0974   20581962.6864
       243.0004        207.0004
  23588870.5764    2389830.85349   1886943.64345  23588870.7854   23588877.3364
       215.0004        156.0004
  21715943.6404    6960072.70449   5434880.71546  21715943.3054   21715950.3964
       231.0004        186.0004
  21815473.5074  -23822146.04749 -17680326.32247  21815473.1124   21815477.6534
       236.0004        192.0004
  21923605.0644   -6524923.91649  -5056301.86946  21923604.9244   21923612.1724
       229.0004        181.0004
  23730832.2294   -7923620.20249  -6138799.60345  23730831.0284   23730839.2404
       213.0004        151.0004
 05  5 19 17 37 30.0000000  0  8G15G18G21G29G 6G22G26G16
  21596228.5854  -17599185.60049 -13685525.46947  21596227.7834   21596234.8734
       233.0004        188.0004
  20591039.7294  -14641906.33249 -11373154.70947  20591039.2904   20591044.3634
       241.0004        211.0004
  20580724.0394   -7855005.50749  -6108155.10847  20580723.4924   20580728.2094
       243.0004        207.0004
  23603293.1064    2465621.68249   1946001.40545  23603292.5114   23603299.7574
       215.0004        155.0004
  21732149.2364    7045233.39849   5501239.64946  21732149.6664   21732156.1224
       231.0004        186.0004
  21804403.3744  -23880319.97349 -17725656.63247  21804403.3064   21804407.1154
       236.0004        192.0004
  21933538.3984   -6472723.98449  -5015626.63646  21933538.0084   21933544.6054
       228.0004        181.0004
  23736416.0764   -7894276.89649  -6115934.71945  23736415.8314   23736422.3964
       213.0004        151.0004
 05  5 19 17 38  0.0000000  0  8G15G18G21G29G 6G22G26G16
  21584969.5494  -17658352.32549 -13731629.39047  21584968.8974   21584975.8514
       234.0004        188.0004
  20589007.1024  -14652587.98249 -11381478.07447  20589006.6374   20589011.7514
       241.0004        211.0004
  20579532.3614   -7861267.88849  -6113034.89447  20579531.7574   20579536.6464
       243.0004        207.0004
  23617789.9064    2541802.92249   2005363.36645  23617788.9754   23617795.9244
       213.0004        154.0004
  21748419.9424    7130736.23649   5567865.19046  21748419.6124   21748426.6374
       231.0004        185.0004
  21793396.3814  -23938161.99049 -17770728.31647  21793396.0964   21793400.2464
       236.0004        193.0004
  21943588.4954   -6419910.48949  -4974473.29646  21943588.5504   21943595.2014
       228.0004        181.0004
  23742080.8854   -7864508.45849  -6092738.55845  23742080.8894   23742088.0964
       213.0004        151.0004
 05  5 19 17 38 30.0000000  0  8G15G18G21G29G 6G22G26G16
  21573730.7964  -17717412.29849 -13777650.12747  21573730.0674   21573737.5104
       233.0004        188.0004
  20587045.1984  -14662897.84649 -11389511.73747  20587044.9154   20587049.9504
       241.0004        211.0004
  20578383.8434   -7867303.52349  -6117737.99747  20578383.2524   20578388.2234
       242.0004        207.0004
  23632360.7124    2618372.91649   2065028.24345  23632360.2674   23632367.3574
       212.0004        154.0004
  21764755.4854    7216579.85749   5634756.26546  21764755.3634   21764762.3154
       231.0004        185.0004
  21782452.6814  -23995671.31949 -17815540.75547  21782452.2624   21782456.5194
       237.0004        193.0004
  21953755.1464   -6366484.67649  -4932842.81946  21953755.2614   21953762.0074
       228.0004        180.0004
  23747826.3554   -7834316.11149  -6069212.08545  23747826.1124   23747833.0044
       214.0004        152.0004
 05  5 19 17 39  0.0000000  0  9G15G18G21G29G 3G 6G22G26G16
  21562511.2994  -17776371.04949 -13823591.98747  21562510.9644   21562518.2514
       233.0004        189.0004
  20585152.6194  -14672843.51849 -11397261.61347  20585152.1164   20585157.2944
       241.0004        211.0004
  20577277.3404   -7873118.27549  -6122268.98547  20577276.8084   20577281.4464
       243.0004        207.0004
  23647003.7384    2695322.65649   2124989.03845  23647002.6714   23647010.3124
       213.0004        153.0004
  24562764.7934   -5743486.26759  -4449125.86644  24562765.1724   24562771.1634
       197.0004        130.0004
  21781154.2684    7302755.68049   5701906.20046  21781154.0714   21781161.1034
       230.0004        185.0004
  21771571.1764  -24052854.13649 -17860098.77947  21771570.7254   21771575.0854
       237.0004        193.0004
  21964036.6714   -6312455.01549  -4890741.81446  21964036.4344   21964043.0804
       228.0004        180.0004
  23753650.8364   -7803708.26949  -6045361.85645  23753650.6604   23753657.6054
       213.0004        152.0004
 05  5 19 17 39 30.0000000  0  9G15G18G21G29G 3G 6G22G26G16
  21551312.9264  -17835218.87949 -13869447.41847  21551312.4274   21551319.0994
       233.0004        189.0004
  20583330.8964  -14682416.75449 -11404721.27847  20583330.3974   20583335.3474
       241.0004        211.0004
  20576214.8244   -7878701.91149  -6126619.87947  20576213.9534   20576218.8964
       243.0004        207.0004
  23661720.3654    2772658.84149   2185250.95945  23661720.1124   23661726.9194
       213.0004        153.0004
  24544314.7944   -5840441.47549  -4524675.28444  24544311.8364   24544322.2194
       197.0004        127.0004
  21797617.5384    7389270.62349   5769320.38546  21797617.4434   21797624.4834
       230.0004        184.0004
  21760753.4904  -24109701.39149 -17904395.32147  21760753.0444   21760758.0854
       237.0004        194.0004
  21974434.4254   -6257814.56049  -4848164.87246  21974434.4364   21974440.9554
       228.0004        179.0004
  23759555.7174   -7772678.11649  -6021182.54345  23759555.7024   23759562.8534
       212.0004        152.0004
 05  5 19 17 40  0.0000000  0  9G15G18G21G29G 3G 6G22G26G16
  21540135.3764  -17893957.03249 -13915217.38547  21540134.4254   21540141.1184
       234.0004        189.0004
  20581579.5024  -14691620.41049 -11411892.95947  20581578.9794   20581584.0254
       241.0004        211.0004
  20575196.0154   -7884055.76649  -6130791.72447  20575195.3794   20575200.3454
       243.0004        207.0004
  23676509.6464    2850376.77449   2245810.34545  23676509.6834   23676516.5024
       213.0004        154.0004
  24525900.8954   -5937206.38449  -4600076.44044  24525901.1024   24525909.1984
       201.0004        129.0004
  21814144.5554    7476120.50349   5836995.55946  21814144.6724   21814151.5884
       229.0004        184.0004
  21749999.3104  -24166214.85249 -17948431.76447  21749998.9494   21750003.4594
       237.0004        194.0004
  21984947.5874   -6202567.52049  -4805115.25846  21984947.7674   21984954.8314
       228.0004        179.0004
  23765540.1694   -7741229.73049  -5996677.33245  23765539.4994   23765546.5794
       213.0004        152.0004
 05  5 19 17 40 30.0000000  0  9G15G18G21G29G 3G 6G22G26G16
  21528979.1274  -17952583.51449 -13960900.33047  21528978.3984   21528985.6224
       233.0004        189.0004
  20579898.4644  -14700454.22349 -11418776.44847  20579897.8334   20579903.2124
       241.0004        211.0004
  20574221.3334   -7889177.74449  -6134782.88347  20574220.8434   20574225.6354
       243.0004        207.0004
  23691371.3814    2928475.59249   2306666.52745  23691371.9544   23691377.5924
       214.0004        155.0004
  24507523.9324   -6033777.22849  -4675326.38345  24507523.7344   24507532.8974
       206.0004        136.0004
  21830735.1294    7563304.66149   5904931.20946  21830734.9474   21830742.0944
       229.0004        183.0004
  21739308.9484  -24222393.09149 -17992206.98747  21739308.9504   21739312.9684
       237.0004        194.0004
  21995576.0614   -6146714.54049  -4761593.49246  21995576.0104   21995582.9034
       229.0004        179.0004
  23771604.1234   -7709363.57549  -5971846.58945  23771603.6114   23771611.1844
       213.0004        151.0004
 05  5 19 17 41  0.0000000  0  9G15G18G21G29G 3G 6G22G26G16
  21517844.1604  -18011098.09549 -14006496.08647  21517843.4174   21517850.4064
       234.0004        189.0004
  20578287.5064  -14708920.01649 -11425373.17347  20578287.0184   20578292.1504
       242.0004        211.0004
  20573290.8244   -7894067.60749  -6138593.17747  20573290.2284   20573294.8954
       243.0004        207.0004
  23706304.9914    3006951.99349   2367816.92545  23706304.7674   23706312.4714
       214.0004        155.0004
  24489184.3164   -6130152.44149  -4750423.90645  24489183.8414   24489192.4334
       206.0004        141.0004
  21847388.8414    7650820.28449   5973125.13946  21847388.8374   21847395.2774
       229.0004        183.0004
  21728682.2244  -24278236.88949 -18035721.61747  21728681.9374   21728686.4624
       237.0004        194.0004
  22006319.3504   -6090258.39649  -4717601.73346  22006319.7924   22006326.4734
       227.0004        179.0004
  23777746.9914   -7677082.76849  -5946692.73045  23777745.9094   23777753.3974
       213.0004        151.0004
 05  5 19 17 41 30.0000000  0  9G15G18G21G29G 3G 6G22G26G16
  21506730.5004  -18069500.73149 -14052004.60947  21506729.6914   21506736.7104
       234.0004        190.0004
  20576746.2314  -14717019.42949 -11431684.40147  20576745.6354   20576750.9114
       241.0004        211.0004
  20572404.5434   -7898725.09649  -6142222.39447  20572403.8014   20572408.8944
       243.0004        207.0004
  23721309.7914    3085802.65149   2429258.95345  23721309.3794   23721316.3464
       214.0004        156.0004
  24470882.2874   -6226330.58949  -4825367.84745  24470881.5414   24470891.0454
       207.0004        143.0004
  21864105.0504    7738664.25549   6041574.92546  21864104.8154   21864112.1794
       229.0004        182.0004
  21718119.0124  -24333747.04449 -18078976.25747  21718118.5994   21718123.0094
       237.0004        194.0004
  22017176.7764   -6033202.28349  -4673142.45146  22017177.1954   22017183.4254
       228.0004        179.0004
  23783968.1504   -7644390.30149  -5921218.11945  23783966.8724   23783975.4734
       212.0004        151.0004
 05  5 19 17 42  0.0000000  0  9G15G18G21G29G 3G 6G22G26G16
  21495638.1484  -18127791.38349 -14097425.87747  21495637.4004   21495644.2914
       234.0004        190.0004
  20575274.4064  -14724753.92349 -11437711.28147  20575273.8044   20575279.0764
       241.0004        211.0004
  20571562.5304   -7903150.07649  -6145670.44147  20571561.9844   20571566.8414
       243.0004        207.0004
  23736385.2074    3165024.34049   2490990.08045  23736384.6834   23736391.7374
       213.0004        155.0004
  24452618.0254   -6322309.75449  -4900156.71545  24452617.3154   24452626.0154
       208.0004        143.0004
  21880883.2094    7826833.80349   6110278.39646  21880882.6404   21880890.3964
       230.0004        182.0004
  21707619.1094  -24388924.25149 -18121971.45947  21707618.8184   21707623.1784
       237.0004        194.0004
  22028147.8384   -5975549.06449  -4628217.90846  22028147.3514   22028154.3414
       228.0004        178.0004
  23790267.1824   -7611288.78149  -5895424.74445  23790266.3214   23790274.1754
       212.0004        151.0004
 05  5 19 17 42 30.0000000  0  9G15G18G21G29G 3G 6G22G26G16
  21484567.4654  -18185968.04249 -14142758.31947  21484566.2744   21484573.7724
       234.0004        190.0004
  20573872.0254  -14732123.46549 -11443453.77947  20573871.5554   20573876.6784
       241.0004        211.0004
  20570765.1674   -7907340.25849  -6148935.52247  20570764.4164   20570769.4014
       243.0004        207.0004
  23751530.9744    3244615.84249   2553009.38545  23751531.3974   23751537.7594
       213.0004        155.0004
  24434392.3174   -6418086.12649  -4974787.57445  24434391.8534   24434401.4074
       208.0004        144.0004
  21897723.1014    7915327.93949   6179234.80346  21897723.4524   21897730.4304
       229.0004        182.0004
  21697182.8244  -24443767.07849 -18164706.10347  21697182.7734   21697186.9934
       237.0004        195.0004
  22039232.3814   -5917299.73749  -4582828.84946  22039232.6574   22039239.1794
       228.0004        178.0004
  23796643.8704   -7577779.35249  -5869313.54245  23796643.8964   23796650.7464
       213.0004        151.0004
 05  5 19 17 43  0.0000000  0  9G15G18G21G29G 3G 6G22G26G16
  21473518.4604  -18244030.66149 -14188001.89947  21473517.4834   21473524.3594
       234.0004        190.0004
  20572538.7854  -14739129.73449 -11448913.20947  20572538.2884   20572543.4844
       241.0004        211.0004
  20570012.4054   -7911295.99849  -6152017.92547  20570011.7874   20570016.5284
       243.0004        207.0004
  23766746.5034    3324573.92349   2615314.32645  23766746.9734   23766753.5004
       213.0004        154.0004
  24416205.4544   -6513658.30349  -5049259.32845  24416205.0634   24416213.5894
       210.0004        145.0004
  21914624.1864    8004143.66449   6248441.79046  21914624.1314   21914631.3114
       227.0004        181.0004
  21686810.0504  -24498276.38049 -18207180.85747  21686809.9244   21686813.9654
       237.0004        195.0004
  22050429.7704   -5858457.18949  -4536977.55046  22050429.9354   22050436.7674
       227.0004        178.0004
  23803097.5854   -7543864.88249  -5842886.71445  23803096.8094   23803104.6894
       212.0004        150.0004
 05  5 19 17 43 30.0000000  0  9G15G18G21G29G 3G 6G22G26G16
  21462491.5704  -18301977.27449 -14233155.08247  21462491.0574   21462497.7384
       234.0004        190.0004
  20571274.6294  -14745772.83849 -11454089.65247  20571274.0334   20571279.2494
       241.0004        211.0004
  20569304.7014   -7915015.11749  -6154915.94747  20569304.1274   20569308.8424
       243.0004        207.0004
  23782031.5444    3404896.95949   2677903.65945  23782031.4124   23782039.0734
       214.0004        154.0004
  24398058.2034   -6609022.80649  -5123569.26345  24398058.0264   24398066.5304
       212.0004        145.0004
  21931586.2734    8093279.77949   6317898.44046  21931586.4494   21931594.0654
       228.0004        181.0004
  21676500.9144  -24552451.01649 -18249394.83547  21676500.5114   21676504.9384
       237.0004        195.0004
  22061739.8564   -5799022.69849  -4490664.99746  22061740.0854   22061747.1524
       227.0004        178.0004
  23809628.1424   -7509546.46849  -5816145.11445  23809627.7584   23809633.9214
       213.0004        150.0004
 05  5 19 17 44  0.0000000  0  9G15G18G21G29G 3G 6G22G26G16
  21451486.6354  -18359808.67249 -14278218.48447  21451485.7954   21451492.9564
       234.0004        190.0004
  20570079.1434  -14752055.28649 -11458985.06547  20570078.5514   20570083.6594
       241.0004        211.0004
  20568641.8684   -7918498.39049  -6157630.19347  20568641.3464   20568645.9554
       242.0004        207.0004
  23797385.2104    3485580.74049   2740774.09545  23797385.0434   23797392.0704
       214.0004        154.0004
  24379950.6064   -6704178.99649  -5197716.87045  24379950.4714   24379958.8034
       211.0004        143.0004
  21948608.6634    8182732.72649   6387601.94946  21948608.6344   21948615.7974
       227.0004        181.0004
  21666255.1844  -24606292.64649 -18291349.32347  21666254.8044   21666259.4584
       237.0004        195.0004
  22073161.7374   -5739000.28349  -4443894.31246  22073161.8184   22073168.4124
       227.0004        177.0004
  23816234.8654   -7474828.04549  -5789091.82545  23816234.4344   23816241.8484
       213.0004        149.0004
 05  5 19 17 44 30.0000000  0  9G15G18G21G29G 3G 6G22G26G16
  21440503.9154  -18417523.07949 -14323190.72747  21440502.9294   21440510.2764
       234.0004        190.0004
  20568952.2524  -14757977.21349 -11463599.55747  20568951.8414   20568956.7134
       241.0004        211.0004
  20568024.3314   -7921743.57049  -6160158.91447  20568023.8634   20568028.7384
       243.0004        207.0004
  23812807.2464    3566623.87849   2803924.54445  23812807.1174   23812814.5204
       213.0004        154.0004
  24361883.2064   -6799123.39349  -5271699.46645  24361882.5504   24361891.1214
       209.0004        141.0004
  21965691.0194    8272500.89749   6457551.11646  21965691.4384   21965698.3474
       228.0004        181.0004
  21656072.9874  -24659800.24649 -18333043.54047  21656072.6834   21656077.2044
       238.0004        195.0004
  22084695.2654   -5678391.24649  -4396666.53546  22084695.0444   22084702.0974
       226.0004        177.0004
  23822917.5004   -7439710.93349  -5761727.86545  23822917.1984   23822924.6984
       211.0004        150.0004
 05  5 19 17 45  0.0000000  0  9G15G18G21G29G 3G 6G22G26G16
  21429543.6294  -18475119.74549 -14368071.21947  21429542.6964   21429549.7464
       234.0004        191.0004
  20567893.6824  -14763539.82149 -11467934.05647  20567893.2444   20567898.2954
       240.0004        211.0004
  20567452.1164   -7924750.65949  -6162502.10647  20567451.6794   20567456.2914
       243.0004        207.0004
  23828297.2074    3648023.71149   2867352.93345  23828296.4344   23828304.5014
       213.0004        155.0004
  24343856.5784   -6893853.68149  -5345515.22945  24343855.8494   24343864.6674
       208.0004        138.0004
  21982833.0244    8362582.33349   6527744.37446  21982832.8224   21982839.9284
       229.0004        181.0004
  21645954.3744  -24712973.91249 -18374477.53847  21645953.8784   21645958.4664
       238.0004        195.0004
  22096339.9704   -5617198.02949  -4348983.54746  22096339.9124   22096346.8254
       226.0004        176.0004
  23829675.4834   -7404197.57649  -5734055.14645  23829675.4794   23829682.7204
       213.0004        149.0004
 05  5 19 17 45 30.0000000  0  9G15G18G21G29G 3G 6G22G26G16
  21418605.9154  -18532597.71749 -14412859.22747  21418604.9784   21418612.4154
       235.0004        191.0004
  20566903.3714  -14768744.07749 -11471989.32047  20566902.8494   20566908.0094
       241.0004        211.0004
  20566925.4884   -7927518.04049  -6164658.51447  20566924.8544   20566929.6944
       243.0004        207.0004
  23843854.4494    3729777.67049   2931057.25445  23843853.2644   23843861.7184
       213.0004        155.0004
  24325871.1094   -6988367.29849  -5419162.10145  24325869.4114   24325880.3594
       207.0004        136.0004
  22000034.1574    8452974.51649   6598179.77746  22000034.1034   22000041.7454
       229.0004        180.0004
  21635899.2774  -24765813.73549 -18415651.39547  21635898.7794   21635903.1994
       238.0004        195.0004
  22108095.3854   -5555422.88449  -4300847.10846  22108095.6744   22108102.2424
       227.0004        176.0004
  23836508.4754   -7368290.06349  -5706075.30245  23836508.2894   23836515.6914
       213.0004        149.0004
 05  5 19 17 46  0.0000000  0  9G15G18G21G29G 3G 6G22G26G16
  21407691.0924  -18589955.35649 -14457553.47347  21407690.0754   21407697.3094
       235.0004        191.0004
  20565981.1654  -14773590.27349 -11475765.57647  20565980.6284   20565985.7924
       241.0004        211.0004
  20566444.7574   -7930044.38149  -6166627.09947  20566444.1674   20566449.0974
       243.0004        207.0004
  23859478.7664    3811883.89449   2995036.07945  23859479.1064   23859486.2324
       213.0004        155.0004
  24307927.5114   -7082661.16349  -5492637.75645  24307927.5224   24307935.9514
       208.0004        137.0004
  22017294.1954    8543676.29149   6668856.41246  22017294.2644   22017301.5054
       228.0004        180.0004
  21625907.8274  -24818319.01749 -18456564.57347  21625907.5064   21625911.6994
       238.0004        196.0004
  22119961.2854   -5493067.39349  -4252258.45546  22119960.8904   22119967.9274
       227.0004        177.0004
  23843416.1814   -7331989.99849  -5677789.56645  23843414.9374   23843422.8344
       214.0004        149.0004
 05  5 19 17 46 30.0000000  0  9G15G18G21G29G 3G 6G22G26G16
  21396799.0664  -18647193.10849 -14502154.29747  21396798.1954   21396805.0284
       235.0004        191.0004
  20565126.6684  -14778080.59049 -11479264.52447  20565126.1594   20565131.2664
       241.0004        211.0004
  20566009.8014   -7932330.12049  -6168408.19947  20566009.0184   20566014.1774
       243.0004        207.0004
  23875169.4284    3894338.70949   3059286.52145  23875168.8654   23875177.1654
       214.0004        155.0004
  24290026.0244   -7176733.76749  -5565941.02745  24290025.7154   24290033.0024
       210.0004        137.0004
  22034612.4474    8634684.08749   6739771.51146  22034612.1654   22034619.3574
       228.0004        180.0004
  21615979.8664  -24870490.82249 -18497217.90047  21615979.6094   21615983.7924
       238.0004        196.0004
  22131936.9474   -5430135.12549  -4203220.36446  22131937.5984   22131943.3564
       227.0004        177.0004
  23850397.9484   -7295300.68949  -5649200.52245  23850397.1944   23850404.8844
       215.0004        149.0004
 05  5 19 17 47  0.0000000  0  9G15G18G21G29G 3G 6G22G26G16
  21385930.2744  -18704309.12049 -14546660.25947  21385929.5794   21385936.2784
       235.0004        191.0004
  20564339.8544  -14782215.33349 -11482486.40447  20564339.3544   20564344.6754
       239.0004        211.0004
  20565621.0414   -7934373.12949  -6170000.16447  20565620.2474   20565625.4094
       241.0004        207.0004
  23890926.1704    3977140.51549   3123807.35245  23890925.9564   23890932.8774
       215.0004        155.0004
  24272167.3964   -7270581.83749  -5639069.34845  24272166.2994   24272175.5034
       210.0004        138.0004
  22051988.6934    8725996.70149   6810924.11846  22051988.4364   22051996.1054
       228.0004        179.0004
  21606115.5534  -24922328.17549 -18537610.61847  21606115.1784   21606119.4614
       238.0004        196.0004
  22144022.0454   -5366627.63349  -4153734.04046  22144021.9034   22144028.4164
       226.0004        177.0004
  23857453.5434   -7258223.43849  -5620309.18245  23857452.8994   23857460.5014
       213.0004        149.0004
 05  5 19 17 47 30.0000000  0  9G15G18G21G29G 3G 6G22G26G16
  21375084.7344  -18761302.74749 -14591070.85747  21375084.1674   21375090.8774
       235.0004        191.0004
  20563620.4444  -14785995.97549 -11485432.36347  20563619.8824   20563625.0434
       239.0004        211.0004
  20565278.6004   -7936172.70549  -6171402.43747  20565278.0944   20565282.9524
       241.0004        207.0004
  23906748.3874    4060286.31849   3188596.24345  23906748.8824   23906755.6144
       216.0004        154.0004
  24254351.8314   -7364203.44849  -5712021.20445  24254350.9824   24254359.8564
       209.0004        137.0004
  22069422.4454    8817611.35749   6882312.08946  22069423.0464   22069429.3924
       227.0004        179.0004
  21596314.7094  -24973831.73749 -18577743.24147  21596314.5434   21596318.4004
       238.0004        196.0004
  22156216.0864   -5302547.59349  -4103801.59146  22156216.4114   22156222.5504
       226.0004        176.0004
  23864582.4394   -7220761.03949  -5591117.72745  23864582.2934   23864588.9554
       213.0004        148.0004
 05  5 19 17 48  0.0000000  0  9G15G18G21G29G 3G 6G22G26G16
  21364262.5724  -18818173.52249 -14635385.72247  21364261.6294   21364268.8914
       235.0004        191.0004
  20562968.2124  -14789423.38449 -11488103.07247  20562967.7444   20562972.6914
       239.0004        211.0004
  20564982.5544   -7937728.46249  -6172614.71747  20564981.9594   20564986.5934
       241.0004        207.0004
  23922635.5194    4143773.24249   3253650.96045  23922635.5744   23922641.4604
       214.0004        151.0004
  24236579.5224   -7457596.39449  -5784794.87845  24236578.8064   24236588.1964
       206.0004        137.0004
  22086913.2254    8909525.56749   6953933.47646  22086912.8784   22086920.6334
       227.0004        178.0004
  21586577.3614  -25025001.73649 -18617615.93547  21586577.1644   21586581.3784
       238.0004        196.0004
  22168518.5084   -5237897.86349  -4053425.22446  22168518.5144   22168525.4874
       225.0004        175.0004
  23871784.0734   -7182916.07649  -5561628.18045  23871782.9794   23871790.8044
       213.0004        148.0004
 05  5 19 17 48 30.0000000  0  9G15G18G21G29G 3G 6G22G26G16
  21353464.1354  -18874919.56549 -14679603.40047  21353463.3454   21353470.1654
       235.0004        192.0004
  20562383.1634  -14792497.88149 -11490498.78647  20562382.6994   20562387.7764
       240.0004        211.0004
  20564733.2354   -7939038.66849  -6173635.65847  20564732.5324   20564737.4304
       241.0004        207.0004
  23938587.2244    4227599.71749   3318970.24345  23938586.9914   23938592.8794
       211.0004        148.0004
  24218851.4664   -7550757.55849  -5857387.92145  24218850.4594   24218859.6774
       204.0004        136.0004
  22104460.7564    9001737.96649   7025787.22346  22104460.7804   22104468.1394
       227.0004        178.0004
  21576903.6624  -25075837.42749 -18657228.13647  21576903.1914   21576907.7504
       238.0004        196.0004
  22180929.0724   -5172679.98949  -4002606.13846  22180928.4534   22180935.8394
       225.0004        175.0004
  23879058.2874   -7144689.86449  -5531841.55245  23879058.1624   23879064.5204
       211.0004        148.0004
 05  5 19 17 49  0.0000000  0  9G15G18G21G29G 3G 6G22G26G16
  21342689.6044  -18931540.03649 -14723723.22047  21342688.9244   21342695.4244
       235.0004        192.0004
  20561864.9884  -14795221.01949 -11492620.70947  20561864.5674   20561869.6504
       239.0004        211.0004
  20564530.7934   -7940102.47749  -6174464.60047  20564530.0524   20564535.0354
       241.0004        207.0004
  23954602.9544    4311762.93049   3384551.92045  23954602.4144   23954609.4514
       209.0004        146.0004
  24201167.9884   -7643684.49249  -5929798.44945  24201168.9994   24201175.6444
       204.0004        136.0004
  22122064.5534    9094246.07249   7097871.38546  22122064.8634   22122072.0654
       228.0004        177.0004
  21567293.4434  -25126339.22849 -18696580.15947  21567292.9544   21567297.4844
       238.0004        197.0004
  22193447.2694   -5106896.61049  -3951346.38746  22193446.8864   22193454.3764
       225.0004        175.0004
  23886404.5184   -7106085.30749  -5501760.10845  23886403.9474   23886412.0924
       212.0004        147.0004
 05  5 19 17 49 30.0000000  0  9G15G18G21G29G 3G 6G22G26G16
  21331939.0284  -18988034.52049 -14767744.88047  21331938.4864   21331945.1264
       235.0004        192.0004
  20561413.2674  -14797594.70049 -11494470.33747  20561412.7204   20561417.8634
       239.0004        211.0004
  20564375.2824   -7940919.71049  -6175101.41347  20564374.6704   20564379.2404
       241.0004        207.0004
  23970682.1324    4396259.72149   3450393.51345  23970681.1534   23970688.8834
       209.0004        145.0004
  24183529.4134   -7736375.30649  -6002024.96945  24183529.5114   24183538.6344
       209.0004        138.0004
  22139724.0124    9187047.10649   7170183.80446  22139723.6884   22139731.3714
       226.0004        177.0004
  21557746.7094  -25176507.42249 -18735672.23947  21557746.6634   21557750.7474
       238.0004        197.0004
  22206072.4944   -5040550.77349  -3899648.37946  22206072.4064   22206079.2054
       225.0004        175.0004
  23893822.2644   -7067105.05949  -5471385.92245  23893821.6514   23893828.2554
       211.0004        146.0004
 05  5 19 17 50  0.0000000  0  9G15G18G21G29G 3G 6G22G26G16
  21321212.6294  -19044402.00549 -14811667.57747  21321211.9424   21321218.9514
       235.0004        192.0004
  20561028.0064  -14799619.21749 -11496047.88247  20561027.5474   20561032.5624
       239.0004        211.0004
  20564266.9194   -7941489.19649  -6175545.16747  20564266.3254   20564271.1134
       241.0004        207.0004
  23986824.3744    4481087.54749   3516493.04845  23986824.1674   23986832.0664
       211.0004        147.0004
  24165936.3634   -7828827.34449  -6074065.46245  24165935.9514   24165945.4974
       209.0004        140.0004
  22157438.7944    9280138.90149   7242722.78646  22157438.5744   22157446.5704
       227.0004        176.0004
  21548263.4914  -25226342.20649 -18774504.50747  21548263.1484   21548267.2624
       239.0004        197.0004
  22218804.3094   -4973644.86249  -3847513.94346  22218804.3224   22218811.0784
       226.0004        175.0004
  23901311.0374   -7027751.31949  -5440720.70245  23901310.3474   23901316.8214
       211.0004        146.0004
 05  5 19 17 50 30.0000000  0  9G15G18G21G29G 3G 6G22G26G16
  21310510.7614  -19100640.80349 -14855489.99947  21310510.2214   21310516.8784
       236.0004        193.0004
  20560709.0574  -14801295.33549 -11497353.95047  20560708.4184   20560713.7104
       239.0004        211.0004
  20564206.0184   -7941809.16149  -6175794.49147  20564205.4074   20564210.4164
       241.0004        207.0004
  24003029.2734    4566244.53849   3582849.08645  24003029.2694   24003035.6134
       212.0004        149.0004
  24148389.3534   -7921037.40949  -6145917.40845  24148388.0194   24148397.4024
       207.0004        139.0004
  22175208.6084    9373519.73949   7315486.99946  22175208.6234   22175216.5184
       226.0004        176.0004
  21538843.7904  -25275843.07449 -18813076.58647  21538843.2794   21538847.7644
       239.0004        197.0004
  22231642.3794   -4906180.74649  -3794944.53646  22231642.2744   22231649.2374
       226.0004        176.0004
  23908870.5704   -6988025.70149  -5409765.69745  23908869.8544   23908878.0484
       211.0004        145.0004
 05  5 19 17 51  0.0000000  0  9G15G18G21G29G 3G 6G22G26G16
  21299833.4084  -19156750.55049 -14899211.85847  21299832.5434   21299839.2524
       236.0004        193.0004
  20560456.0974  -14802624.67949 -11498389.80347  20560455.5134   20560460.6784
       239.0004        211.0004
  20564192.6984   -7941879.34249  -6175849.18147  20564192.0964   20564196.7914
       241.0004        207.0004
  24019296.2494    4651727.73349   3649459.29945  24019295.5884   24019302.9574
       212.0004        150.0004
  24130888.6974   -8013003.82049  -6217579.49345  24130888.3844   24130897.7714
       206.0004        138.0004
  22193032.9144    9467186.88749   7388474.30346  22193032.7534   22193040.7814
       227.0004        176.0004
  21529487.4734  -25325010.54749 -18851388.87747  21529487.0864   21529491.7064
       239.0004        197.0004
  22244586.0474   -4838161.57149  -3741942.62046  22244586.5034   22244592.9364
       226.0004        176.0004
  23916500.3074   -6947931.46749  -5378523.47145  23916500.3814   23916507.4564
       212.0004        144.0004
 05  5 19 17 51 30.0000000  0  9G15G18G21G29G 3G 6G22G26G16
  21289180.8664  -19212729.98649 -14942832.18047  21289180.2274   21289187.1584
       236.0004        193.0004
  20560268.8624  -14803608.61449 -11499156.51147  20560268.2624   20560273.4934
       239.0004        211.0004
  20564227.0894   -7941698.49749  -6175708.26547  20564226.4824   20564231.3974
       241.0004        207.0004
  24035624.8114    4737534.67049   3716321.78845  24035624.5334   24035631.2854
       212.0004        148.0004
  24113435.0094   -8104723.59249  -6289049.39345  24113434.4074   24113443.3324
       209.0004        140.0004
  22210911.3794    9561138.27549   7461683.09846  22210912.1064   22210918.8134
       227.0004        175.0004
  21520194.6724  -25373844.46649 -18889441.25647  21520194.5094   21520198.2564
       239.0004        197.0004
  22257634.9324   -4769589.50949  -3688509.88246  22257634.9704   22257641.0944
       226.0004        175.0004
  23924199.7514   -6907470.49449  -5346995.47545  23924199.8914   23924206.2314
       211.0004        143.0004
 05  5 19 17 52  0.0000000  0  9G15G18G21G29G 3G 6G22G26G16
  21278553.3234  -19268578.08849 -14986350.15947  21278552.8244   21278559.5614
       236.0004        193.0004
  20560147.3654  -14804247.19149 -11499654.10547  20560146.8764   20560152.1084
       239.0004        211.0004
  20564309.4644   -7941265.60949  -6175370.94847  20564308.9854   20564313.5714
       241.0004        207.0004
  24052014.5124    4823662.81549   3783434.57445  24052014.2774   24052021.1464
       207.0004        144.0004
  24096028.5404   -8196194.36649  -6360325.24945  24096027.4374   24096036.6494
       210.0004        143.0004
  22228843.4994    9655371.70249   7535111.66546  22228843.7424   22228850.7234
       226.0004        175.0004
  21510965.3014  -25422345.05549 -18927233.89247  21510964.9194   21510969.0584
       239.0004        198.0004
  22270788.5084   -4700467.11049  -3634648.30646  22270788.8444   22270795.1564
       225.0004        175.0004
  23931968.5734   -6866645.02049  -5315183.45145  23931968.3234   23931974.7634
       210.0004        143.0004
 05  5 19 17 52 30.0000000  0  9G15G18G21G29G 3G 6G22G26G16
  21267950.7954  -19324294.64849 -15029765.64547  21267949.8854   21267957.0354
       236.0004        193.0004
  20560091.1684  -14804542.54449 -11499884.25447  20560090.5454   20560095.8004
       240.0004        211.0004
  20564439.8694   -7940580.35249  -6174836.98447  20564439.3654   20564444.1594
       241.0004        207.0004
  24068464.6914    4910108.81949   3850795.05545  24068464.0994   24068470.3994
       206.0004        139.0004
  24078669.9744   -8287414.33749  -6431405.68845  24078669.4244   24078678.5644
       211.0004        144.0004
  22246828.7344    9749884.34849   7608757.79846  22246828.6514   22246836.5174
       227.0004        175.0004
  21501799.2134  -25470512.97949 -18964767.31147  21501798.7344   21501802.9974
       238.0004        198.0004
  22284046.1684   -4630797.70649  -3580360.49346  22284046.2964   22284052.9744
       225.0004        174.0004
  23939806.1894   -6825458.41849  -5283090.01945  23939806.9374   23939813.6864
       211.0004        142.0004
 05  5 19 17 53  0.0000000  0  9G15G18G21G29G 3G 6G22G26G16
  21257373.6224  -19379877.91749 -15073077.26647  21257372.6374   21257379.5884
       236.0004        193.0004
  20560100.0814  -14804495.54749 -11499847.63747  20560099.5694   20560104.7294
       240.0004        211.0004
  20564618.5354   -7939641.51549  -6174105.42847  20564617.8014   20564622.9154
       242.0004        207.0004
  24084974.8134    4996870.80049   3918401.72245  24084974.7794   24084982.0084
       205.0004        137.0004
  24061359.5854   -8378380.72949  -6502288.50745  24061358.8984   24061367.7204
       210.0004        147.0004
  22264866.6774    9844674.20749   7682619.94946  22264867.2234   22264873.7274
       226.0004        175.0004
  21492696.4754  -25518347.89749 -19002041.24547  21492696.3464   21492700.5234
       239.0004        198.0004
  22297407.5304   -4560583.31449  -3525648.01946  22297408.0464   22297414.2304
       226.0004        174.0004
  23947712.1524   -6783912.46749  -5250716.56845  23947710.7254   23947718.7644
       210.0004        142.0004
 05  5 19 17 53 30.0000000  0  9G15G18G21G29G 3G 6G22G26G16
  21246822.0404  -19435326.88049 -15116284.23747  21246821.2624   21246828.1144
       236.0004        194.0004
  20560174.0764  -14804106.87749 -11499544.78447  20560173.4684   20560178.7174
       239.0004        211.0004
  20564845.6744   -7938447.92749  -6173175.36547  20564845.2244   20564849.8754
       241.0004        207.0004
  24101544.7044    5083946.18449   3986252.60245  24101545.5074   24101552.6254
       207.0004        139.0004
  24044098.0984   -8469090.84549  -6572971.63445  24044097.1484   24044106.1684
       211.0004        147.0004
  22282957.0224    9939739.17349   7756696.45746  22282957.4804   22282964.1634
       226.0004        175.0004
  21483657.1944  -25565849.74949 -19039055.65147  21483657.0044   21483661.3614
       239.0004        198.0004
  22310872.1644   -4489826.44949  -3470512.83546  22310872.4744   22310879.1004
       225.0004        174.0004
  23955686.0814   -6742009.51249  -5218064.95845  23955684.6654   23955693.2844
       209.0004        141.0004
 05  5 19 17 54  0.0000000  0  9G15G18G21G29G 3G 6G22G26G16
  21236296.2424  -19490640.10849 -15159385.43647  21236295.7884   21236302.5514
       236.0004        194.0004
  20560312.8864  -14803377.43849 -11498976.39247  20560312.2124   20560317.6854
       239.0004        211.0004
  20565121.5444   -7936998.28049  -6172045.76847  20565121.0034   20565125.8854
       241.0004        207.0004
  24118173.8954    5171332.70949   4054345.94345  24118173.8864   24118181.7304
       211.0004        145.0004
  24026885.8464   -8559541.67549  -6643452.72745  24026885.1344   24026893.6534
       212.0004        148.0004
  22301099.3044   10035077.13649   7830985.69946  22301099.2104   22301106.6404
       226.0004        175.0004
  21474681.2574  -25613018.54249 -19075810.52547  21474680.9784   21474684.9704
       239.0004        198.0004
  22324439.5694   -4418529.46249  -3414956.77346  22324439.4924   22324446.3194
       225.0004        174.0004
  23963727.4964   -6699751.53249  -5185136.70245  23963728.3664   23963733.9674
       209.0004        141.0004
 05  5 19 17 54 30.0000000  0 10G15G18G21G29G 3G 6G14G22G26G16
  21225795.5834  -19545821.41949 -15202383.84747  21225794.7484   21225801.4784
       236.0004        194.0004
  20560515.3454  -14802313.47149 -11498147.33347  20560514.6924   20560519.9224
       239.0004        211.0004
  20565445.3534   -7935296.68249  -6170719.85447  20565444.7494   20565449.6414
       242.0004        207.0004
  24134860.9184    5259022.75949   4122675.78745  24134861.4734   24134868.6794
       213.0004        150.0004
  24009722.3414   -8649735.77849  -6713733.76445  24009722.1654   24009730.4344
       215.0004        149.0004
  22319292.1874   10130680.89349   7905482.04946  22319291.9364   22319299.9764
       227.0004        175.0004
                  -7933806.49359  -1207974.29843
       200.0004         74.0004
  21465767.6714  -25659859.48749 -19112309.93847  21465767.2494   21465771.3514
       239.0004        198.0004
  22338108.3454   -4346699.93549  -3358985.74746  22338108.1404   22338114.8654
       225.0004        174.0004
  23971835.0634   -6657145.70349  -5151937.39445  23971834.9944   23971842.3094
       210.0004        140.0004
 05  5 19 17 55  0.0000000  0 10G15G18G21G29G 3G 6G14G22G26G16
  21215321.2434  -19600864.42249 -15245274.48147  21215320.5394   21215327.3894
       237.0004        194.0004
  20560782.3074  -14800910.56449 -11497054.16347  20560781.8074   20560787.0904
       239.0004        211.0004
  20565818.3694   -7933336.43749  -6169192.39347  20565817.6314   20565822.5014
       241.0004        207.0004
  24151606.2134    5347019.25749   4191244.41845  24151606.1714   24151613.2444
       212.0004        152.0004
  23992609.3964   -8739665.32949  -6783808.67645  23992608.3334   23992616.9604
       215.0004        150.0004
  22337536.2224   10226553.52049   7980187.90346  22337536.8854   22337543.5354
       226.0004        175.0004
                  -8047230.12349  -1296348.17043
       195.0004         74.0004
  21456917.5374  -25706367.26149 -19148549.73047  21456917.3154   21456921.4704
       239.0004        198.0004
  22351878.9254   -4274335.17649  -3302597.65646  22351879.4364   22351885.4174
       225.0004        173.0004
  23980009.3504   -6614189.83949  -5118465.33045  23980008.2064   23980016.8274
       209.0004        140.0004
 05  5 19 17 55 30.0000000  0 10G15G18G21G29G 3G 6G14G22G26G16
  21204873.6374  -19655766.82549 -15288055.55447  21204872.7724   21204879.5654
       236.0004        195.0004
  20561113.8634  -14799168.21349 -11495696.49047  20561113.3774   20561118.5354
       240.0004        211.0004
  20566241.0314   -7931115.42449  -6167461.73947  20566240.4584   20566245.3394
       241.0004        206.0004
  24168409.4964    5435320.63549   4260050.61545  24168408.7594   24168416.3744
       210.0004        152.0004
  23975547.3564   -8829326.52949  -6853674.47545  23975546.1854   23975555.0154
       213.0004        151.0004
  22355831.2244   10322694.02249   8055102.49346  22355831.1804   22355839.3534
       226.0004        174.0004
                  -8160647.31849   -963750.73943
       196.0004         74.0004
  21448130.9894  -25752540.85849 -19184529.12947  21448130.5184   21448134.6824
       239.0004        198.0004
  22365751.0414   -4201436.63949  -3245793.62646  22365751.1634   22365757.4324
       223.0004        173.0004
  23988250.0754   -6570884.81649  -5084721.19845  23988250.2204   23988256.4494
       208.0004        139.0004
 05  5 19 17 56  0.0000000  0 10G15G18G21G29G 3G 6G14G22G26G16
  21194452.8214  -19710528.52649 -15330726.99247  21194451.9564   21194459.1094
       236.0004        195.0004
  20561509.5234  -14797089.08549 -11494076.39347  20561508.9244   20561514.2974
       239.0004        211.0004
  20566713.2134   -7928634.01749  -6165528.18347  20566712.6014   20566717.3534
       241.0004        206.0004
  24185270.0694    5523923.52849   4329091.75645  24185269.4464   24185276.9974
       208.0004        148.0004
  23958536.6334   -8918717.94649  -6923330.04545  23958536.7704   23958544.4204
       213.0004        150.0004
  22374176.5314   10419098.92949   8130223.10846  22374175.9904   22374184.0944
       225.0004        174.0004
                  -8274056.80449  -1052118.31643
       195.0004         74.0004
  21439407.7964  -25798381.28849 -19220248.92347  21439407.5774   21439411.7424
       239.0004        199.0004
  22379724.0774   -4128007.90049  -3188576.47146  22379723.9504   22379730.1104
       223.0004        172.0004
  23996556.5194   -6527233.96649  -5050707.59145  23996556.1804   23996563.2854
       209.0004        139.0004
 05  5 19 17 56 30.0000000  0 10G15G18G21G29G 3G 6G14G22G26G16
  21184058.9184  -19765148.87949 -15373288.28647  21184058.2424   21184064.9274
       237.0004        195.0004
  20561968.9304  -14794674.76549 -11492195.10947  20561968.4754   20561973.6374
       239.0004        211.0004
  20567235.1314   -7925891.31949  -6163391.02247  20567234.4504   20567239.3104
       242.0004        206.0004
  24202187.3754    5612824.88149   4398365.43945  24202186.7054   24202195.1774
       206.0004        145.0004
  23941577.6544   -9007837.44949  -6992773.73745  23941577.0914   23941586.3624
       215.0004        150.0004
  22392571.5784   10515765.51849   8205547.63146  22392571.7354   22392578.9754
       225.0004        173.0004
                  -8387456.41058  -1140476.93443
       193.0004         74.0004
  21430747.9484  -25843889.17749 -19255709.58547  21430747.6524   21430751.7804
       240.0004        199.0004
  22393797.4084   -4054052.13949  -3130948.63646  22393797.5574   22393804.6454
       224.0004        172.0004
  24004928.2834   -6483240.35049  -5016426.88545  24004928.7844   24004935.0684
       207.0004        139.0004
 05  5 19 17 57  0.0000000  0 10G15G18G21G29G 3G 6G14G22G26G16
  21173691.9924  -19819627.30949 -15415738.98847  21173691.1794   21173697.8384
       237.0004        195.0004
  20562491.9154  -14791926.49149 -11490053.59647  20562491.4034   20562496.6564
       239.0004        211.0004
  20567806.8824   -7922886.73149  -6161049.78847  20567806.1244   20567811.2194
       241.0004        206.0004
  24219160.9254    5702021.63049   4467869.31545  24219160.8944   24219168.4234
       209.0004        144.0004
  23924670.8524   -9096683.21049  -7062004.13545  23924670.9254   23924678.6904
       213.0004        150.0004
  22411015.9514   10612691.07749   8281073.95246  22411015.6274   22411023.8964
       224.0004        173.0004
                  -8500843.81248   -807722.49543
       194.0004         74.0004
  21422151.1904  -25889065.33349 -19290911.75247  21422150.6244   21422155.2954
       239.0004        199.0004
  22407970.4134   -3979572.49649  -3072912.59346  22407970.2754   22407976.9484
       223.0004        172.0004
  24013364.7234   -6438906.56949  -4981881.13745  24013363.4744   24013371.8754
       206.0004        138.0004
 05  5 19 17 57 30.0000000  0 10G15G18G21G29G 3G 6G14G22G26G16
  21163352.2084  -19873963.02149 -15458078.48947  21163351.3674   21163358.0844
       236.0004        195.0004
  20563078.1134  -14788846.10349 -11487653.29647  20563077.4984   20563082.7384
       240.0004        211.0004
  20568428.5864   -7919619.72149  -6158504.07547  20568427.9544   20568432.9654
       241.0004        206.0004
  24236190.2594    5791510.82849   4537601.10845  24236190.7844   24236198.2464
       212.0004        145.0004
  23907816.4714   -9185252.92849  -7131019.43745  23907815.7844   23907825.0804
       214.0004        149.0004
  22429509.1234   10709873.02249   8356800.03946  22429509.5844   22429516.5284
       224.0004        172.0004
                  -8614217.02149   -896067.10443
       202.0004         74.0004
  21413617.4504  -25933910.17549 -19325855.76147  21413617.0914   21413621.3944
       240.0004        199.0004
  22422242.6014   -3904571.80649  -3014470.53946  22422242.4954   22422249.9184
       224.0004        171.0004
  24021865.2094   -6394235.73949  -4947072.74345  24021865.3794   24021871.6774
       206.0004        138.0004
 05  5 19 17 58  0.0000000  0 10G15G18G21G29G 3G 6G14G22G26G16
  21153039.9484  -19928154.27049 -15500305.41647  21153039.2264   21153046.3064
       237.0004        196.0004
  20563727.4094  -14785434.10549 -11484994.60147  20563726.8484   20563732.1004
       239.0004        211.0004
  20569100.4724   -7916089.06149  -6155752.91847  20569099.8784   20569104.6614
       241.0004        207.0004
  24253274.9344    5881290.43549   4607559.20545  24253274.7274   24253281.9194
       213.0004        148.0004
  23891015.2644   -9273543.68349  -7199817.36645  23891014.7554   23891023.2034
       212.0004        148.0004
  22448050.6874   10807309.25949   8432724.27946  22448050.3684   22448058.4414
       224.0004        171.0004
                  -8727572.53449   -984398.86343
       202.0004         74.0004
  21405146.8384  -25978423.53349 -19360541.46747  21405146.5454   21405150.4674
       240.0004        199.0004
  22436613.4234   -3829052.68949  -2955624.49746  22436613.9754   22436620.6294
       223.0004        171.0004
  24030429.5314   -6349230.08849  -4912003.44945  24030429.3104   24030436.5214
       207.0004        139.0004
 05  5 19 17 58 30.0000000  0 10G15G18G21G29G 3G 6G14G22G26G16
  21142755.2554  -19982200.77549 -15542419.55947  21142754.5464   21142761.0924
       238.0004        196.0004
  20564439.4204  -14781692.33249 -11482078.93047  20564438.8554   20564443.9954
       239.0004        211.0004
  20569822.5654   -7912294.40549  -6152796.05047  20569821.8994   20569826.8904
       241.0004        207.0004
  24270414.0704    5971356.79349   4677740.73445  24270414.3124   24270421.2684
       214.0004        151.0004
  23874267.4294   -9361553.92849  -7268396.69845  23874266.5494   23874275.2334
       211.0004        147.0004
  22466640.0324   10904996.64549   8508844.22146  22466640.0194   22466648.0084
       224.0004        170.0004
                  -8840908.89949   -651581.48343
       204.0004         74.0004
  21396739.0884  -26022606.59749 -19394969.80047  21396738.6564   21396742.6644
       240.0004        199.0004
  22451082.2374   -3753018.66749  -2896377.24646  22451082.2594   22451089.5654
       223.0004        170.0004
  24039056.9524   -6303892.92649  -4876675.84845  24039056.7974   24039063.7884
       206.0004        139.0004
 05  5 19 17 59  0.0000000  0 10G15G18G21G29G 3G 6G14G22G26G16
  21132498.3964  -20036100.86449 -15584419.61247  21132497.3864   21132504.3984
       238.0004        196.0004
  20565214.1234  -14777621.40149 -11478906.77647  20565213.7294   20565218.4674
       239.0004        211.0004
  20570595.2174   -7908234.16049  -6149632.23047  20570594.4644   20570599.6174
       241.0004        206.0004
  24287607.4764    6061708.07349   4748144.27945  24287607.9194   24287614.4434
       212.0004        153.0004
  23857573.4714   -9449280.38549  -7336754.90245  23857572.2764   23857580.9874
       213.0004        147.0004
  22485276.8614   11002933.62949   8585158.65746  22485276.7074   22485284.7114
       223.0004        170.0004
                  -8954222.65749   -739878.27243
       208.0004         74.0004
  21388394.2424  -26066458.60449 -19429140.16447  21388393.7534   21388398.0134
       240.0004        199.0004
  22465648.6854   -3676471.80349  -2836730.37346  22465648.6354   22465655.4274
       223.0004        170.0004
  24047747.1444   -6258225.87249  -4841091.17545  24047746.4624   24047753.3354
       207.0004        138.0004
